<?xml version="1.0" encoding="UTF-8" standalone="no" ?>
<gpx xmlns="http://www.topografix.com/GPX/1/1" xmlns:xsi="http://www.w3.org/2001/XMLSchema-instance" xsi:schemaLocation="http://www.topografix.com/GPX/1/1 http://www.topografix.com/GPX/1/1/gpx.xsd" version="1.1" creator="VisuGPX - https://www.visugpx.com">
  <metadata>
    <name>refuge de l'oule -bareges</name>
    <desc><![CDATA[jour 2- montée vers le refuge de bastan -portage jusqu"à la cabane de bastan puis neige continue sur tout le parcours - montée vers la hourquette nere par une succession de petits vallons sur une neige portante 
la descente depuis la hourquette nere fut un veritable enchantement jusqu'au parking de tounaboup sans dechausser une seule fois]]></desc>
  </metadata>
  <trk>
    <name><![CDATA[20190322195016-RMMXn]]></name>
    <trkseg>
      <trkpt lat="42.82452" lon="0.20732">
        <ele>1821.3</ele>
      </trkpt>
      <trkpt lat="42.82465" lon="0.20727">
        <ele>1822.6</ele>
      </trkpt>
      <trkpt lat="42.82471" lon="0.20736">
        <ele>1825</ele>
      </trkpt>
      <trkpt lat="42.82471" lon="0.20752">
        <ele>1843.3</ele>
      </trkpt>
      <trkpt lat="42.82487" lon="0.2075">
        <ele>1842.8</ele>
      </trkpt>
      <trkpt lat="42.82508" lon="0.20739">
        <ele>1841.4</ele>
      </trkpt>
      <trkpt lat="42.82525" lon="0.20725">
        <ele>1842.9</ele>
      </trkpt>
      <trkpt lat="42.82543" lon="0.20706">
        <ele>1842.8</ele>
      </trkpt>
      <trkpt lat="42.82565" lon="0.20683">
        <ele>1841</ele>
      </trkpt>
      <trkpt lat="42.82584" lon="0.20663">
        <ele>1837.2</ele>
      </trkpt>
      <trkpt lat="42.82603" lon="0.20643">
        <ele>1837.4</ele>
      </trkpt>
      <trkpt lat="42.82622" lon="0.20627">
        <ele>1837.6</ele>
      </trkpt>
      <trkpt lat="42.82652" lon="0.20603">
        <ele>1835.5</ele>
      </trkpt>
      <trkpt lat="42.82675" lon="0.20588">
        <ele>1839.7</ele>
      </trkpt>
      <trkpt lat="42.82699" lon="0.20577">
        <ele>1828.8</ele>
      </trkpt>
      <trkpt lat="42.82728" lon="0.20557">
        <ele>1830.9</ele>
      </trkpt>
      <trkpt lat="42.82754" lon="0.2055">
        <ele>1835.6</ele>
      </trkpt>
      <trkpt lat="42.82777" lon="0.20555">
        <ele>1835.4</ele>
      </trkpt>
      <trkpt lat="42.82799" lon="0.20561">
        <ele>1835.3</ele>
      </trkpt>
      <trkpt lat="42.82815" lon="0.2056">
        <ele>1835.5</ele>
      </trkpt>
      <trkpt lat="42.82841" lon="0.20561">
        <ele>1835.1</ele>
      </trkpt>
      <trkpt lat="42.82868" lon="0.20571">
        <ele>1834.8</ele>
      </trkpt>
      <trkpt lat="42.82889" lon="0.20581">
        <ele>1836.5</ele>
      </trkpt>
      <trkpt lat="42.8292" lon="0.20571">
        <ele>1839.6</ele>
      </trkpt>
      <trkpt lat="42.8296" lon="0.20566">
        <ele>1835.2</ele>
      </trkpt>
      <trkpt lat="42.83018" lon="0.20545">
        <ele>1837.2</ele>
      </trkpt>
      <trkpt lat="42.83064" lon="0.20529">
        <ele>1835.8</ele>
      </trkpt>
      <trkpt lat="42.83098" lon="0.20514">
        <ele>1840.3</ele>
      </trkpt>
      <trkpt lat="42.83147" lon="0.20494">
        <ele>1823</ele>
      </trkpt>
      <trkpt lat="42.83187" lon="0.2048">
        <ele>1832.5</ele>
      </trkpt>
      <trkpt lat="42.83207" lon="0.20466">
        <ele>1831.8</ele>
      </trkpt>
      <trkpt lat="42.83232" lon="0.20447">
        <ele>1829.6</ele>
      </trkpt>
      <trkpt lat="42.83256" lon="0.20438">
        <ele>1838.9</ele>
      </trkpt>
      <trkpt lat="42.83296" lon="0.20403">
        <ele>1824.3</ele>
      </trkpt>
      <trkpt lat="42.83317" lon="0.20384">
        <ele>1824.4</ele>
      </trkpt>
      <trkpt lat="42.83339" lon="0.20362">
        <ele>1834.4</ele>
      </trkpt>
      <trkpt lat="42.83356" lon="0.20343">
        <ele>1832.6</ele>
      </trkpt>
      <trkpt lat="42.83372" lon="0.20329">
        <ele>1820.8</ele>
      </trkpt>
      <trkpt lat="42.83388" lon="0.20319">
        <ele>1824</ele>
      </trkpt>
      <trkpt lat="42.83398" lon="0.20297">
        <ele>1821.7</ele>
      </trkpt>
      <trkpt lat="42.83407" lon="0.20288">
        <ele>1820.5</ele>
      </trkpt>
      <trkpt lat="42.83422" lon="0.2028">
        <ele>1834.7</ele>
      </trkpt>
      <trkpt lat="42.83449" lon="0.20268">
        <ele>1834</ele>
        <time>2019-03-21T07:11:59Z</time>
      </trkpt>
      <trkpt lat="42.83449" lon="0.20268">
        <ele>1834</ele>
        <time>2019-03-21T07:11:59Z</time>
      </trkpt>
      <trkpt lat="42.83449" lon="0.20268">
        <ele>1834</ele>
        <time>2019-03-21T07:12:00Z</time>
      </trkpt>
      <trkpt lat="42.83448" lon="0.20267">
        <ele>1835</ele>
        <time>2019-03-21T07:12:46Z</time>
      </trkpt>
      <trkpt lat="42.83459" lon="0.20257">
        <ele>1834</ele>
        <time>2019-03-21T07:12:59Z</time>
      </trkpt>
      <trkpt lat="42.83466" lon="0.2025">
        <ele>1834</ele>
        <time>2019-03-21T07:13:07Z</time>
      </trkpt>
      <trkpt lat="42.83472" lon="0.20245">
        <ele>1834</ele>
        <time>2019-03-21T07:13:13Z</time>
      </trkpt>
      <trkpt lat="42.83476" lon="0.20239">
        <ele>1834</ele>
        <time>2019-03-21T07:13:18Z</time>
      </trkpt>
      <trkpt lat="42.83481" lon="0.20234">
        <ele>1834</ele>
        <time>2019-03-21T07:13:23Z</time>
      </trkpt>
      <trkpt lat="42.83488" lon="0.20225">
        <ele>1834</ele>
        <time>2019-03-21T07:13:32Z</time>
      </trkpt>
      <trkpt lat="42.83492" lon="0.20221">
        <ele>1835</ele>
        <time>2019-03-21T07:13:35Z</time>
      </trkpt>
      <trkpt lat="42.83498" lon="0.20213">
        <ele>1835</ele>
        <time>2019-03-21T07:13:41Z</time>
      </trkpt>
      <trkpt lat="42.835" lon="0.20209">
        <ele>1835</ele>
        <time>2019-03-21T07:13:44Z</time>
      </trkpt>
      <trkpt lat="42.83513" lon="0.20205">
        <ele>1835</ele>
        <time>2019-03-21T07:13:55Z</time>
      </trkpt>
      <trkpt lat="42.83517" lon="0.20204">
        <ele>1836</ele>
        <time>2019-03-21T07:13:58Z</time>
      </trkpt>
      <trkpt lat="42.83529" lon="0.20197">
        <ele>1836</ele>
        <time>2019-03-21T07:14:07Z</time>
      </trkpt>
      <trkpt lat="42.83532" lon="0.20196">
        <ele>1836</ele>
        <time>2019-03-21T07:14:10Z</time>
      </trkpt>
      <trkpt lat="42.83538" lon="0.20193">
        <ele>1836</ele>
        <time>2019-03-21T07:14:17Z</time>
      </trkpt>
      <trkpt lat="42.8354" lon="0.20191">
        <ele>1836</ele>
        <time>2019-03-21T07:14:20Z</time>
      </trkpt>
      <trkpt lat="42.8356" lon="0.20173">
        <ele>1836</ele>
        <time>2019-03-21T07:14:45Z</time>
      </trkpt>
      <trkpt lat="42.83564" lon="0.20168">
        <ele>1836</ele>
        <time>2019-03-21T07:14:54Z</time>
      </trkpt>
      <trkpt lat="42.83567" lon="0.20165">
        <ele>1836</ele>
        <time>2019-03-21T07:14:57Z</time>
      </trkpt>
      <trkpt lat="42.8357" lon="0.20163">
        <ele>1836</ele>
        <time>2019-03-21T07:15:00Z</time>
      </trkpt>
      <trkpt lat="42.83577" lon="0.20152">
        <ele>1836</ele>
        <time>2019-03-21T07:15:11Z</time>
      </trkpt>
      <trkpt lat="42.8358" lon="0.20149">
        <ele>1836</ele>
        <time>2019-03-21T07:15:15Z</time>
      </trkpt>
      <trkpt lat="42.83595" lon="0.20124">
        <ele>1836</ele>
        <time>2019-03-21T07:15:35Z</time>
      </trkpt>
      <trkpt lat="42.83598" lon="0.2012">
        <ele>1836</ele>
        <time>2019-03-21T07:15:39Z</time>
      </trkpt>
      <trkpt lat="42.83606" lon="0.20113">
        <ele>1836</ele>
        <time>2019-03-21T07:15:51Z</time>
      </trkpt>
      <trkpt lat="42.83613" lon="0.20105">
        <ele>1836</ele>
        <time>2019-03-21T07:16:02Z</time>
      </trkpt>
      <trkpt lat="42.83615" lon="0.20102">
        <ele>1837</ele>
        <time>2019-03-21T07:16:04Z</time>
      </trkpt>
      <trkpt lat="42.83619" lon="0.20099">
        <ele>1837</ele>
        <time>2019-03-21T07:16:07Z</time>
      </trkpt>
      <trkpt lat="42.83622" lon="0.20096">
        <ele>1837</ele>
        <time>2019-03-21T07:16:10Z</time>
      </trkpt>
      <trkpt lat="42.83625" lon="0.20093">
        <ele>1837</ele>
        <time>2019-03-21T07:16:15Z</time>
      </trkpt>
      <trkpt lat="42.83631" lon="0.20088">
        <ele>1837</ele>
        <time>2019-03-21T07:16:22Z</time>
      </trkpt>
      <trkpt lat="42.83634" lon="0.20084">
        <ele>1837</ele>
        <time>2019-03-21T07:16:25Z</time>
      </trkpt>
      <trkpt lat="42.83637" lon="0.20081">
        <ele>1837</ele>
        <time>2019-03-21T07:16:29Z</time>
      </trkpt>
      <trkpt lat="42.8365" lon="0.20068">
        <ele>1837</ele>
        <time>2019-03-21T07:16:43Z</time>
      </trkpt>
      <trkpt lat="42.83653" lon="0.20066">
        <ele>1837</ele>
        <time>2019-03-21T07:16:47Z</time>
      </trkpt>
      <trkpt lat="42.83658" lon="0.20062">
        <ele>1837</ele>
        <time>2019-03-21T07:16:53Z</time>
      </trkpt>
      <trkpt lat="42.83661" lon="0.20058">
        <ele>1837</ele>
        <time>2019-03-21T07:16:57Z</time>
      </trkpt>
      <trkpt lat="42.83663" lon="0.20055">
        <ele>1837</ele>
        <time>2019-03-21T07:17:01Z</time>
      </trkpt>
      <trkpt lat="42.83666" lon="0.20052">
        <ele>1837</ele>
        <time>2019-03-21T07:17:04Z</time>
      </trkpt>
      <trkpt lat="42.83669" lon="0.2005">
        <ele>1837</ele>
        <time>2019-03-21T07:17:06Z</time>
      </trkpt>
      <trkpt lat="42.83671" lon="0.20048">
        <ele>1837</ele>
        <time>2019-03-21T07:17:08Z</time>
      </trkpt>
      <trkpt lat="42.83674" lon="0.20047">
        <ele>1837</ele>
        <time>2019-03-21T07:17:10Z</time>
      </trkpt>
      <trkpt lat="42.83676" lon="0.20044">
        <ele>1837</ele>
        <time>2019-03-21T07:17:17Z</time>
      </trkpt>
      <trkpt lat="42.8368" lon="0.20043">
        <ele>1837</ele>
        <time>2019-03-21T07:17:21Z</time>
      </trkpt>
      <trkpt lat="42.83694" lon="0.20035">
        <ele>1837</ele>
        <time>2019-03-21T07:17:35Z</time>
      </trkpt>
      <trkpt lat="42.83696" lon="0.20033">
        <ele>1837</ele>
        <time>2019-03-21T07:17:38Z</time>
      </trkpt>
      <trkpt lat="42.837" lon="0.20031">
        <ele>1837</ele>
        <time>2019-03-21T07:17:41Z</time>
      </trkpt>
      <trkpt lat="42.83703" lon="0.20029">
        <ele>1837</ele>
        <time>2019-03-21T07:17:44Z</time>
      </trkpt>
      <trkpt lat="42.83706" lon="0.20027">
        <ele>1837</ele>
        <time>2019-03-21T07:17:48Z</time>
      </trkpt>
      <trkpt lat="42.83713" lon="0.20027">
        <ele>1837</ele>
        <time>2019-03-21T07:17:54Z</time>
      </trkpt>
      <trkpt lat="42.83716" lon="0.20027">
        <ele>1837</ele>
        <time>2019-03-21T07:17:57Z</time>
      </trkpt>
      <trkpt lat="42.83718" lon="0.20026">
        <ele>1837</ele>
        <time>2019-03-21T07:18:01Z</time>
      </trkpt>
      <trkpt lat="42.83719" lon="0.20022">
        <ele>1838</ele>
        <time>2019-03-21T07:18:21Z</time>
      </trkpt>
      <trkpt lat="42.83722" lon="0.20018">
        <ele>1838</ele>
        <time>2019-03-21T07:18:25Z</time>
      </trkpt>
      <trkpt lat="42.83724" lon="0.20015">
        <ele>1838</ele>
        <time>2019-03-21T07:18:28Z</time>
      </trkpt>
      <trkpt lat="42.83735" lon="0.20004">
        <ele>1838</ele>
        <time>2019-03-21T07:18:40Z</time>
      </trkpt>
      <trkpt lat="42.83742" lon="0.20002">
        <ele>1838</ele>
        <time>2019-03-21T07:18:46Z</time>
      </trkpt>
      <trkpt lat="42.83745" lon="0.20002">
        <ele>1838</ele>
        <time>2019-03-21T07:18:50Z</time>
      </trkpt>
      <trkpt lat="42.83748" lon="0.20003">
        <ele>1838</ele>
        <time>2019-03-21T07:18:53Z</time>
      </trkpt>
      <trkpt lat="42.83762" lon="0.20002">
        <ele>1837</ele>
        <time>2019-03-21T07:19:07Z</time>
      </trkpt>
      <trkpt lat="42.83768" lon="0.20005">
        <ele>1837</ele>
        <time>2019-03-21T07:19:13Z</time>
      </trkpt>
      <trkpt lat="42.83771" lon="0.20008">
        <ele>1837</ele>
        <time>2019-03-21T07:19:17Z</time>
      </trkpt>
      <trkpt lat="42.83774" lon="0.2001">
        <ele>1837</ele>
        <time>2019-03-21T07:19:23Z</time>
      </trkpt>
      <trkpt lat="42.83782" lon="0.20011">
        <ele>1837</ele>
        <time>2019-03-21T07:19:30Z</time>
      </trkpt>
      <trkpt lat="42.83791" lon="0.20013">
        <ele>1837</ele>
        <time>2019-03-21T07:19:44Z</time>
      </trkpt>
      <trkpt lat="42.83794" lon="0.20012">
        <ele>1837</ele>
        <time>2019-03-21T07:19:48Z</time>
      </trkpt>
      <trkpt lat="42.83798" lon="0.20011">
        <ele>1837</ele>
        <time>2019-03-21T07:19:52Z</time>
      </trkpt>
      <trkpt lat="42.83804" lon="0.20012">
        <ele>1837</ele>
        <time>2019-03-21T07:19:59Z</time>
      </trkpt>
      <trkpt lat="42.83814" lon="0.20005">
        <ele>1837</ele>
        <time>2019-03-21T07:20:08Z</time>
      </trkpt>
      <trkpt lat="42.83817" lon="0.20002">
        <ele>1837</ele>
        <time>2019-03-21T07:20:11Z</time>
      </trkpt>
      <trkpt lat="42.83819" lon="0.2">
        <ele>1837</ele>
        <time>2019-03-21T07:20:15Z</time>
      </trkpt>
      <trkpt lat="42.83822" lon="0.19997">
        <ele>1837</ele>
        <time>2019-03-21T07:20:20Z</time>
      </trkpt>
      <trkpt lat="42.83825" lon="0.19997">
        <ele>1837</ele>
        <time>2019-03-21T07:20:31Z</time>
      </trkpt>
      <trkpt lat="42.83828" lon="0.19997">
        <ele>1838</ele>
        <time>2019-03-21T07:20:39Z</time>
      </trkpt>
      <trkpt lat="42.83831" lon="0.19996">
        <ele>1838</ele>
        <time>2019-03-21T07:20:44Z</time>
      </trkpt>
      <trkpt lat="42.83834" lon="0.19996">
        <ele>1838</ele>
        <time>2019-03-21T07:20:49Z</time>
      </trkpt>
      <trkpt lat="42.83842" lon="0.19992">
        <ele>1838</ele>
        <time>2019-03-21T07:21:02Z</time>
      </trkpt>
      <trkpt lat="42.83845" lon="0.19989">
        <ele>1838</ele>
        <time>2019-03-21T07:21:07Z</time>
      </trkpt>
      <trkpt lat="42.83848" lon="0.19989">
        <ele>1838</ele>
        <time>2019-03-21T07:21:13Z</time>
      </trkpt>
      <trkpt lat="42.83851" lon="0.19988">
        <ele>1838</ele>
        <time>2019-03-21T07:21:16Z</time>
      </trkpt>
      <trkpt lat="42.83854" lon="0.19986">
        <ele>1838</ele>
        <time>2019-03-21T07:21:21Z</time>
      </trkpt>
      <trkpt lat="42.8386" lon="0.19984">
        <ele>1839</ele>
        <time>2019-03-21T07:21:28Z</time>
      </trkpt>
      <trkpt lat="42.83864" lon="0.19983">
        <ele>1839</ele>
        <time>2019-03-21T07:21:32Z</time>
      </trkpt>
      <trkpt lat="42.83867" lon="0.19982">
        <ele>1839</ele>
        <time>2019-03-21T07:21:36Z</time>
      </trkpt>
      <trkpt lat="42.8387" lon="0.1998">
        <ele>1839</ele>
        <time>2019-03-21T07:21:40Z</time>
      </trkpt>
      <trkpt lat="42.83873" lon="0.19979">
        <ele>1839</ele>
        <time>2019-03-21T07:21:43Z</time>
      </trkpt>
      <trkpt lat="42.83879" lon="0.19979">
        <ele>1839</ele>
        <time>2019-03-21T07:21:49Z</time>
      </trkpt>
      <trkpt lat="42.83882" lon="0.19978">
        <ele>1839</ele>
        <time>2019-03-21T07:21:52Z</time>
      </trkpt>
      <trkpt lat="42.83885" lon="0.19979">
        <ele>1839</ele>
        <time>2019-03-21T07:21:55Z</time>
      </trkpt>
      <trkpt lat="42.83894" lon="0.19975">
        <ele>1840</ele>
        <time>2019-03-21T07:22:06Z</time>
      </trkpt>
      <trkpt lat="42.83897" lon="0.19972">
        <ele>1840</ele>
        <time>2019-03-21T07:22:10Z</time>
      </trkpt>
      <trkpt lat="42.839" lon="0.19969">
        <ele>1840</ele>
        <time>2019-03-21T07:22:14Z</time>
      </trkpt>
      <trkpt lat="42.83901" lon="0.19966">
        <ele>1840</ele>
        <time>2019-03-21T07:23:41Z</time>
      </trkpt>
      <trkpt lat="42.83906" lon="0.19965">
        <ele>1841</ele>
        <time>2019-03-21T07:24:13Z</time>
      </trkpt>
      <trkpt lat="42.8391" lon="0.19966">
        <ele>1841</ele>
        <time>2019-03-21T07:24:16Z</time>
      </trkpt>
      <trkpt lat="42.83918" lon="0.19965">
        <ele>1842</ele>
        <time>2019-03-21T07:24:22Z</time>
      </trkpt>
      <trkpt lat="42.8393" lon="0.19965">
        <ele>1842</ele>
        <time>2019-03-21T07:24:33Z</time>
      </trkpt>
      <trkpt lat="42.83938" lon="0.19968">
        <ele>1842</ele>
        <time>2019-03-21T07:24:41Z</time>
      </trkpt>
      <trkpt lat="42.83954" lon="0.19968">
        <ele>1842</ele>
        <time>2019-03-21T07:24:56Z</time>
      </trkpt>
      <trkpt lat="42.83966" lon="0.19966">
        <ele>1843</ele>
        <time>2019-03-21T07:25:06Z</time>
      </trkpt>
      <trkpt lat="42.83971" lon="0.19965">
        <ele>1843</ele>
        <time>2019-03-21T07:25:10Z</time>
      </trkpt>
      <trkpt lat="42.8398" lon="0.19962">
        <ele>1843</ele>
        <time>2019-03-21T07:25:19Z</time>
      </trkpt>
      <trkpt lat="42.83988" lon="0.19958">
        <ele>1843</ele>
        <time>2019-03-21T07:25:29Z</time>
      </trkpt>
      <trkpt lat="42.83995" lon="0.19951">
        <ele>1843</ele>
        <time>2019-03-21T07:25:36Z</time>
      </trkpt>
      <trkpt lat="42.83998" lon="0.19945">
        <ele>1843</ele>
        <time>2019-03-21T07:25:40Z</time>
      </trkpt>
      <trkpt lat="42.83999" lon="0.19939">
        <ele>1843</ele>
        <time>2019-03-21T07:25:46Z</time>
      </trkpt>
      <trkpt lat="42.83999" lon="0.19934">
        <ele>1843</ele>
        <time>2019-03-21T07:25:51Z</time>
      </trkpt>
      <trkpt lat="42.84" lon="0.19929">
        <ele>1843</ele>
        <time>2019-03-21T07:25:56Z</time>
      </trkpt>
      <trkpt lat="42.84" lon="0.19924">
        <ele>1843</ele>
        <time>2019-03-21T07:26:00Z</time>
      </trkpt>
      <trkpt lat="42.84002" lon="0.1992">
        <ele>1843</ele>
        <time>2019-03-21T07:26:06Z</time>
      </trkpt>
      <trkpt lat="42.8401" lon="0.1992">
        <ele>1843</ele>
        <time>2019-03-21T07:26:15Z</time>
      </trkpt>
      <trkpt lat="42.84017" lon="0.19928">
        <ele>1844</ele>
        <time>2019-03-21T07:26:29Z</time>
      </trkpt>
      <trkpt lat="42.84025" lon="0.19927">
        <ele>1844</ele>
        <time>2019-03-21T07:26:39Z</time>
      </trkpt>
      <trkpt lat="42.84026" lon="0.19923">
        <ele>1844</ele>
        <time>2019-03-21T07:26:49Z</time>
      </trkpt>
      <trkpt lat="42.84031" lon="0.19925">
        <ele>1844</ele>
        <time>2019-03-21T07:26:55Z</time>
      </trkpt>
      <trkpt lat="42.84035" lon="0.19926">
        <ele>1844</ele>
        <time>2019-03-21T07:26:59Z</time>
      </trkpt>
      <trkpt lat="42.84038" lon="0.19929">
        <ele>1844</ele>
        <time>2019-03-21T07:27:18Z</time>
      </trkpt>
      <trkpt lat="42.84038" lon="0.19934">
        <ele>1844</ele>
        <time>2019-03-21T07:27:42Z</time>
      </trkpt>
      <trkpt lat="42.84036" lon="0.19938">
        <ele>1844</ele>
        <time>2019-03-21T07:27:45Z</time>
      </trkpt>
      <trkpt lat="42.84035" lon="0.19945">
        <ele>1845</ele>
        <time>2019-03-21T07:27:51Z</time>
      </trkpt>
      <trkpt lat="42.84035" lon="0.1995">
        <ele>1845</ele>
        <time>2019-03-21T07:27:59Z</time>
      </trkpt>
      <trkpt lat="42.84035" lon="0.19956">
        <ele>1845</ele>
        <time>2019-03-21T07:28:05Z</time>
      </trkpt>
      <trkpt lat="42.84037" lon="0.19959">
        <ele>1845</ele>
        <time>2019-03-21T07:28:16Z</time>
      </trkpt>
      <trkpt lat="42.84039" lon="0.19964">
        <ele>1845</ele>
        <time>2019-03-21T07:28:19Z</time>
      </trkpt>
      <trkpt lat="42.84041" lon="0.19969">
        <ele>1845</ele>
        <time>2019-03-21T07:28:29Z</time>
      </trkpt>
      <trkpt lat="42.84044" lon="0.19973">
        <ele>1845</ele>
        <time>2019-03-21T07:28:34Z</time>
      </trkpt>
      <trkpt lat="42.84049" lon="0.19974">
        <ele>1845</ele>
        <time>2019-03-21T07:28:47Z</time>
      </trkpt>
      <trkpt lat="42.84053" lon="0.19976">
        <ele>1846</ele>
        <time>2019-03-21T07:29:05Z</time>
      </trkpt>
      <trkpt lat="42.84063" lon="0.19983">
        <ele>1846</ele>
        <time>2019-03-21T07:29:28Z</time>
      </trkpt>
      <trkpt lat="42.84065" lon="0.19988">
        <ele>1846</ele>
        <time>2019-03-21T07:29:31Z</time>
      </trkpt>
      <trkpt lat="42.84068" lon="0.19993">
        <ele>1846</ele>
        <time>2019-03-21T07:29:40Z</time>
      </trkpt>
      <trkpt lat="42.84066" lon="0.19997">
        <ele>1847</ele>
        <time>2019-03-21T07:29:49Z</time>
      </trkpt>
      <trkpt lat="42.84058" lon="0.20009">
        <ele>1847</ele>
        <time>2019-03-21T07:30:08Z</time>
      </trkpt>
      <trkpt lat="42.84055" lon="0.20007">
        <ele>1848</ele>
        <time>2019-03-21T07:30:12Z</time>
      </trkpt>
      <trkpt lat="42.84051" lon="0.20007">
        <ele>1848</ele>
        <time>2019-03-21T07:30:21Z</time>
      </trkpt>
      <trkpt lat="42.84049" lon="0.20012">
        <ele>1848</ele>
        <time>2019-03-21T07:30:31Z</time>
      </trkpt>
      <trkpt lat="42.84049" lon="0.20017">
        <ele>1849</ele>
        <time>2019-03-21T07:30:45Z</time>
      </trkpt>
      <trkpt lat="42.84051" lon="0.20023">
        <ele>1850</ele>
        <time>2019-03-21T07:31:14Z</time>
      </trkpt>
      <trkpt lat="42.8405" lon="0.2003">
        <ele>1850</ele>
        <time>2019-03-21T07:31:19Z</time>
      </trkpt>
      <trkpt lat="42.84047" lon="0.20034">
        <ele>1851</ele>
        <time>2019-03-21T07:31:25Z</time>
      </trkpt>
      <trkpt lat="42.84038" lon="0.20045">
        <ele>1852</ele>
        <time>2019-03-21T07:31:47Z</time>
      </trkpt>
      <trkpt lat="42.84036" lon="0.20049">
        <ele>1853</ele>
        <time>2019-03-21T07:31:55Z</time>
      </trkpt>
      <trkpt lat="42.84034" lon="0.20054">
        <ele>1853</ele>
        <time>2019-03-21T07:32:03Z</time>
      </trkpt>
      <trkpt lat="42.8403" lon="0.20056">
        <ele>1854</ele>
        <time>2019-03-21T07:32:08Z</time>
      </trkpt>
      <trkpt lat="42.84026" lon="0.20056">
        <ele>1855</ele>
        <time>2019-03-21T07:32:14Z</time>
      </trkpt>
      <trkpt lat="42.84023" lon="0.20056">
        <ele>1855</ele>
        <time>2019-03-21T07:32:22Z</time>
      </trkpt>
      <trkpt lat="42.84012" lon="0.20062">
        <ele>1858</ele>
        <time>2019-03-21T07:32:39Z</time>
      </trkpt>
      <trkpt lat="42.84008" lon="0.20063">
        <ele>1859</ele>
        <time>2019-03-21T07:32:43Z</time>
      </trkpt>
      <trkpt lat="42.84004" lon="0.20064">
        <ele>1860</ele>
        <time>2019-03-21T07:32:48Z</time>
      </trkpt>
      <trkpt lat="42.84002" lon="0.20069">
        <ele>1861</ele>
        <time>2019-03-21T07:32:59Z</time>
      </trkpt>
      <trkpt lat="42.84" lon="0.20074">
        <ele>1863</ele>
        <time>2019-03-21T07:33:08Z</time>
      </trkpt>
      <trkpt lat="42.83997" lon="0.20078">
        <ele>1863</ele>
        <time>2019-03-21T07:33:14Z</time>
      </trkpt>
      <trkpt lat="42.83998" lon="0.20084">
        <ele>1865</ele>
        <time>2019-03-21T07:33:25Z</time>
      </trkpt>
      <trkpt lat="42.84" lon="0.20088">
        <ele>1867</ele>
        <time>2019-03-21T07:33:37Z</time>
      </trkpt>
      <trkpt lat="42.83999" lon="0.20093">
        <ele>1867</ele>
        <time>2019-03-21T07:33:40Z</time>
      </trkpt>
      <trkpt lat="42.83997" lon="0.20098">
        <ele>1868</ele>
        <time>2019-03-21T07:33:45Z</time>
      </trkpt>
      <trkpt lat="42.83994" lon="0.201">
        <ele>1870</ele>
        <time>2019-03-21T07:34:20Z</time>
      </trkpt>
      <trkpt lat="42.83991" lon="0.20105">
        <ele>1872</ele>
        <time>2019-03-21T07:34:27Z</time>
      </trkpt>
      <trkpt lat="42.83989" lon="0.2011">
        <ele>1873</ele>
        <time>2019-03-21T07:34:33Z</time>
      </trkpt>
      <trkpt lat="42.83987" lon="0.20114">
        <ele>1874</ele>
        <time>2019-03-21T07:34:42Z</time>
      </trkpt>
      <trkpt lat="42.83982" lon="0.20119">
        <ele>1874</ele>
        <time>2019-03-21T07:34:51Z</time>
      </trkpt>
      <trkpt lat="42.83977" lon="0.20121">
        <ele>1876</ele>
        <time>2019-03-21T07:34:57Z</time>
      </trkpt>
      <trkpt lat="42.83974" lon="0.20125">
        <ele>1877</ele>
        <time>2019-03-21T07:35:03Z</time>
      </trkpt>
      <trkpt lat="42.83972" lon="0.2013">
        <ele>1877</ele>
        <time>2019-03-21T07:35:11Z</time>
      </trkpt>
      <trkpt lat="42.83971" lon="0.20135">
        <ele>1878</ele>
        <time>2019-03-21T07:35:15Z</time>
      </trkpt>
      <trkpt lat="42.83966" lon="0.20143">
        <ele>1879</ele>
        <time>2019-03-21T07:35:25Z</time>
      </trkpt>
      <trkpt lat="42.8396" lon="0.20146">
        <ele>1880</ele>
        <time>2019-03-21T07:35:32Z</time>
      </trkpt>
      <trkpt lat="42.83956" lon="0.20145">
        <ele>1880</ele>
        <time>2019-03-21T07:35:35Z</time>
      </trkpt>
      <trkpt lat="42.83951" lon="0.20149">
        <ele>1881</ele>
        <time>2019-03-21T07:35:41Z</time>
      </trkpt>
      <trkpt lat="42.83947" lon="0.20151">
        <ele>1882</ele>
        <time>2019-03-21T07:35:46Z</time>
      </trkpt>
      <trkpt lat="42.83945" lon="0.20162">
        <ele>1884</ele>
        <time>2019-03-21T07:35:58Z</time>
      </trkpt>
      <trkpt lat="42.83942" lon="0.20166">
        <ele>1885</ele>
        <time>2019-03-21T07:36:04Z</time>
      </trkpt>
      <trkpt lat="42.8393" lon="0.2018">
        <ele>1890</ele>
        <time>2019-03-21T07:36:35Z</time>
      </trkpt>
      <trkpt lat="42.83928" lon="0.20184">
        <ele>1891</ele>
        <time>2019-03-21T07:36:39Z</time>
      </trkpt>
      <trkpt lat="42.83925" lon="0.20185">
        <ele>1892</ele>
        <time>2019-03-21T07:36:47Z</time>
      </trkpt>
      <trkpt lat="42.83921" lon="0.20185">
        <ele>1892</ele>
        <time>2019-03-21T07:36:51Z</time>
      </trkpt>
      <trkpt lat="42.83916" lon="0.20186">
        <ele>1893</ele>
        <time>2019-03-21T07:36:56Z</time>
      </trkpt>
      <trkpt lat="42.8391" lon="0.20193">
        <ele>1895</ele>
        <time>2019-03-21T07:37:10Z</time>
      </trkpt>
      <trkpt lat="42.83909" lon="0.20199">
        <ele>1895</ele>
        <time>2019-03-21T07:37:19Z</time>
      </trkpt>
      <trkpt lat="42.83908" lon="0.20204">
        <ele>1896</ele>
        <time>2019-03-21T07:37:23Z</time>
      </trkpt>
      <trkpt lat="42.83905" lon="0.20208">
        <ele>1897</ele>
        <time>2019-03-21T07:37:29Z</time>
      </trkpt>
      <trkpt lat="42.83902" lon="0.2021">
        <ele>1897</ele>
        <time>2019-03-21T07:37:34Z</time>
      </trkpt>
      <trkpt lat="42.83897" lon="0.20214">
        <ele>1898</ele>
        <time>2019-03-21T07:37:40Z</time>
      </trkpt>
      <trkpt lat="42.83892" lon="0.20216">
        <ele>1899</ele>
        <time>2019-03-21T07:37:48Z</time>
      </trkpt>
      <trkpt lat="42.83886" lon="0.20215">
        <ele>1899</ele>
        <time>2019-03-21T07:37:53Z</time>
      </trkpt>
      <trkpt lat="42.83882" lon="0.20221">
        <ele>1899</ele>
        <time>2019-03-21T07:38:01Z</time>
      </trkpt>
      <trkpt lat="42.83877" lon="0.20223">
        <ele>1900</ele>
        <time>2019-03-21T07:38:10Z</time>
      </trkpt>
      <trkpt lat="42.83865" lon="0.20229">
        <ele>1902</ele>
        <time>2019-03-21T07:38:27Z</time>
      </trkpt>
      <trkpt lat="42.83861" lon="0.20234">
        <ele>1904</ele>
        <time>2019-03-21T07:38:54Z</time>
      </trkpt>
      <trkpt lat="42.83859" lon="0.20238">
        <ele>1905</ele>
        <time>2019-03-21T07:39:00Z</time>
      </trkpt>
      <trkpt lat="42.83849" lon="0.20241">
        <ele>1907</ele>
        <time>2019-03-21T07:39:10Z</time>
      </trkpt>
      <trkpt lat="42.83845" lon="0.20243">
        <ele>1907</ele>
        <time>2019-03-21T07:39:16Z</time>
      </trkpt>
      <trkpt lat="42.83841" lon="0.20243">
        <ele>1908</ele>
        <time>2019-03-21T07:39:22Z</time>
      </trkpt>
      <trkpt lat="42.83838" lon="0.2025">
        <ele>1909</ele>
        <time>2019-03-21T07:39:34Z</time>
      </trkpt>
      <trkpt lat="42.83832" lon="0.20251">
        <ele>1910</ele>
        <time>2019-03-21T07:39:43Z</time>
      </trkpt>
      <trkpt lat="42.83828" lon="0.20258">
        <ele>1911</ele>
        <time>2019-03-21T07:39:57Z</time>
      </trkpt>
      <trkpt lat="42.83823" lon="0.20261">
        <ele>1912</ele>
        <time>2019-03-21T07:40:05Z</time>
      </trkpt>
      <trkpt lat="42.8382" lon="0.20266">
        <ele>1912</ele>
        <time>2019-03-21T07:40:10Z</time>
      </trkpt>
      <trkpt lat="42.83815" lon="0.20269">
        <ele>1913</ele>
        <time>2019-03-21T07:40:17Z</time>
      </trkpt>
      <trkpt lat="42.83812" lon="0.20271">
        <ele>1914</ele>
        <time>2019-03-21T07:40:27Z</time>
      </trkpt>
      <trkpt lat="42.83798" lon="0.20281">
        <ele>1916</ele>
        <time>2019-03-21T07:40:57Z</time>
      </trkpt>
      <trkpt lat="42.83794" lon="0.20285">
        <ele>1917</ele>
        <time>2019-03-21T07:41:02Z</time>
      </trkpt>
      <trkpt lat="42.83791" lon="0.20285">
        <ele>1917</ele>
        <time>2019-03-21T07:41:07Z</time>
      </trkpt>
      <trkpt lat="42.83787" lon="0.20289">
        <ele>1918</ele>
        <time>2019-03-21T07:41:14Z</time>
      </trkpt>
      <trkpt lat="42.83783" lon="0.20292">
        <ele>1918</ele>
        <time>2019-03-21T07:41:20Z</time>
      </trkpt>
      <trkpt lat="42.83779" lon="0.20297">
        <ele>1919</ele>
        <time>2019-03-21T07:41:25Z</time>
      </trkpt>
      <trkpt lat="42.83776" lon="0.20299">
        <ele>1919</ele>
        <time>2019-03-21T07:41:31Z</time>
      </trkpt>
      <trkpt lat="42.83773" lon="0.20301">
        <ele>1920</ele>
        <time>2019-03-21T07:41:38Z</time>
      </trkpt>
      <trkpt lat="42.83769" lon="0.20303">
        <ele>1920</ele>
        <time>2019-03-21T07:41:45Z</time>
      </trkpt>
      <trkpt lat="42.83764" lon="0.20307">
        <ele>1921</ele>
        <time>2019-03-21T07:42:11Z</time>
      </trkpt>
      <trkpt lat="42.83758" lon="0.20305">
        <ele>1923</ele>
        <time>2019-03-21T07:42:29Z</time>
      </trkpt>
      <trkpt lat="42.83757" lon="0.20313">
        <ele>1924</ele>
        <time>2019-03-21T07:42:44Z</time>
      </trkpt>
      <trkpt lat="42.83754" lon="0.20317">
        <ele>1925</ele>
        <time>2019-03-21T07:42:53Z</time>
      </trkpt>
      <trkpt lat="42.8375" lon="0.20317">
        <ele>1926</ele>
        <time>2019-03-21T07:43:04Z</time>
      </trkpt>
      <trkpt lat="42.83748" lon="0.20321">
        <ele>1926</ele>
        <time>2019-03-21T07:43:11Z</time>
      </trkpt>
      <trkpt lat="42.83744" lon="0.20323">
        <ele>1926</ele>
        <time>2019-03-21T07:43:14Z</time>
      </trkpt>
      <trkpt lat="42.83739" lon="0.20326">
        <ele>1927</ele>
        <time>2019-03-21T07:43:24Z</time>
      </trkpt>
      <trkpt lat="42.83733" lon="0.20335">
        <ele>1928</ele>
        <time>2019-03-21T07:43:38Z</time>
      </trkpt>
      <trkpt lat="42.83731" lon="0.20339">
        <ele>1929</ele>
        <time>2019-03-21T07:43:45Z</time>
      </trkpt>
      <trkpt lat="42.83727" lon="0.20341">
        <ele>1930</ele>
        <time>2019-03-21T07:43:49Z</time>
      </trkpt>
      <trkpt lat="42.83724" lon="0.20343">
        <ele>1931</ele>
        <time>2019-03-21T07:43:57Z</time>
      </trkpt>
      <trkpt lat="42.83721" lon="0.20348">
        <ele>1931</ele>
        <time>2019-03-21T07:44:03Z</time>
      </trkpt>
      <trkpt lat="42.83715" lon="0.20353">
        <ele>1933</ele>
        <time>2019-03-21T07:44:13Z</time>
      </trkpt>
      <trkpt lat="42.83712" lon="0.20356">
        <ele>1934</ele>
        <time>2019-03-21T07:44:18Z</time>
      </trkpt>
      <trkpt lat="42.83708" lon="0.20358">
        <ele>1934</ele>
        <time>2019-03-21T07:44:23Z</time>
      </trkpt>
      <trkpt lat="42.83704" lon="0.2036">
        <ele>1935</ele>
        <time>2019-03-21T07:44:29Z</time>
      </trkpt>
      <trkpt lat="42.83699" lon="0.20363">
        <ele>1936</ele>
        <time>2019-03-21T07:44:37Z</time>
      </trkpt>
      <trkpt lat="42.83696" lon="0.20367">
        <ele>1937</ele>
        <time>2019-03-21T07:44:42Z</time>
      </trkpt>
      <trkpt lat="42.83693" lon="0.2037">
        <ele>1938</ele>
        <time>2019-03-21T07:44:52Z</time>
      </trkpt>
      <trkpt lat="42.83687" lon="0.20379">
        <ele>1940</ele>
        <time>2019-03-21T07:45:02Z</time>
      </trkpt>
      <trkpt lat="42.83685" lon="0.20388">
        <ele>1941</ele>
        <time>2019-03-21T07:45:14Z</time>
      </trkpt>
      <trkpt lat="42.83676" lon="0.20393">
        <ele>1942</ele>
        <time>2019-03-21T07:45:24Z</time>
      </trkpt>
      <trkpt lat="42.83672" lon="0.20395">
        <ele>1943</ele>
        <time>2019-03-21T07:45:28Z</time>
      </trkpt>
      <trkpt lat="42.83666" lon="0.20402">
        <ele>1944</ele>
        <time>2019-03-21T07:45:36Z</time>
      </trkpt>
      <trkpt lat="42.83666" lon="0.20407">
        <ele>1945</ele>
        <time>2019-03-21T07:45:51Z</time>
      </trkpt>
      <trkpt lat="42.83666" lon="0.20413">
        <ele>1946</ele>
        <time>2019-03-21T07:46:06Z</time>
      </trkpt>
      <trkpt lat="42.83664" lon="0.20418">
        <ele>1947</ele>
        <time>2019-03-21T07:46:17Z</time>
      </trkpt>
      <trkpt lat="42.83665" lon="0.20424">
        <ele>1948</ele>
        <time>2019-03-21T07:46:23Z</time>
      </trkpt>
      <trkpt lat="42.83668" lon="0.20427">
        <ele>1949</ele>
        <time>2019-03-21T07:46:36Z</time>
      </trkpt>
      <trkpt lat="42.83676" lon="0.20426">
        <ele>1951</ele>
        <time>2019-03-21T07:47:03Z</time>
      </trkpt>
      <trkpt lat="42.8368" lon="0.20427">
        <ele>1951</ele>
        <time>2019-03-21T07:47:10Z</time>
      </trkpt>
      <trkpt lat="42.83683" lon="0.20424">
        <ele>1953</ele>
        <time>2019-03-21T07:47:21Z</time>
      </trkpt>
      <trkpt lat="42.8369" lon="0.20424">
        <ele>1954</ele>
        <time>2019-03-21T07:47:31Z</time>
      </trkpt>
      <trkpt lat="42.83696" lon="0.20423">
        <ele>1955</ele>
        <time>2019-03-21T07:47:39Z</time>
      </trkpt>
      <trkpt lat="42.83699" lon="0.20422">
        <ele>1956</ele>
        <time>2019-03-21T07:47:46Z</time>
      </trkpt>
      <trkpt lat="42.83707" lon="0.20421">
        <ele>1957</ele>
        <time>2019-03-21T07:48:01Z</time>
      </trkpt>
      <trkpt lat="42.83711" lon="0.2042">
        <ele>1958</ele>
        <time>2019-03-21T07:48:15Z</time>
      </trkpt>
      <trkpt lat="42.83717" lon="0.20422">
        <ele>1959</ele>
        <time>2019-03-21T07:48:24Z</time>
      </trkpt>
      <trkpt lat="42.83718" lon="0.20416">
        <ele>1960</ele>
        <time>2019-03-21T07:48:35Z</time>
      </trkpt>
      <trkpt lat="42.83722" lon="0.20415">
        <ele>1961</ele>
        <time>2019-03-21T07:48:57Z</time>
      </trkpt>
      <trkpt lat="42.83726" lon="0.20412">
        <ele>1962</ele>
        <time>2019-03-21T07:49:01Z</time>
      </trkpt>
      <trkpt lat="42.83733" lon="0.20409">
        <ele>1964</ele>
        <time>2019-03-21T07:49:20Z</time>
      </trkpt>
      <trkpt lat="42.8374" lon="0.20409">
        <ele>1966</ele>
        <time>2019-03-21T07:49:38Z</time>
      </trkpt>
      <trkpt lat="42.83746" lon="0.20409">
        <ele>1967</ele>
        <time>2019-03-21T07:49:48Z</time>
      </trkpt>
      <trkpt lat="42.83757" lon="0.20412">
        <ele>1969</ele>
        <time>2019-03-21T07:50:06Z</time>
      </trkpt>
      <trkpt lat="42.83761" lon="0.20415">
        <ele>1969</ele>
        <time>2019-03-21T07:50:13Z</time>
      </trkpt>
      <trkpt lat="42.83764" lon="0.20417">
        <ele>1970</ele>
        <time>2019-03-21T07:50:21Z</time>
      </trkpt>
      <trkpt lat="42.83769" lon="0.20421">
        <ele>1970</ele>
        <time>2019-03-21T07:50:25Z</time>
      </trkpt>
      <trkpt lat="42.83773" lon="0.20422">
        <ele>1971</ele>
        <time>2019-03-21T07:50:32Z</time>
      </trkpt>
      <trkpt lat="42.83777" lon="0.20425">
        <ele>1971</ele>
        <time>2019-03-21T07:50:35Z</time>
      </trkpt>
      <trkpt lat="42.83782" lon="0.20431">
        <ele>1973</ele>
        <time>2019-03-21T07:50:52Z</time>
      </trkpt>
      <trkpt lat="42.83789" lon="0.20435">
        <ele>1974</ele>
        <time>2019-03-21T07:51:07Z</time>
      </trkpt>
      <trkpt lat="42.83794" lon="0.20438">
        <ele>1975</ele>
        <time>2019-03-21T07:51:22Z</time>
      </trkpt>
      <trkpt lat="42.838" lon="0.20437">
        <ele>1976</ele>
        <time>2019-03-21T07:51:28Z</time>
      </trkpt>
      <trkpt lat="42.83811" lon="0.20436">
        <ele>1977</ele>
        <time>2019-03-21T07:51:50Z</time>
      </trkpt>
      <trkpt lat="42.83816" lon="0.20439">
        <ele>1978</ele>
        <time>2019-03-21T07:52:13Z</time>
      </trkpt>
      <trkpt lat="42.83825" lon="0.20436">
        <ele>1980</ele>
        <time>2019-03-21T07:52:30Z</time>
      </trkpt>
      <trkpt lat="42.83831" lon="0.20438">
        <ele>1981</ele>
        <time>2019-03-21T07:52:44Z</time>
      </trkpt>
      <trkpt lat="42.8383" lon="0.20433">
        <ele>1983</ele>
        <time>2019-03-21T07:52:55Z</time>
      </trkpt>
      <trkpt lat="42.83836" lon="0.20425">
        <ele>1986</ele>
        <time>2019-03-21T07:53:08Z</time>
      </trkpt>
      <trkpt lat="42.8384" lon="0.20424">
        <ele>1987</ele>
        <time>2019-03-21T07:53:13Z</time>
      </trkpt>
      <trkpt lat="42.83846" lon="0.20423">
        <ele>1989</ele>
        <time>2019-03-21T07:53:25Z</time>
      </trkpt>
      <trkpt lat="42.83851" lon="0.2042">
        <ele>1990</ele>
        <time>2019-03-21T07:53:29Z</time>
      </trkpt>
      <trkpt lat="42.83857" lon="0.20421">
        <ele>1992</ele>
        <time>2019-03-21T07:53:38Z</time>
      </trkpt>
      <trkpt lat="42.83861" lon="0.20425">
        <ele>1994</ele>
        <time>2019-03-21T07:53:46Z</time>
      </trkpt>
      <trkpt lat="42.83864" lon="0.20427">
        <ele>1995</ele>
        <time>2019-03-21T07:53:51Z</time>
      </trkpt>
      <trkpt lat="42.83868" lon="0.20425">
        <ele>1996</ele>
        <time>2019-03-21T07:53:56Z</time>
      </trkpt>
      <trkpt lat="42.83873" lon="0.20423">
        <ele>1997</ele>
        <time>2019-03-21T07:54:01Z</time>
      </trkpt>
      <trkpt lat="42.83877" lon="0.2042">
        <ele>1998</ele>
        <time>2019-03-21T07:54:10Z</time>
      </trkpt>
      <trkpt lat="42.83882" lon="0.20422">
        <ele>2000</ele>
        <time>2019-03-21T07:54:18Z</time>
      </trkpt>
      <trkpt lat="42.83888" lon="0.20422">
        <ele>2001</ele>
        <time>2019-03-21T07:54:30Z</time>
      </trkpt>
      <trkpt lat="42.83897" lon="0.20423">
        <ele>2003</ele>
        <time>2019-03-21T07:54:46Z</time>
      </trkpt>
      <trkpt lat="42.83901" lon="0.20421">
        <ele>2004</ele>
        <time>2019-03-21T07:54:53Z</time>
      </trkpt>
      <trkpt lat="42.83904" lon="0.20419">
        <ele>2005</ele>
        <time>2019-03-21T07:54:57Z</time>
      </trkpt>
      <trkpt lat="42.8391" lon="0.20421">
        <ele>2005</ele>
        <time>2019-03-21T07:55:10Z</time>
      </trkpt>
      <trkpt lat="42.83914" lon="0.20421">
        <ele>2007</ele>
        <time>2019-03-21T07:55:18Z</time>
      </trkpt>
      <trkpt lat="42.83922" lon="0.20421">
        <ele>2008</ele>
        <time>2019-03-21T07:55:41Z</time>
      </trkpt>
      <trkpt lat="42.83928" lon="0.2042">
        <ele>2008</ele>
        <time>2019-03-21T07:55:51Z</time>
      </trkpt>
      <trkpt lat="42.83938" lon="0.20427">
        <ele>2011</ele>
        <time>2019-03-21T07:56:36Z</time>
      </trkpt>
      <trkpt lat="42.83942" lon="0.20433">
        <ele>2013</ele>
        <time>2019-03-21T07:56:54Z</time>
      </trkpt>
      <trkpt lat="42.83945" lon="0.20435">
        <ele>2015</ele>
        <time>2019-03-21T07:57:10Z</time>
      </trkpt>
      <trkpt lat="42.83951" lon="0.20436">
        <ele>2015</ele>
        <time>2019-03-21T07:57:22Z</time>
      </trkpt>
      <trkpt lat="42.83954" lon="0.20439">
        <ele>2017</ele>
        <time>2019-03-21T07:57:33Z</time>
      </trkpt>
      <trkpt lat="42.8396" lon="0.20438">
        <ele>2017</ele>
        <time>2019-03-21T07:57:47Z</time>
      </trkpt>
      <trkpt lat="42.83972" lon="0.20442">
        <ele>2019</ele>
        <time>2019-03-21T07:58:05Z</time>
      </trkpt>
      <trkpt lat="42.83976" lon="0.20441">
        <ele>2020</ele>
        <time>2019-03-21T07:58:14Z</time>
      </trkpt>
      <trkpt lat="42.8399" lon="0.20442">
        <ele>2022</ele>
        <time>2019-03-21T07:58:32Z</time>
      </trkpt>
      <trkpt lat="42.83996" lon="0.20444">
        <ele>2023</ele>
        <time>2019-03-21T07:58:40Z</time>
      </trkpt>
      <trkpt lat="42.84" lon="0.20446">
        <ele>2024</ele>
        <time>2019-03-21T07:58:47Z</time>
      </trkpt>
      <trkpt lat="42.8401" lon="0.20449">
        <ele>2025</ele>
        <time>2019-03-21T07:58:59Z</time>
      </trkpt>
      <trkpt lat="42.84014" lon="0.20448">
        <ele>2025</ele>
        <time>2019-03-21T07:59:04Z</time>
      </trkpt>
      <trkpt lat="42.84018" lon="0.20447">
        <ele>2026</ele>
        <time>2019-03-21T07:59:12Z</time>
      </trkpt>
      <trkpt lat="42.84023" lon="0.20446">
        <ele>2027</ele>
        <time>2019-03-21T07:59:22Z</time>
      </trkpt>
      <trkpt lat="42.84027" lon="0.20445">
        <ele>2028</ele>
        <time>2019-03-21T07:59:28Z</time>
      </trkpt>
      <trkpt lat="42.84031" lon="0.20444">
        <ele>2028</ele>
        <time>2019-03-21T07:59:33Z</time>
      </trkpt>
      <trkpt lat="42.84036" lon="0.2044">
        <ele>2029</ele>
        <time>2019-03-21T07:59:46Z</time>
      </trkpt>
      <trkpt lat="42.84044" lon="0.20447">
        <ele>2031</ele>
        <time>2019-03-21T07:59:58Z</time>
      </trkpt>
      <trkpt lat="42.84047" lon="0.2045">
        <ele>2031</ele>
        <time>2019-03-21T08:00:09Z</time>
      </trkpt>
      <trkpt lat="42.84048" lon="0.20452">
        <ele>2035</ele>
        <time>2019-03-21T08:04:47Z</time>
      </trkpt>
      <trkpt lat="42.84051" lon="0.20455">
        <ele>2036</ele>
        <time>2019-03-21T08:06:23Z</time>
      </trkpt>
      <trkpt lat="42.84057" lon="0.2046">
        <ele>2037</ele>
        <time>2019-03-21T08:06:30Z</time>
      </trkpt>
      <trkpt lat="42.84064" lon="0.20468">
        <ele>2042</ele>
        <time>2019-03-21T08:06:42Z</time>
      </trkpt>
      <trkpt lat="42.84068" lon="0.20471">
        <ele>2042</ele>
        <time>2019-03-21T08:06:47Z</time>
      </trkpt>
      <trkpt lat="42.84071" lon="0.20474">
        <ele>2043</ele>
        <time>2019-03-21T08:06:53Z</time>
      </trkpt>
      <trkpt lat="42.84077" lon="0.2048">
        <ele>2043</ele>
        <time>2019-03-21T08:07:01Z</time>
      </trkpt>
      <trkpt lat="42.84083" lon="0.20485">
        <ele>2044</ele>
        <time>2019-03-21T08:07:10Z</time>
      </trkpt>
      <trkpt lat="42.841" lon="0.20498">
        <ele>2044</ele>
        <time>2019-03-21T08:07:31Z</time>
      </trkpt>
      <trkpt lat="42.84104" lon="0.20499">
        <ele>2045</ele>
        <time>2019-03-21T08:07:47Z</time>
      </trkpt>
      <trkpt lat="42.84107" lon="0.20503">
        <ele>2045</ele>
        <time>2019-03-21T08:08:38Z</time>
      </trkpt>
      <trkpt lat="42.84113" lon="0.20506">
        <ele>2045</ele>
        <time>2019-03-21T08:08:44Z</time>
      </trkpt>
      <trkpt lat="42.84119" lon="0.20507">
        <ele>2045</ele>
        <time>2019-03-21T08:08:49Z</time>
      </trkpt>
      <trkpt lat="42.84124" lon="0.20512">
        <ele>2046</ele>
        <time>2019-03-21T08:08:59Z</time>
      </trkpt>
      <trkpt lat="42.84129" lon="0.20511">
        <ele>2046</ele>
        <time>2019-03-21T08:09:03Z</time>
      </trkpt>
      <trkpt lat="42.84129" lon="0.2051">
        <ele>2046</ele>
        <time>2019-03-21T08:10:23Z</time>
      </trkpt>
      <trkpt lat="42.84125" lon="0.20511">
        <ele>2046</ele>
        <time>2019-03-21T08:11:25Z</time>
      </trkpt>
      <trkpt lat="42.84122" lon="0.20514">
        <ele>2046</ele>
        <time>2019-03-21T08:12:22Z</time>
      </trkpt>
      <trkpt lat="42.84124" lon="0.20521">
        <ele>2047</ele>
        <time>2019-03-21T08:12:28Z</time>
      </trkpt>
      <trkpt lat="42.8413" lon="0.20521">
        <ele>2047</ele>
        <time>2019-03-21T08:13:24Z</time>
      </trkpt>
      <trkpt lat="42.84127" lon="0.20517">
        <ele>2047</ele>
        <time>2019-03-21T08:14:08Z</time>
      </trkpt>
      <trkpt lat="42.84124" lon="0.20513">
        <ele>2047</ele>
        <time>2019-03-21T08:14:13Z</time>
      </trkpt>
      <trkpt lat="42.84122" lon="0.20518">
        <ele>2047</ele>
        <time>2019-03-21T08:14:28Z</time>
      </trkpt>
      <trkpt lat="42.84126" lon="0.20518">
        <ele>2047</ele>
        <time>2019-03-21T08:15:08Z</time>
      </trkpt>
      <trkpt lat="42.84127" lon="0.20523">
        <ele>2048</ele>
        <time>2019-03-21T08:15:47Z</time>
      </trkpt>
      <trkpt lat="42.8413" lon="0.20527">
        <ele>2048</ele>
        <time>2019-03-21T08:17:48Z</time>
      </trkpt>
      <trkpt lat="42.84133" lon="0.20525">
        <ele>2048</ele>
        <time>2019-03-21T08:19:48Z</time>
      </trkpt>
      <trkpt lat="42.84136" lon="0.20529">
        <ele>2049</ele>
        <time>2019-03-21T08:23:36Z</time>
      </trkpt>
      <trkpt lat="42.84135" lon="0.20564">
        <ele>2050</ele>
        <time>2019-03-21T08:24:06Z</time>
      </trkpt>
      <trkpt lat="42.84134" lon="0.20591">
        <ele>2051</ele>
        <time>2019-03-21T08:24:31Z</time>
      </trkpt>
      <trkpt lat="42.84134" lon="0.20596">
        <ele>2051</ele>
        <time>2019-03-21T08:24:35Z</time>
      </trkpt>
      <trkpt lat="42.84134" lon="0.20602">
        <ele>2051</ele>
        <time>2019-03-21T08:24:39Z</time>
      </trkpt>
      <trkpt lat="42.84135" lon="0.20608">
        <ele>2051</ele>
        <time>2019-03-21T08:24:44Z</time>
      </trkpt>
      <trkpt lat="42.84137" lon="0.20618">
        <ele>2051</ele>
        <time>2019-03-21T08:24:59Z</time>
      </trkpt>
      <trkpt lat="42.8414" lon="0.20622">
        <ele>2051</ele>
        <time>2019-03-21T08:25:06Z</time>
      </trkpt>
      <trkpt lat="42.84142" lon="0.20626">
        <ele>2051</ele>
        <time>2019-03-21T08:25:12Z</time>
      </trkpt>
      <trkpt lat="42.84143" lon="0.20631">
        <ele>2051</ele>
        <time>2019-03-21T08:25:19Z</time>
      </trkpt>
      <trkpt lat="42.84145" lon="0.20637">
        <ele>2051</ele>
        <time>2019-03-21T08:25:25Z</time>
      </trkpt>
      <trkpt lat="42.84148" lon="0.20646">
        <ele>2051</ele>
        <time>2019-03-21T08:25:41Z</time>
      </trkpt>
      <trkpt lat="42.84152" lon="0.20648">
        <ele>2051</ele>
        <time>2019-03-21T08:25:50Z</time>
      </trkpt>
      <trkpt lat="42.84155" lon="0.2065">
        <ele>2051</ele>
        <time>2019-03-21T08:25:58Z</time>
      </trkpt>
      <trkpt lat="42.84159" lon="0.20653">
        <ele>2052</ele>
        <time>2019-03-21T08:26:04Z</time>
      </trkpt>
      <trkpt lat="42.84162" lon="0.20657">
        <ele>2052</ele>
        <time>2019-03-21T08:26:11Z</time>
      </trkpt>
      <trkpt lat="42.84166" lon="0.20665">
        <ele>2052</ele>
        <time>2019-03-21T08:26:24Z</time>
      </trkpt>
      <trkpt lat="42.84171" lon="0.20664">
        <ele>2052</ele>
        <time>2019-03-21T08:26:39Z</time>
      </trkpt>
      <trkpt lat="42.84174" lon="0.20672">
        <ele>2052</ele>
        <time>2019-03-21T08:26:48Z</time>
      </trkpt>
      <trkpt lat="42.84175" lon="0.20675">
        <ele>2053</ele>
        <time>2019-03-21T08:26:54Z</time>
      </trkpt>
      <trkpt lat="42.84174" lon="0.20682">
        <ele>2053</ele>
        <time>2019-03-21T08:27:00Z</time>
      </trkpt>
      <trkpt lat="42.84175" lon="0.20687">
        <ele>2053</ele>
        <time>2019-03-21T08:27:05Z</time>
      </trkpt>
      <trkpt lat="42.84175" lon="0.2069">
        <ele>2054</ele>
        <time>2019-03-21T08:27:12Z</time>
      </trkpt>
      <trkpt lat="42.84179" lon="0.20695">
        <ele>2054</ele>
        <time>2019-03-21T08:27:18Z</time>
      </trkpt>
      <trkpt lat="42.84178" lon="0.20701">
        <ele>2055</ele>
        <time>2019-03-21T08:27:37Z</time>
      </trkpt>
      <trkpt lat="42.84178" lon="0.20712">
        <ele>2055</ele>
        <time>2019-03-21T08:27:48Z</time>
      </trkpt>
      <trkpt lat="42.84181" lon="0.20722">
        <ele>2057</ele>
        <time>2019-03-21T08:28:37Z</time>
      </trkpt>
      <trkpt lat="42.84178" lon="0.20726">
        <ele>2057</ele>
        <time>2019-03-21T08:28:48Z</time>
      </trkpt>
      <trkpt lat="42.84174" lon="0.20727">
        <ele>2058</ele>
        <time>2019-03-21T08:28:53Z</time>
      </trkpt>
      <trkpt lat="42.8417" lon="0.20728">
        <ele>2058</ele>
        <time>2019-03-21T08:28:59Z</time>
      </trkpt>
      <trkpt lat="42.84166" lon="0.20728">
        <ele>2059</ele>
        <time>2019-03-21T08:29:03Z</time>
      </trkpt>
      <trkpt lat="42.84162" lon="0.20729">
        <ele>2059</ele>
        <time>2019-03-21T08:29:10Z</time>
      </trkpt>
      <trkpt lat="42.84159" lon="0.20727">
        <ele>2059</ele>
        <time>2019-03-21T08:29:19Z</time>
      </trkpt>
      <trkpt lat="42.8416" lon="0.20733">
        <ele>2060</ele>
        <time>2019-03-21T08:29:36Z</time>
      </trkpt>
      <trkpt lat="42.84165" lon="0.20737">
        <ele>2060</ele>
        <time>2019-03-21T08:29:40Z</time>
      </trkpt>
      <trkpt lat="42.84171" lon="0.20746">
        <ele>2061</ele>
        <time>2019-03-21T08:29:54Z</time>
      </trkpt>
      <trkpt lat="42.84173" lon="0.20751">
        <ele>2061</ele>
        <time>2019-03-21T08:30:01Z</time>
      </trkpt>
      <trkpt lat="42.84177" lon="0.20754">
        <ele>2061</ele>
        <time>2019-03-21T08:30:07Z</time>
      </trkpt>
      <trkpt lat="42.8418" lon="0.20756">
        <ele>2062</ele>
        <time>2019-03-21T08:30:17Z</time>
      </trkpt>
      <trkpt lat="42.84185" lon="0.20764">
        <ele>2063</ele>
        <time>2019-03-21T08:30:28Z</time>
      </trkpt>
      <trkpt lat="42.84187" lon="0.20769">
        <ele>2063</ele>
        <time>2019-03-21T08:30:34Z</time>
      </trkpt>
      <trkpt lat="42.84189" lon="0.20773">
        <ele>2064</ele>
        <time>2019-03-21T08:30:48Z</time>
      </trkpt>
      <trkpt lat="42.84192" lon="0.20778">
        <ele>2065</ele>
        <time>2019-03-21T08:31:02Z</time>
      </trkpt>
      <trkpt lat="42.84193" lon="0.20783">
        <ele>2066</ele>
        <time>2019-03-21T08:31:07Z</time>
      </trkpt>
      <trkpt lat="42.84196" lon="0.20787">
        <ele>2066</ele>
        <time>2019-03-21T08:31:15Z</time>
      </trkpt>
      <trkpt lat="42.84199" lon="0.2079">
        <ele>2067</ele>
        <time>2019-03-21T08:31:23Z</time>
      </trkpt>
      <trkpt lat="42.84202" lon="0.208">
        <ele>2068</ele>
        <time>2019-03-21T08:31:35Z</time>
      </trkpt>
      <trkpt lat="42.84208" lon="0.20808">
        <ele>2070</ele>
        <time>2019-03-21T08:31:59Z</time>
      </trkpt>
      <trkpt lat="42.84211" lon="0.20813">
        <ele>2071</ele>
        <time>2019-03-21T08:32:05Z</time>
      </trkpt>
      <trkpt lat="42.84228" lon="0.20828">
        <ele>2073</ele>
        <time>2019-03-21T08:32:39Z</time>
      </trkpt>
      <trkpt lat="42.84232" lon="0.20827">
        <ele>2074</ele>
        <time>2019-03-21T08:32:46Z</time>
      </trkpt>
      <trkpt lat="42.84236" lon="0.2083">
        <ele>2074</ele>
        <time>2019-03-21T08:32:58Z</time>
      </trkpt>
      <trkpt lat="42.8424" lon="0.20834">
        <ele>2075</ele>
        <time>2019-03-21T08:33:03Z</time>
      </trkpt>
      <trkpt lat="42.84245" lon="0.20843">
        <ele>2076</ele>
        <time>2019-03-21T08:33:15Z</time>
      </trkpt>
      <trkpt lat="42.84249" lon="0.20847">
        <ele>2077</ele>
        <time>2019-03-21T08:33:19Z</time>
      </trkpt>
      <trkpt lat="42.84252" lon="0.2085">
        <ele>2077</ele>
        <time>2019-03-21T08:33:23Z</time>
      </trkpt>
      <trkpt lat="42.84255" lon="0.20852">
        <ele>2078</ele>
        <time>2019-03-21T08:33:30Z</time>
      </trkpt>
      <trkpt lat="42.8426" lon="0.20861">
        <ele>2080</ele>
        <time>2019-03-21T08:33:46Z</time>
      </trkpt>
      <trkpt lat="42.84264" lon="0.20863">
        <ele>2080</ele>
        <time>2019-03-21T08:33:51Z</time>
      </trkpt>
      <trkpt lat="42.84268" lon="0.20866">
        <ele>2081</ele>
        <time>2019-03-21T08:33:58Z</time>
      </trkpt>
      <trkpt lat="42.84273" lon="0.20869">
        <ele>2082</ele>
        <time>2019-03-21T08:34:06Z</time>
      </trkpt>
      <trkpt lat="42.8428" lon="0.20879">
        <ele>2083</ele>
        <time>2019-03-21T08:34:16Z</time>
      </trkpt>
      <trkpt lat="42.84284" lon="0.2088">
        <ele>2084</ele>
        <time>2019-03-21T08:34:22Z</time>
      </trkpt>
      <trkpt lat="42.84291" lon="0.20887">
        <ele>2086</ele>
        <time>2019-03-21T08:34:29Z</time>
      </trkpt>
      <trkpt lat="42.84295" lon="0.20888">
        <ele>2087</ele>
        <time>2019-03-21T08:34:35Z</time>
      </trkpt>
      <trkpt lat="42.84299" lon="0.20889">
        <ele>2088</ele>
        <time>2019-03-21T08:34:45Z</time>
      </trkpt>
      <trkpt lat="42.84309" lon="0.20898">
        <ele>2091</ele>
        <time>2019-03-21T08:35:00Z</time>
      </trkpt>
      <trkpt lat="42.84313" lon="0.20899">
        <ele>2091</ele>
        <time>2019-03-21T08:35:05Z</time>
      </trkpt>
      <trkpt lat="42.84321" lon="0.20899">
        <ele>2093</ele>
        <time>2019-03-21T08:35:17Z</time>
      </trkpt>
      <trkpt lat="42.84325" lon="0.20898">
        <ele>2094</ele>
        <time>2019-03-21T08:35:23Z</time>
      </trkpt>
      <trkpt lat="42.84329" lon="0.20901">
        <ele>2095</ele>
        <time>2019-03-21T08:35:35Z</time>
      </trkpt>
      <trkpt lat="42.84337" lon="0.20902">
        <ele>2098</ele>
        <time>2019-03-21T08:35:47Z</time>
      </trkpt>
      <trkpt lat="42.84341" lon="0.209">
        <ele>2099</ele>
        <time>2019-03-21T08:35:54Z</time>
      </trkpt>
      <trkpt lat="42.84345" lon="0.20899">
        <ele>2100</ele>
        <time>2019-03-21T08:35:59Z</time>
      </trkpt>
      <trkpt lat="42.84349" lon="0.20897">
        <ele>2102</ele>
        <time>2019-03-21T08:36:11Z</time>
      </trkpt>
      <trkpt lat="42.8437" lon="0.20889">
        <ele>2107</ele>
        <time>2019-03-21T08:36:52Z</time>
      </trkpt>
      <trkpt lat="42.84374" lon="0.20888">
        <ele>2109</ele>
        <time>2019-03-21T08:36:58Z</time>
      </trkpt>
      <trkpt lat="42.8438" lon="0.20886">
        <ele>2110</ele>
        <time>2019-03-21T08:37:05Z</time>
      </trkpt>
      <trkpt lat="42.84387" lon="0.20882">
        <ele>2111</ele>
        <time>2019-03-21T08:37:16Z</time>
      </trkpt>
      <trkpt lat="42.8439" lon="0.20887">
        <ele>2112</ele>
        <time>2019-03-21T08:38:01Z</time>
      </trkpt>
      <trkpt lat="42.84398" lon="0.209">
        <ele>2116</ele>
        <time>2019-03-21T08:38:18Z</time>
      </trkpt>
      <trkpt lat="42.84403" lon="0.20909">
        <ele>2118</ele>
        <time>2019-03-21T08:38:28Z</time>
      </trkpt>
      <trkpt lat="42.84404" lon="0.20914">
        <ele>2118</ele>
        <time>2019-03-21T08:38:34Z</time>
      </trkpt>
      <trkpt lat="42.84408" lon="0.20917">
        <ele>2119</ele>
        <time>2019-03-21T08:38:40Z</time>
      </trkpt>
      <trkpt lat="42.8441" lon="0.20922">
        <ele>2119</ele>
        <time>2019-03-21T08:38:43Z</time>
      </trkpt>
      <trkpt lat="42.84412" lon="0.20927">
        <ele>2120</ele>
        <time>2019-03-21T08:38:48Z</time>
      </trkpt>
      <trkpt lat="42.84415" lon="0.2093">
        <ele>2120</ele>
        <time>2019-03-21T08:38:53Z</time>
      </trkpt>
      <trkpt lat="42.84423" lon="0.2093">
        <ele>2121</ele>
        <time>2019-03-21T08:39:01Z</time>
      </trkpt>
      <trkpt lat="42.84427" lon="0.20932">
        <ele>2121</ele>
        <time>2019-03-21T08:39:05Z</time>
      </trkpt>
      <trkpt lat="42.84435" lon="0.20933">
        <ele>2121</ele>
        <time>2019-03-21T08:39:17Z</time>
      </trkpt>
      <trkpt lat="42.8446" lon="0.20932">
        <ele>2124</ele>
        <time>2019-03-21T08:39:53Z</time>
      </trkpt>
      <trkpt lat="42.84465" lon="0.20933">
        <ele>2125</ele>
        <time>2019-03-21T08:40:03Z</time>
      </trkpt>
      <trkpt lat="42.84469" lon="0.20934">
        <ele>2125</ele>
        <time>2019-03-21T08:40:10Z</time>
      </trkpt>
      <trkpt lat="42.84477" lon="0.2093">
        <ele>2127</ele>
        <time>2019-03-21T08:40:28Z</time>
      </trkpt>
      <trkpt lat="42.84482" lon="0.20926">
        <ele>2127</ele>
        <time>2019-03-21T08:40:35Z</time>
      </trkpt>
      <trkpt lat="42.84507" lon="0.20916">
        <ele>2130</ele>
        <time>2019-03-21T08:41:08Z</time>
      </trkpt>
      <trkpt lat="42.84513" lon="0.20916">
        <ele>2131</ele>
        <time>2019-03-21T08:41:15Z</time>
      </trkpt>
      <trkpt lat="42.84516" lon="0.2092">
        <ele>2132</ele>
        <time>2019-03-21T08:41:22Z</time>
      </trkpt>
      <trkpt lat="42.84517" lon="0.20927">
        <ele>2133</ele>
        <time>2019-03-21T08:41:31Z</time>
      </trkpt>
      <trkpt lat="42.84516" lon="0.20932">
        <ele>2133</ele>
        <time>2019-03-21T08:41:36Z</time>
      </trkpt>
      <trkpt lat="42.84515" lon="0.20942">
        <ele>2134</ele>
        <time>2019-03-21T08:41:46Z</time>
      </trkpt>
      <trkpt lat="42.84513" lon="0.20947">
        <ele>2135</ele>
        <time>2019-03-21T08:41:51Z</time>
      </trkpt>
      <trkpt lat="42.84512" lon="0.20951">
        <ele>2135</ele>
        <time>2019-03-21T08:41:56Z</time>
      </trkpt>
      <trkpt lat="42.8451" lon="0.20957">
        <ele>2136</ele>
        <time>2019-03-21T08:42:05Z</time>
      </trkpt>
      <trkpt lat="42.84509" lon="0.20962">
        <ele>2136</ele>
        <time>2019-03-21T08:42:12Z</time>
      </trkpt>
      <trkpt lat="42.84513" lon="0.20963">
        <ele>2137</ele>
        <time>2019-03-21T08:42:27Z</time>
      </trkpt>
      <trkpt lat="42.84521" lon="0.20957">
        <ele>2139</ele>
        <time>2019-03-21T08:43:13Z</time>
      </trkpt>
      <trkpt lat="42.84533" lon="0.20953">
        <ele>2142</ele>
        <time>2019-03-21T08:43:51Z</time>
      </trkpt>
      <trkpt lat="42.84536" lon="0.20949">
        <ele>2145</ele>
        <time>2019-03-21T08:46:46Z</time>
      </trkpt>
      <trkpt lat="42.8454" lon="0.20951">
        <ele>2146</ele>
        <time>2019-03-21T08:46:50Z</time>
      </trkpt>
      <trkpt lat="42.84538" lon="0.20955">
        <ele>2154</ele>
        <time>2019-03-21T08:48:30Z</time>
      </trkpt>
      <trkpt lat="42.84536" lon="0.20959">
        <ele>2158</ele>
        <time>2019-03-21T08:49:38Z</time>
      </trkpt>
      <trkpt lat="42.8454" lon="0.20959">
        <ele>2159</ele>
        <time>2019-03-21T08:51:31Z</time>
      </trkpt>
      <trkpt lat="42.84544" lon="0.20962">
        <ele>2162</ele>
        <time>2019-03-21T08:54:22Z</time>
      </trkpt>
      <trkpt lat="42.84545" lon="0.20958">
        <ele>2162</ele>
        <time>2019-03-21T08:54:50Z</time>
      </trkpt>
      <trkpt lat="42.84549" lon="0.2096">
        <ele>2163</ele>
        <time>2019-03-21T08:57:40Z</time>
      </trkpt>
      <trkpt lat="42.84557" lon="0.20979">
        <ele>2165</ele>
        <time>2019-03-21T08:57:56Z</time>
      </trkpt>
      <trkpt lat="42.84561" lon="0.20983">
        <ele>2165</ele>
        <time>2019-03-21T08:58:01Z</time>
      </trkpt>
      <trkpt lat="42.84564" lon="0.20987">
        <ele>2166</ele>
        <time>2019-03-21T08:58:05Z</time>
      </trkpt>
      <trkpt lat="42.84567" lon="0.20992">
        <ele>2166</ele>
        <time>2019-03-21T08:58:10Z</time>
      </trkpt>
      <trkpt lat="42.8457" lon="0.20996">
        <ele>2166</ele>
        <time>2019-03-21T08:58:15Z</time>
      </trkpt>
      <trkpt lat="42.84576" lon="0.21003">
        <ele>2166</ele>
        <time>2019-03-21T08:58:24Z</time>
      </trkpt>
      <trkpt lat="42.84582" lon="0.21008">
        <ele>2166</ele>
        <time>2019-03-21T08:58:34Z</time>
      </trkpt>
      <trkpt lat="42.84585" lon="0.21013">
        <ele>2166</ele>
        <time>2019-03-21T08:58:39Z</time>
      </trkpt>
      <trkpt lat="42.84591" lon="0.21026">
        <ele>2166</ele>
        <time>2019-03-21T08:58:53Z</time>
      </trkpt>
      <trkpt lat="42.84592" lon="0.21031">
        <ele>2166</ele>
        <time>2019-03-21T08:58:59Z</time>
      </trkpt>
      <trkpt lat="42.84592" lon="0.21037">
        <ele>2167</ele>
        <time>2019-03-21T08:59:03Z</time>
      </trkpt>
      <trkpt lat="42.84592" lon="0.21043">
        <ele>2167</ele>
        <time>2019-03-21T08:59:13Z</time>
      </trkpt>
      <trkpt lat="42.84594" lon="0.21048">
        <ele>2167</ele>
        <time>2019-03-21T08:59:52Z</time>
      </trkpt>
      <trkpt lat="42.84593" lon="0.21059">
        <ele>2167</ele>
        <time>2019-03-21T09:00:00Z</time>
      </trkpt>
      <trkpt lat="42.84595" lon="0.21082">
        <ele>2167</ele>
        <time>2019-03-21T09:00:16Z</time>
      </trkpt>
      <trkpt lat="42.84595" lon="0.21087">
        <ele>2167</ele>
        <time>2019-03-21T09:00:21Z</time>
      </trkpt>
      <trkpt lat="42.84595" lon="0.21093">
        <ele>2168</ele>
        <time>2019-03-21T09:00:28Z</time>
      </trkpt>
      <trkpt lat="42.84598" lon="0.21103">
        <ele>2168</ele>
        <time>2019-03-21T09:00:40Z</time>
      </trkpt>
      <trkpt lat="42.84603" lon="0.21114">
        <ele>2168</ele>
        <time>2019-03-21T09:00:53Z</time>
      </trkpt>
      <trkpt lat="42.84605" lon="0.21119">
        <ele>2168</ele>
        <time>2019-03-21T09:00:57Z</time>
      </trkpt>
      <trkpt lat="42.84607" lon="0.21123">
        <ele>2168</ele>
        <time>2019-03-21T09:01:01Z</time>
      </trkpt>
      <trkpt lat="42.84613" lon="0.21136">
        <ele>2168</ele>
        <time>2019-03-21T09:01:15Z</time>
      </trkpt>
      <trkpt lat="42.84616" lon="0.21143">
        <ele>2169</ele>
        <time>2019-03-21T09:01:24Z</time>
      </trkpt>
      <trkpt lat="42.84617" lon="0.21151">
        <ele>2169</ele>
        <time>2019-03-21T09:01:30Z</time>
      </trkpt>
      <trkpt lat="42.84622" lon="0.2116">
        <ele>2169</ele>
        <time>2019-03-21T09:01:39Z</time>
      </trkpt>
      <trkpt lat="42.84623" lon="0.21171">
        <ele>2169</ele>
        <time>2019-03-21T09:01:46Z</time>
      </trkpt>
      <trkpt lat="42.84625" lon="0.2118">
        <ele>2169</ele>
        <time>2019-03-21T09:01:55Z</time>
      </trkpt>
      <trkpt lat="42.84626" lon="0.21197">
        <ele>2169</ele>
        <time>2019-03-21T09:02:12Z</time>
      </trkpt>
      <trkpt lat="42.84627" lon="0.21204">
        <ele>2169</ele>
        <time>2019-03-21T09:02:17Z</time>
      </trkpt>
      <trkpt lat="42.84631" lon="0.21208">
        <ele>2170</ele>
        <time>2019-03-21T09:02:23Z</time>
      </trkpt>
      <trkpt lat="42.8464" lon="0.21212">
        <ele>2170</ele>
        <time>2019-03-21T09:03:32Z</time>
      </trkpt>
      <trkpt lat="42.84647" lon="0.2122">
        <ele>2170</ele>
        <time>2019-03-21T09:03:37Z</time>
      </trkpt>
      <trkpt lat="42.84655" lon="0.21222">
        <ele>2171</ele>
        <time>2019-03-21T09:03:46Z</time>
      </trkpt>
      <trkpt lat="42.84659" lon="0.21222">
        <ele>2171</ele>
        <time>2019-03-21T09:03:50Z</time>
      </trkpt>
      <trkpt lat="42.84663" lon="0.21221">
        <ele>2171</ele>
        <time>2019-03-21T09:03:54Z</time>
      </trkpt>
      <trkpt lat="42.8468" lon="0.21222">
        <ele>2172</ele>
        <time>2019-03-21T09:04:15Z</time>
      </trkpt>
      <trkpt lat="42.84684" lon="0.21224">
        <ele>2172</ele>
        <time>2019-03-21T09:04:20Z</time>
      </trkpt>
      <trkpt lat="42.84687" lon="0.2123">
        <ele>2172</ele>
        <time>2019-03-21T09:04:25Z</time>
      </trkpt>
      <trkpt lat="42.84689" lon="0.21234">
        <ele>2173</ele>
        <time>2019-03-21T09:04:29Z</time>
      </trkpt>
      <trkpt lat="42.84693" lon="0.21235">
        <ele>2173</ele>
        <time>2019-03-21T09:04:34Z</time>
      </trkpt>
      <trkpt lat="42.84697" lon="0.21237">
        <ele>2173</ele>
        <time>2019-03-21T09:04:38Z</time>
      </trkpt>
      <trkpt lat="42.84702" lon="0.21237">
        <ele>2173</ele>
        <time>2019-03-21T09:04:42Z</time>
      </trkpt>
      <trkpt lat="42.84706" lon="0.21236">
        <ele>2173</ele>
        <time>2019-03-21T09:04:45Z</time>
      </trkpt>
      <trkpt lat="42.8471" lon="0.2124">
        <ele>2173</ele>
        <time>2019-03-21T09:04:53Z</time>
      </trkpt>
      <trkpt lat="42.84711" lon="0.21245">
        <ele>2174</ele>
        <time>2019-03-21T09:05:11Z</time>
      </trkpt>
      <trkpt lat="42.84719" lon="0.21252">
        <ele>2174</ele>
        <time>2019-03-21T09:05:28Z</time>
      </trkpt>
      <trkpt lat="42.84722" lon="0.21255">
        <ele>2174</ele>
        <time>2019-03-21T09:05:33Z</time>
      </trkpt>
      <trkpt lat="42.84723" lon="0.2126">
        <ele>2175</ele>
        <time>2019-03-21T09:05:38Z</time>
      </trkpt>
      <trkpt lat="42.84725" lon="0.21265">
        <ele>2175</ele>
        <time>2019-03-21T09:05:45Z</time>
      </trkpt>
      <trkpt lat="42.84729" lon="0.21268">
        <ele>2175</ele>
        <time>2019-03-21T09:05:51Z</time>
      </trkpt>
      <trkpt lat="42.84733" lon="0.21271">
        <ele>2176</ele>
        <time>2019-03-21T09:05:56Z</time>
      </trkpt>
      <trkpt lat="42.84735" lon="0.21277">
        <ele>2176</ele>
        <time>2019-03-21T09:06:00Z</time>
      </trkpt>
      <trkpt lat="42.84739" lon="0.21278">
        <ele>2176</ele>
        <time>2019-03-21T09:06:04Z</time>
      </trkpt>
      <trkpt lat="42.84743" lon="0.21281">
        <ele>2176</ele>
        <time>2019-03-21T09:06:08Z</time>
      </trkpt>
      <trkpt lat="42.84746" lon="0.21284">
        <ele>2176</ele>
        <time>2019-03-21T09:06:12Z</time>
      </trkpt>
      <trkpt lat="42.84749" lon="0.21287">
        <ele>2177</ele>
        <time>2019-03-21T09:06:15Z</time>
      </trkpt>
      <trkpt lat="42.84756" lon="0.21291">
        <ele>2177</ele>
        <time>2019-03-21T09:06:21Z</time>
      </trkpt>
      <trkpt lat="42.8476" lon="0.21293">
        <ele>2177</ele>
        <time>2019-03-21T09:06:24Z</time>
      </trkpt>
      <trkpt lat="42.84764" lon="0.21294">
        <ele>2177</ele>
        <time>2019-03-21T09:06:28Z</time>
      </trkpt>
      <trkpt lat="42.84769" lon="0.21292">
        <ele>2177</ele>
        <time>2019-03-21T09:06:31Z</time>
      </trkpt>
      <trkpt lat="42.84785" lon="0.21288">
        <ele>2178</ele>
        <time>2019-03-21T09:06:46Z</time>
      </trkpt>
      <trkpt lat="42.84794" lon="0.21286">
        <ele>2178</ele>
        <time>2019-03-21T09:06:53Z</time>
      </trkpt>
      <trkpt lat="42.84807" lon="0.21282">
        <ele>2179</ele>
        <time>2019-03-21T09:07:04Z</time>
      </trkpt>
      <trkpt lat="42.8481" lon="0.21281">
        <ele>2179</ele>
        <time>2019-03-21T09:07:10Z</time>
      </trkpt>
      <trkpt lat="42.84814" lon="0.21279">
        <ele>2179</ele>
        <time>2019-03-21T09:07:14Z</time>
      </trkpt>
      <trkpt lat="42.84818" lon="0.21277">
        <ele>2179</ele>
        <time>2019-03-21T09:07:17Z</time>
      </trkpt>
      <trkpt lat="42.84822" lon="0.21276">
        <ele>2180</ele>
        <time>2019-03-21T09:07:21Z</time>
      </trkpt>
      <trkpt lat="42.84825" lon="0.21273">
        <ele>2180</ele>
        <time>2019-03-21T09:07:59Z</time>
      </trkpt>
      <trkpt lat="42.84829" lon="0.21271">
        <ele>2182</ele>
        <time>2019-03-21T09:10:06Z</time>
      </trkpt>
      <trkpt lat="42.84833" lon="0.2127">
        <ele>2183</ele>
        <time>2019-03-21T09:10:10Z</time>
      </trkpt>
      <trkpt lat="42.84844" lon="0.21255">
        <ele>2186</ele>
        <time>2019-03-21T09:10:25Z</time>
      </trkpt>
      <trkpt lat="42.84847" lon="0.21251">
        <ele>2186</ele>
        <time>2019-03-21T09:10:30Z</time>
      </trkpt>
      <trkpt lat="42.84862" lon="0.21243">
        <ele>2187</ele>
        <time>2019-03-21T09:10:45Z</time>
      </trkpt>
      <trkpt lat="42.8487" lon="0.21237">
        <ele>2188</ele>
        <time>2019-03-21T09:10:54Z</time>
      </trkpt>
      <trkpt lat="42.84877" lon="0.21229">
        <ele>2189</ele>
        <time>2019-03-21T09:11:03Z</time>
      </trkpt>
      <trkpt lat="42.84881" lon="0.21227">
        <ele>2189</ele>
        <time>2019-03-21T09:11:06Z</time>
      </trkpt>
      <trkpt lat="42.84889" lon="0.21222">
        <ele>2189</ele>
        <time>2019-03-21T09:11:16Z</time>
      </trkpt>
      <trkpt lat="42.84892" lon="0.2122">
        <ele>2190</ele>
        <time>2019-03-21T09:11:21Z</time>
      </trkpt>
      <trkpt lat="42.84895" lon="0.21217">
        <ele>2190</ele>
        <time>2019-03-21T09:11:24Z</time>
      </trkpt>
      <trkpt lat="42.84899" lon="0.21215">
        <ele>2190</ele>
        <time>2019-03-21T09:11:27Z</time>
      </trkpt>
      <trkpt lat="42.84904" lon="0.21213">
        <ele>2190</ele>
        <time>2019-03-21T09:11:30Z</time>
      </trkpt>
      <trkpt lat="42.84908" lon="0.21211">
        <ele>2191</ele>
        <time>2019-03-21T09:11:34Z</time>
      </trkpt>
      <trkpt lat="42.84924" lon="0.2121">
        <ele>2192</ele>
        <time>2019-03-21T09:11:51Z</time>
      </trkpt>
      <trkpt lat="42.84949" lon="0.21213">
        <ele>2193</ele>
        <time>2019-03-21T09:12:25Z</time>
      </trkpt>
      <trkpt lat="42.84952" lon="0.21213">
        <ele>2193</ele>
        <time>2019-03-21T09:12:32Z</time>
      </trkpt>
      <trkpt lat="42.84964" lon="0.21213">
        <ele>2194</ele>
        <time>2019-03-21T09:12:54Z</time>
      </trkpt>
      <trkpt lat="42.84968" lon="0.21214">
        <ele>2194</ele>
        <time>2019-03-21T09:13:00Z</time>
      </trkpt>
      <trkpt lat="42.84969" lon="0.21219">
        <ele>2194</ele>
        <time>2019-03-21T09:13:09Z</time>
      </trkpt>
      <trkpt lat="42.84969" lon="0.21227">
        <ele>2195</ele>
        <time>2019-03-21T09:13:16Z</time>
      </trkpt>
      <trkpt lat="42.84971" lon="0.21233">
        <ele>2195</ele>
        <time>2019-03-21T09:13:22Z</time>
      </trkpt>
      <trkpt lat="42.84975" lon="0.21233">
        <ele>2195</ele>
        <time>2019-03-21T09:13:29Z</time>
      </trkpt>
      <trkpt lat="42.8499" lon="0.21225">
        <ele>2196</ele>
        <time>2019-03-21T09:13:49Z</time>
      </trkpt>
      <trkpt lat="42.84995" lon="0.21225">
        <ele>2197</ele>
        <time>2019-03-21T09:14:10Z</time>
      </trkpt>
      <trkpt lat="42.85002" lon="0.21226">
        <ele>2198</ele>
        <time>2019-03-21T09:14:51Z</time>
      </trkpt>
      <trkpt lat="42.85005" lon="0.21223">
        <ele>2199</ele>
        <time>2019-03-21T09:15:37Z</time>
      </trkpt>
      <trkpt lat="42.85027" lon="0.21189">
        <ele>2203</ele>
        <time>2019-03-21T09:16:12Z</time>
      </trkpt>
      <trkpt lat="42.85031" lon="0.21189">
        <ele>2204</ele>
        <time>2019-03-21T09:16:29Z</time>
      </trkpt>
      <trkpt lat="42.85035" lon="0.21186">
        <ele>2205</ele>
        <time>2019-03-21T09:17:14Z</time>
      </trkpt>
      <trkpt lat="42.85038" lon="0.21185">
        <ele>2207</ele>
        <time>2019-03-21T09:18:07Z</time>
      </trkpt>
      <trkpt lat="42.85049" lon="0.2116">
        <ele>2209</ele>
        <time>2019-03-21T09:18:28Z</time>
      </trkpt>
      <trkpt lat="42.85052" lon="0.21155">
        <ele>2209</ele>
        <time>2019-03-21T09:18:33Z</time>
      </trkpt>
      <trkpt lat="42.85055" lon="0.21148">
        <ele>2210</ele>
        <time>2019-03-21T09:18:39Z</time>
      </trkpt>
      <trkpt lat="42.8506" lon="0.21139">
        <ele>2210</ele>
        <time>2019-03-21T09:18:47Z</time>
      </trkpt>
      <trkpt lat="42.85063" lon="0.21136">
        <ele>2211</ele>
        <time>2019-03-21T09:18:50Z</time>
      </trkpt>
      <trkpt lat="42.85071" lon="0.21123">
        <ele>2211</ele>
        <time>2019-03-21T09:19:03Z</time>
      </trkpt>
      <trkpt lat="42.85096" lon="0.21091">
        <ele>2213</ele>
        <time>2019-03-21T09:19:33Z</time>
      </trkpt>
      <trkpt lat="42.85099" lon="0.21087">
        <ele>2213</ele>
        <time>2019-03-21T09:19:36Z</time>
      </trkpt>
      <trkpt lat="42.85103" lon="0.21082">
        <ele>2213</ele>
        <time>2019-03-21T09:19:39Z</time>
      </trkpt>
      <trkpt lat="42.85106" lon="0.21077">
        <ele>2213</ele>
        <time>2019-03-21T09:19:43Z</time>
      </trkpt>
      <trkpt lat="42.85109" lon="0.21073">
        <ele>2213</ele>
        <time>2019-03-21T09:19:46Z</time>
      </trkpt>
      <trkpt lat="42.85127" lon="0.21048">
        <ele>2214</ele>
        <time>2019-03-21T09:20:13Z</time>
      </trkpt>
      <trkpt lat="42.85131" lon="0.21044">
        <ele>2214</ele>
        <time>2019-03-21T09:20:16Z</time>
      </trkpt>
      <trkpt lat="42.85133" lon="0.21041">
        <ele>2214</ele>
        <time>2019-03-21T09:20:18Z</time>
      </trkpt>
      <trkpt lat="42.85138" lon="0.21036">
        <ele>2214</ele>
        <time>2019-03-21T09:20:24Z</time>
      </trkpt>
      <trkpt lat="42.85162" lon="0.21003">
        <ele>2215</ele>
        <time>2019-03-21T09:20:55Z</time>
      </trkpt>
      <trkpt lat="42.85165" lon="0.20999">
        <ele>2215</ele>
        <time>2019-03-21T09:20:59Z</time>
      </trkpt>
      <trkpt lat="42.85169" lon="0.20995">
        <ele>2215</ele>
        <time>2019-03-21T09:21:03Z</time>
      </trkpt>
      <trkpt lat="42.85177" lon="0.20984">
        <ele>2215</ele>
        <time>2019-03-21T09:21:15Z</time>
      </trkpt>
      <trkpt lat="42.85178" lon="0.20979">
        <ele>2215</ele>
        <time>2019-03-21T09:21:19Z</time>
      </trkpt>
      <trkpt lat="42.85176" lon="0.20975">
        <ele>2216</ele>
        <time>2019-03-21T09:22:08Z</time>
      </trkpt>
      <trkpt lat="42.85172" lon="0.20959">
        <ele>2216</ele>
        <time>2019-03-21T09:22:18Z</time>
      </trkpt>
      <trkpt lat="42.85172" lon="0.20948">
        <ele>2216</ele>
        <time>2019-03-21T09:22:27Z</time>
      </trkpt>
      <trkpt lat="42.85173" lon="0.20943">
        <ele>2216</ele>
        <time>2019-03-21T09:22:34Z</time>
      </trkpt>
      <trkpt lat="42.85178" lon="0.20939">
        <ele>2217</ele>
        <time>2019-03-21T09:24:06Z</time>
      </trkpt>
      <trkpt lat="42.85213" lon="0.20916">
        <ele>2217</ele>
        <time>2019-03-21T09:24:36Z</time>
      </trkpt>
      <trkpt lat="42.8522" lon="0.20909">
        <ele>2217</ele>
        <time>2019-03-21T09:24:46Z</time>
      </trkpt>
      <trkpt lat="42.85225" lon="0.20907">
        <ele>2217</ele>
        <time>2019-03-21T09:24:51Z</time>
      </trkpt>
      <trkpt lat="42.85228" lon="0.20903">
        <ele>2217</ele>
        <time>2019-03-21T09:24:55Z</time>
      </trkpt>
      <trkpt lat="42.85249" lon="0.20878">
        <ele>2217</ele>
        <time>2019-03-21T09:25:24Z</time>
      </trkpt>
      <trkpt lat="42.85252" lon="0.20875">
        <ele>2217</ele>
        <time>2019-03-21T09:25:27Z</time>
      </trkpt>
      <trkpt lat="42.85255" lon="0.2087">
        <ele>2217</ele>
        <time>2019-03-21T09:25:33Z</time>
      </trkpt>
      <trkpt lat="42.85261" lon="0.20863">
        <ele>2217</ele>
        <time>2019-03-21T09:25:41Z</time>
      </trkpt>
      <trkpt lat="42.85265" lon="0.20859">
        <ele>2217</ele>
        <time>2019-03-21T09:25:45Z</time>
      </trkpt>
      <trkpt lat="42.85269" lon="0.20851">
        <ele>2217</ele>
        <time>2019-03-21T09:25:54Z</time>
      </trkpt>
      <trkpt lat="42.85272" lon="0.20847">
        <ele>2217</ele>
        <time>2019-03-21T09:25:58Z</time>
      </trkpt>
      <trkpt lat="42.85287" lon="0.20831">
        <ele>2217</ele>
        <time>2019-03-21T09:26:19Z</time>
      </trkpt>
      <trkpt lat="42.85315" lon="0.20808">
        <ele>2218</ele>
        <time>2019-03-21T09:26:50Z</time>
      </trkpt>
      <trkpt lat="42.85317" lon="0.20804">
        <ele>2218</ele>
        <time>2019-03-21T09:26:56Z</time>
      </trkpt>
      <trkpt lat="42.8532" lon="0.208">
        <ele>2218</ele>
        <time>2019-03-21T09:27:00Z</time>
      </trkpt>
      <trkpt lat="42.85323" lon="0.20797">
        <ele>2218</ele>
        <time>2019-03-21T09:27:03Z</time>
      </trkpt>
      <trkpt lat="42.85326" lon="0.20793">
        <ele>2218</ele>
        <time>2019-03-21T09:27:09Z</time>
      </trkpt>
      <trkpt lat="42.85329" lon="0.20788">
        <ele>2218</ele>
        <time>2019-03-21T09:27:13Z</time>
      </trkpt>
      <trkpt lat="42.85332" lon="0.20784">
        <ele>2218</ele>
        <time>2019-03-21T09:27:19Z</time>
      </trkpt>
      <trkpt lat="42.85337" lon="0.20773">
        <ele>2218</ele>
        <time>2019-03-21T09:27:30Z</time>
      </trkpt>
      <trkpt lat="42.85341" lon="0.20769">
        <ele>2218</ele>
        <time>2019-03-21T09:27:35Z</time>
      </trkpt>
      <trkpt lat="42.85363" lon="0.2074">
        <ele>2219</ele>
        <time>2019-03-21T09:28:08Z</time>
      </trkpt>
      <trkpt lat="42.85367" lon="0.2074">
        <ele>2219</ele>
        <time>2019-03-21T09:29:34Z</time>
      </trkpt>
      <trkpt lat="42.85371" lon="0.20734">
        <ele>2219</ele>
        <time>2019-03-21T09:30:17Z</time>
      </trkpt>
      <trkpt lat="42.85386" lon="0.20722">
        <ele>2220</ele>
        <time>2019-03-21T09:30:33Z</time>
      </trkpt>
      <trkpt lat="42.8539" lon="0.20717">
        <ele>2221</ele>
        <time>2019-03-21T09:30:43Z</time>
      </trkpt>
      <trkpt lat="42.85392" lon="0.20713">
        <ele>2221</ele>
        <time>2019-03-21T09:30:50Z</time>
      </trkpt>
      <trkpt lat="42.85392" lon="0.20707">
        <ele>2221</ele>
        <time>2019-03-21T09:30:58Z</time>
      </trkpt>
      <trkpt lat="42.8539" lon="0.20703">
        <ele>2221</ele>
        <time>2019-03-21T09:31:05Z</time>
      </trkpt>
      <trkpt lat="42.85389" lon="0.20697">
        <ele>2222</ele>
        <time>2019-03-21T09:31:11Z</time>
      </trkpt>
      <trkpt lat="42.85386" lon="0.20694">
        <ele>2222</ele>
        <time>2019-03-21T09:31:19Z</time>
      </trkpt>
      <trkpt lat="42.85388" lon="0.20686">
        <ele>2222</ele>
        <time>2019-03-21T09:31:39Z</time>
      </trkpt>
      <trkpt lat="42.8539" lon="0.20681">
        <ele>2222</ele>
        <time>2019-03-21T09:31:47Z</time>
      </trkpt>
      <trkpt lat="42.85398" lon="0.20682">
        <ele>2223</ele>
        <time>2019-03-21T09:32:34Z</time>
      </trkpt>
      <trkpt lat="42.85402" lon="0.2068">
        <ele>2223</ele>
        <time>2019-03-21T09:32:40Z</time>
      </trkpt>
      <trkpt lat="42.85405" lon="0.20679">
        <ele>2224</ele>
        <time>2019-03-21T09:32:45Z</time>
      </trkpt>
      <trkpt lat="42.85409" lon="0.20678">
        <ele>2224</ele>
        <time>2019-03-21T09:32:48Z</time>
      </trkpt>
      <trkpt lat="42.85413" lon="0.20678">
        <ele>2224</ele>
        <time>2019-03-21T09:32:54Z</time>
      </trkpt>
      <trkpt lat="42.85416" lon="0.20675">
        <ele>2225</ele>
        <time>2019-03-21T09:33:03Z</time>
      </trkpt>
      <trkpt lat="42.85418" lon="0.2067">
        <ele>2225</ele>
        <time>2019-03-21T09:33:11Z</time>
      </trkpt>
      <trkpt lat="42.85422" lon="0.20666">
        <ele>2225</ele>
        <time>2019-03-21T09:33:18Z</time>
      </trkpt>
      <trkpt lat="42.85421" lon="0.20661">
        <ele>2226</ele>
        <time>2019-03-21T09:33:31Z</time>
      </trkpt>
      <trkpt lat="42.85423" lon="0.20656">
        <ele>2226</ele>
        <time>2019-03-21T09:33:36Z</time>
      </trkpt>
      <trkpt lat="42.85428" lon="0.20653">
        <ele>2227</ele>
        <time>2019-03-21T09:33:47Z</time>
      </trkpt>
      <trkpt lat="42.85429" lon="0.20646">
        <ele>2228</ele>
        <time>2019-03-21T09:34:02Z</time>
      </trkpt>
      <trkpt lat="42.85431" lon="0.20638">
        <ele>2229</ele>
        <time>2019-03-21T09:34:12Z</time>
      </trkpt>
      <trkpt lat="42.85433" lon="0.20633">
        <ele>2229</ele>
        <time>2019-03-21T09:34:19Z</time>
      </trkpt>
      <trkpt lat="42.85436" lon="0.2063">
        <ele>2230</ele>
        <time>2019-03-21T09:34:23Z</time>
      </trkpt>
      <trkpt lat="42.85438" lon="0.20625">
        <ele>2231</ele>
        <time>2019-03-21T09:34:31Z</time>
      </trkpt>
      <trkpt lat="42.85444" lon="0.20625">
        <ele>2232</ele>
        <time>2019-03-21T09:34:35Z</time>
      </trkpt>
      <trkpt lat="42.85448" lon="0.20626">
        <ele>2233</ele>
        <time>2019-03-21T09:34:38Z</time>
      </trkpt>
      <trkpt lat="42.85451" lon="0.2063">
        <ele>2233</ele>
        <time>2019-03-21T09:34:43Z</time>
      </trkpt>
      <trkpt lat="42.85459" lon="0.20647">
        <ele>2237</ele>
        <time>2019-03-21T09:35:02Z</time>
      </trkpt>
      <trkpt lat="42.85461" lon="0.20652">
        <ele>2238</ele>
        <time>2019-03-21T09:35:07Z</time>
      </trkpt>
      <trkpt lat="42.85463" lon="0.20656">
        <ele>2238</ele>
        <time>2019-03-21T09:35:13Z</time>
      </trkpt>
      <trkpt lat="42.85465" lon="0.2066">
        <ele>2240</ele>
        <time>2019-03-21T09:35:21Z</time>
      </trkpt>
      <trkpt lat="42.85469" lon="0.20663">
        <ele>2240</ele>
        <time>2019-03-21T09:35:28Z</time>
      </trkpt>
      <trkpt lat="42.85473" lon="0.20666">
        <ele>2242</ele>
        <time>2019-03-21T09:35:38Z</time>
      </trkpt>
      <trkpt lat="42.85476" lon="0.20676">
        <ele>2244</ele>
        <time>2019-03-21T09:35:55Z</time>
      </trkpt>
      <trkpt lat="42.85478" lon="0.20672">
        <ele>2245</ele>
        <time>2019-03-21T09:36:24Z</time>
      </trkpt>
      <trkpt lat="42.85482" lon="0.20673">
        <ele>2245</ele>
        <time>2019-03-21T09:36:27Z</time>
      </trkpt>
      <trkpt lat="42.85486" lon="0.20675">
        <ele>2248</ele>
        <time>2019-03-21T09:36:30Z</time>
      </trkpt>
      <trkpt lat="42.85489" lon="0.20677">
        <ele>2248</ele>
        <time>2019-03-21T09:36:35Z</time>
      </trkpt>
      <trkpt lat="42.85491" lon="0.20682">
        <ele>2250</ele>
        <time>2019-03-21T09:36:44Z</time>
      </trkpt>
      <trkpt lat="42.85494" lon="0.20683">
        <ele>2251</ele>
        <time>2019-03-21T09:37:09Z</time>
      </trkpt>
      <trkpt lat="42.85497" lon="0.20677">
        <ele>2260</ele>
        <time>2019-03-21T09:39:39Z</time>
      </trkpt>
      <trkpt lat="42.85503" lon="0.20676">
        <ele>2264</ele>
        <time>2019-03-21T09:39:47Z</time>
      </trkpt>
      <trkpt lat="42.8551" lon="0.20672">
        <ele>2266</ele>
        <time>2019-03-21T09:39:58Z</time>
      </trkpt>
      <trkpt lat="42.85518" lon="0.20669">
        <ele>2268</ele>
        <time>2019-03-21T09:40:07Z</time>
      </trkpt>
      <trkpt lat="42.85529" lon="0.20663">
        <ele>2270</ele>
        <time>2019-03-21T09:40:23Z</time>
      </trkpt>
      <trkpt lat="42.85533" lon="0.20656">
        <ele>2271</ele>
        <time>2019-03-21T09:40:32Z</time>
      </trkpt>
      <trkpt lat="42.85535" lon="0.20648">
        <ele>2272</ele>
        <time>2019-03-21T09:40:38Z</time>
      </trkpt>
      <trkpt lat="42.85537" lon="0.20644">
        <ele>2272</ele>
        <time>2019-03-21T09:40:43Z</time>
      </trkpt>
      <trkpt lat="42.85542" lon="0.20633">
        <ele>2273</ele>
        <time>2019-03-21T09:40:52Z</time>
      </trkpt>
      <trkpt lat="42.85541" lon="0.20628">
        <ele>2273</ele>
        <time>2019-03-21T09:40:58Z</time>
      </trkpt>
      <trkpt lat="42.85541" lon="0.20622">
        <ele>2274</ele>
        <time>2019-03-21T09:41:08Z</time>
      </trkpt>
      <trkpt lat="42.85544" lon="0.20612">
        <ele>2275</ele>
        <time>2019-03-21T09:41:22Z</time>
      </trkpt>
      <trkpt lat="42.85546" lon="0.20608">
        <ele>2275</ele>
        <time>2019-03-21T09:41:29Z</time>
      </trkpt>
      <trkpt lat="42.85546" lon="0.20602">
        <ele>2276</ele>
        <time>2019-03-21T09:41:35Z</time>
      </trkpt>
      <trkpt lat="42.85547" lon="0.20598">
        <ele>2276</ele>
        <time>2019-03-21T09:41:42Z</time>
      </trkpt>
      <trkpt lat="42.8555" lon="0.20588">
        <ele>2277</ele>
        <time>2019-03-21T09:42:05Z</time>
      </trkpt>
      <trkpt lat="42.8555" lon="0.20583">
        <ele>2278</ele>
        <time>2019-03-21T09:42:16Z</time>
      </trkpt>
      <trkpt lat="42.85553" lon="0.20579">
        <ele>2278</ele>
        <time>2019-03-21T09:42:28Z</time>
      </trkpt>
      <trkpt lat="42.85551" lon="0.20575">
        <ele>2279</ele>
        <time>2019-03-21T09:42:37Z</time>
      </trkpt>
      <trkpt lat="42.85551" lon="0.2057">
        <ele>2280</ele>
        <time>2019-03-21T09:43:18Z</time>
      </trkpt>
      <trkpt lat="42.85555" lon="0.20561">
        <ele>2281</ele>
        <time>2019-03-21T09:43:35Z</time>
      </trkpt>
      <trkpt lat="42.85557" lon="0.20554">
        <ele>2281</ele>
        <time>2019-03-21T09:43:40Z</time>
      </trkpt>
      <trkpt lat="42.85563" lon="0.20552">
        <ele>2282</ele>
        <time>2019-03-21T09:43:55Z</time>
      </trkpt>
      <trkpt lat="42.85568" lon="0.20551">
        <ele>2282</ele>
        <time>2019-03-21T09:44:01Z</time>
      </trkpt>
      <trkpt lat="42.85574" lon="0.20544">
        <ele>2282</ele>
        <time>2019-03-21T09:44:12Z</time>
      </trkpt>
      <trkpt lat="42.85576" lon="0.20538">
        <ele>2283</ele>
        <time>2019-03-21T09:44:17Z</time>
      </trkpt>
      <trkpt lat="42.85576" lon="0.20533">
        <ele>2283</ele>
        <time>2019-03-21T09:44:23Z</time>
      </trkpt>
      <trkpt lat="42.85574" lon="0.20528">
        <ele>2283</ele>
        <time>2019-03-21T09:44:28Z</time>
      </trkpt>
      <trkpt lat="42.85569" lon="0.20521">
        <ele>2284</ele>
        <time>2019-03-21T09:44:40Z</time>
      </trkpt>
      <trkpt lat="42.85571" lon="0.205">
        <ele>2287</ele>
        <time>2019-03-21T09:45:07Z</time>
      </trkpt>
      <trkpt lat="42.85572" lon="0.20492">
        <ele>2288</ele>
        <time>2019-03-21T09:45:26Z</time>
      </trkpt>
      <trkpt lat="42.85572" lon="0.20485">
        <ele>2290</ele>
        <time>2019-03-21T09:45:40Z</time>
      </trkpt>
      <trkpt lat="42.85575" lon="0.20479">
        <ele>2291</ele>
        <time>2019-03-21T09:46:23Z</time>
      </trkpt>
      <trkpt lat="42.85581" lon="0.20481">
        <ele>2294</ele>
        <time>2019-03-21T09:46:48Z</time>
      </trkpt>
      <trkpt lat="42.85587" lon="0.20479">
        <ele>2296</ele>
        <time>2019-03-21T09:47:52Z</time>
      </trkpt>
      <trkpt lat="42.85593" lon="0.2048">
        <ele>2298</ele>
        <time>2019-03-21T09:48:04Z</time>
      </trkpt>
      <trkpt lat="42.85596" lon="0.20473">
        <ele>2299</ele>
        <time>2019-03-21T09:48:17Z</time>
      </trkpt>
      <trkpt lat="42.85602" lon="0.2047">
        <ele>2301</ele>
        <time>2019-03-21T09:48:28Z</time>
      </trkpt>
      <trkpt lat="42.85607" lon="0.2047">
        <ele>2302</ele>
        <time>2019-03-21T09:48:40Z</time>
      </trkpt>
      <trkpt lat="42.85619" lon="0.20461">
        <ele>2304</ele>
        <time>2019-03-21T09:49:09Z</time>
      </trkpt>
      <trkpt lat="42.85636" lon="0.20455">
        <ele>2306</ele>
        <time>2019-03-21T09:49:56Z</time>
      </trkpt>
      <trkpt lat="42.8564" lon="0.20454">
        <ele>2306</ele>
        <time>2019-03-21T09:50:02Z</time>
      </trkpt>
      <trkpt lat="42.85644" lon="0.20453">
        <ele>2306</ele>
        <time>2019-03-21T09:50:05Z</time>
      </trkpt>
      <trkpt lat="42.85648" lon="0.2045">
        <ele>2307</ele>
        <time>2019-03-21T09:50:25Z</time>
      </trkpt>
      <trkpt lat="42.85666" lon="0.20447">
        <ele>2310</ele>
        <time>2019-03-21T09:51:15Z</time>
      </trkpt>
      <trkpt lat="42.8567" lon="0.20448">
        <ele>2312</ele>
        <time>2019-03-21T09:52:21Z</time>
      </trkpt>
      <trkpt lat="42.85674" lon="0.20449">
        <ele>2312</ele>
        <time>2019-03-21T09:52:34Z</time>
      </trkpt>
      <trkpt lat="42.85675" lon="0.20451">
        <ele>2318</ele>
        <time>2019-03-21T09:57:11Z</time>
      </trkpt>
      <trkpt lat="42.85677" lon="0.20455">
        <ele>2324</ele>
        <time>2019-03-21T10:06:27Z</time>
      </trkpt>
      <trkpt lat="42.85681" lon="0.20455">
        <ele>2324</ele>
        <time>2019-03-21T10:06:31Z</time>
      </trkpt>
      <trkpt lat="42.85684" lon="0.20452">
        <ele>2328</ele>
        <time>2019-03-21T10:06:34Z</time>
      </trkpt>
      <trkpt lat="42.85687" lon="0.20449">
        <ele>2329</ele>
        <time>2019-03-21T10:06:37Z</time>
      </trkpt>
      <trkpt lat="42.85691" lon="0.20451">
        <ele>2330</ele>
        <time>2019-03-21T10:06:40Z</time>
      </trkpt>
      <trkpt lat="42.85694" lon="0.20457">
        <ele>2330</ele>
        <time>2019-03-21T10:06:42Z</time>
      </trkpt>
      <trkpt lat="42.85698" lon="0.20457">
        <ele>2331</ele>
        <time>2019-03-21T10:06:45Z</time>
      </trkpt>
      <trkpt lat="42.85703" lon="0.20456">
        <ele>2331</ele>
        <time>2019-03-21T10:06:48Z</time>
      </trkpt>
      <trkpt lat="42.85708" lon="0.20456">
        <ele>2331</ele>
        <time>2019-03-21T10:06:55Z</time>
      </trkpt>
      <trkpt lat="42.85712" lon="0.20456">
        <ele>2331</ele>
        <time>2019-03-21T10:07:04Z</time>
      </trkpt>
      <trkpt lat="42.85714" lon="0.20451">
        <ele>2331</ele>
        <time>2019-03-21T10:07:31Z</time>
      </trkpt>
      <trkpt lat="42.85715" lon="0.20448">
        <ele>2331</ele>
        <time>2019-03-21T10:11:06Z</time>
      </trkpt>
      <trkpt lat="42.85719" lon="0.20452">
        <ele>2331</ele>
        <time>2019-03-21T10:11:11Z</time>
      </trkpt>
      <trkpt lat="42.85723" lon="0.20457">
        <ele>2331</ele>
        <time>2019-03-21T10:11:19Z</time>
      </trkpt>
      <trkpt lat="42.85725" lon="0.20461">
        <ele>2332</ele>
        <time>2019-03-21T10:11:23Z</time>
      </trkpt>
      <trkpt lat="42.85744" lon="0.20471">
        <ele>2332</ele>
        <time>2019-03-21T10:11:30Z</time>
      </trkpt>
      <trkpt lat="42.85748" lon="0.20469">
        <ele>2332</ele>
        <time>2019-03-21T10:12:04Z</time>
      </trkpt>
      <trkpt lat="42.85751" lon="0.20467">
        <ele>2332</ele>
        <time>2019-03-21T10:12:14Z</time>
      </trkpt>
      <trkpt lat="42.85751" lon="0.20462">
        <ele>2332</ele>
        <time>2019-03-21T10:12:52Z</time>
      </trkpt>
      <trkpt lat="42.8575" lon="0.20458">
        <ele>2332</ele>
        <time>2019-03-21T10:13:15Z</time>
      </trkpt>
      <trkpt lat="42.85749" lon="0.20453">
        <ele>2332</ele>
        <time>2019-03-21T10:13:19Z</time>
      </trkpt>
      <trkpt lat="42.85749" lon="0.20441">
        <ele>2332</ele>
        <time>2019-03-21T10:14:41Z</time>
      </trkpt>
      <trkpt lat="42.85747" lon="0.20435">
        <ele>2332</ele>
        <time>2019-03-21T10:14:45Z</time>
      </trkpt>
      <trkpt lat="42.85741" lon="0.20432">
        <ele>2332</ele>
        <time>2019-03-21T10:14:47Z</time>
      </trkpt>
      <trkpt lat="42.85742" lon="0.20424">
        <ele>2332</ele>
        <time>2019-03-21T10:14:49Z</time>
      </trkpt>
      <trkpt lat="42.85741" lon="0.20417">
        <ele>2332</ele>
        <time>2019-03-21T10:14:51Z</time>
      </trkpt>
      <trkpt lat="42.85739" lon="0.20411">
        <ele>2332</ele>
        <time>2019-03-21T10:14:53Z</time>
      </trkpt>
      <trkpt lat="42.85742" lon="0.20406">
        <ele>2332</ele>
        <time>2019-03-21T10:14:55Z</time>
      </trkpt>
      <trkpt lat="42.85737" lon="0.20402">
        <ele>2332</ele>
        <time>2019-03-21T10:14:57Z</time>
      </trkpt>
      <trkpt lat="42.85737" lon="0.20393">
        <ele>2332</ele>
        <time>2019-03-21T10:14:59Z</time>
      </trkpt>
      <trkpt lat="42.85735" lon="0.20388">
        <ele>2332</ele>
        <time>2019-03-21T10:15:01Z</time>
      </trkpt>
      <trkpt lat="42.85731" lon="0.20385">
        <ele>2332</ele>
        <time>2019-03-21T10:15:02Z</time>
      </trkpt>
      <trkpt lat="42.85731" lon="0.20379">
        <ele>2332</ele>
        <time>2019-03-21T10:15:03Z</time>
      </trkpt>
      <trkpt lat="42.85733" lon="0.20371">
        <ele>2332</ele>
        <time>2019-03-21T10:15:05Z</time>
      </trkpt>
      <trkpt lat="42.85734" lon="0.20362">
        <ele>2332</ele>
        <time>2019-03-21T10:15:07Z</time>
      </trkpt>
      <trkpt lat="42.85735" lon="0.20356">
        <ele>2332</ele>
        <time>2019-03-21T10:15:09Z</time>
      </trkpt>
      <trkpt lat="42.85736" lon="0.2035">
        <ele>2332</ele>
        <time>2019-03-21T10:15:11Z</time>
      </trkpt>
      <trkpt lat="42.8574" lon="0.20347">
        <ele>2332</ele>
        <time>2019-03-21T10:15:13Z</time>
      </trkpt>
      <trkpt lat="42.85743" lon="0.20348">
        <ele>2332</ele>
        <time>2019-03-21T10:15:52Z</time>
      </trkpt>
      <trkpt lat="42.85742" lon="0.20344">
        <ele>2332</ele>
        <time>2019-03-21T10:16:47Z</time>
      </trkpt>
      <trkpt lat="42.85736" lon="0.20343">
        <ele>2332</ele>
        <time>2019-03-21T10:16:52Z</time>
      </trkpt>
      <trkpt lat="42.85727" lon="0.20343">
        <ele>2332</ele>
        <time>2019-03-21T10:16:58Z</time>
      </trkpt>
      <trkpt lat="42.85723" lon="0.20336">
        <ele>2331</ele>
        <time>2019-03-21T10:17:03Z</time>
      </trkpt>
      <trkpt lat="42.85721" lon="0.2033">
        <ele>2330</ele>
        <time>2019-03-21T10:18:10Z</time>
      </trkpt>
      <trkpt lat="42.8572" lon="0.20325">
        <ele>2330</ele>
        <time>2019-03-21T10:18:37Z</time>
      </trkpt>
      <trkpt lat="42.85723" lon="0.20322">
        <ele>2330</ele>
        <time>2019-03-21T10:18:42Z</time>
      </trkpt>
      <trkpt lat="42.85725" lon="0.20315">
        <ele>2329</ele>
        <time>2019-03-21T10:18:45Z</time>
      </trkpt>
      <trkpt lat="42.85728" lon="0.20309">
        <ele>2329</ele>
        <time>2019-03-21T10:18:47Z</time>
      </trkpt>
      <trkpt lat="42.85728" lon="0.20303">
        <ele>2329</ele>
        <time>2019-03-21T10:18:49Z</time>
      </trkpt>
      <trkpt lat="42.85731" lon="0.20302">
        <ele>2329</ele>
        <time>2019-03-21T10:18:52Z</time>
      </trkpt>
      <trkpt lat="42.85742" lon="0.20287">
        <ele>2329</ele>
        <time>2019-03-21T10:19:23Z</time>
      </trkpt>
      <trkpt lat="42.85744" lon="0.20283">
        <ele>2329</ele>
        <time>2019-03-21T10:19:25Z</time>
      </trkpt>
      <trkpt lat="42.85749" lon="0.20282">
        <ele>2329</ele>
        <time>2019-03-21T10:19:28Z</time>
      </trkpt>
      <trkpt lat="42.85753" lon="0.20279">
        <ele>2328</ele>
        <time>2019-03-21T10:19:32Z</time>
      </trkpt>
      <trkpt lat="42.85761" lon="0.20263">
        <ele>2328</ele>
        <time>2019-03-21T10:19:39Z</time>
      </trkpt>
      <trkpt lat="42.85763" lon="0.20256">
        <ele>2328</ele>
        <time>2019-03-21T10:19:42Z</time>
      </trkpt>
      <trkpt lat="42.8576" lon="0.20251">
        <ele>2328</ele>
        <time>2019-03-21T10:19:44Z</time>
      </trkpt>
      <trkpt lat="42.85748" lon="0.20249">
        <ele>2327</ele>
        <time>2019-03-21T10:20:01Z</time>
      </trkpt>
      <trkpt lat="42.85742" lon="0.20244">
        <ele>2327</ele>
        <time>2019-03-21T10:20:18Z</time>
      </trkpt>
      <trkpt lat="42.85746" lon="0.20237">
        <ele>2327</ele>
        <time>2019-03-21T10:20:20Z</time>
      </trkpt>
      <trkpt lat="42.8575" lon="0.20231">
        <ele>2325</ele>
        <time>2019-03-21T10:20:22Z</time>
      </trkpt>
      <trkpt lat="42.85754" lon="0.20223">
        <ele>2325</ele>
        <time>2019-03-21T10:20:24Z</time>
      </trkpt>
      <trkpt lat="42.85755" lon="0.20216">
        <ele>2324</ele>
        <time>2019-03-21T10:20:26Z</time>
      </trkpt>
      <trkpt lat="42.85761" lon="0.20207">
        <ele>2323</ele>
        <time>2019-03-21T10:20:29Z</time>
      </trkpt>
      <trkpt lat="42.85764" lon="0.20201">
        <ele>2322</ele>
        <time>2019-03-21T10:20:31Z</time>
      </trkpt>
      <trkpt lat="42.85775" lon="0.20181">
        <ele>2321</ele>
        <time>2019-03-21T10:20:37Z</time>
      </trkpt>
      <trkpt lat="42.85772" lon="0.20175">
        <ele>2319</ele>
        <time>2019-03-21T10:20:41Z</time>
      </trkpt>
      <trkpt lat="42.85766" lon="0.20172">
        <ele>2319</ele>
        <time>2019-03-21T10:20:43Z</time>
      </trkpt>
      <trkpt lat="42.85767" lon="0.20162">
        <ele>2318</ele>
        <time>2019-03-21T10:20:45Z</time>
      </trkpt>
      <trkpt lat="42.85769" lon="0.20151">
        <ele>2315</ele>
        <time>2019-03-21T10:20:47Z</time>
      </trkpt>
      <trkpt lat="42.85763" lon="0.20144">
        <ele>2308</ele>
        <time>2019-03-21T10:20:49Z</time>
      </trkpt>
      <trkpt lat="42.85765" lon="0.20134">
        <ele>2305</ele>
        <time>2019-03-21T10:20:51Z</time>
      </trkpt>
      <trkpt lat="42.8576" lon="0.20132">
        <ele>2304</ele>
        <time>2019-03-21T10:20:54Z</time>
      </trkpt>
      <trkpt lat="42.85754" lon="0.2013">
        <ele>2301</ele>
        <time>2019-03-21T10:21:01Z</time>
      </trkpt>
      <trkpt lat="42.85751" lon="0.20132">
        <ele>2298</ele>
        <time>2019-03-21T10:22:25Z</time>
      </trkpt>
      <trkpt lat="42.85741" lon="0.20123">
        <ele>2290</ele>
        <time>2019-03-21T10:22:40Z</time>
      </trkpt>
      <trkpt lat="42.85747" lon="0.20115">
        <ele>2272</ele>
        <time>2019-03-21T10:24:03Z</time>
      </trkpt>
      <trkpt lat="42.85751" lon="0.20104">
        <ele>2264</ele>
        <time>2019-03-21T10:24:05Z</time>
      </trkpt>
      <trkpt lat="42.85756" lon="0.20094">
        <ele>2258</ele>
        <time>2019-03-21T10:24:07Z</time>
      </trkpt>
      <trkpt lat="42.85758" lon="0.20088">
        <ele>2256</ele>
        <time>2019-03-21T10:24:08Z</time>
      </trkpt>
      <trkpt lat="42.85764" lon="0.20072">
        <ele>2252</ele>
        <time>2019-03-21T10:24:11Z</time>
      </trkpt>
      <trkpt lat="42.85766" lon="0.20067">
        <ele>2252</ele>
        <time>2019-03-21T10:24:12Z</time>
      </trkpt>
      <trkpt lat="42.8577" lon="0.20062">
        <ele>2250</ele>
        <time>2019-03-21T10:24:13Z</time>
      </trkpt>
      <trkpt lat="42.85771" lon="0.20055">
        <ele>2249</ele>
        <time>2019-03-21T10:24:14Z</time>
      </trkpt>
      <trkpt lat="42.85773" lon="0.20048">
        <ele>2248</ele>
        <time>2019-03-21T10:24:15Z</time>
      </trkpt>
      <trkpt lat="42.85775" lon="0.20044">
        <ele>2247</ele>
        <time>2019-03-21T10:24:16Z</time>
      </trkpt>
      <trkpt lat="42.85781" lon="0.20038">
        <ele>2246</ele>
        <time>2019-03-21T10:24:17Z</time>
      </trkpt>
      <trkpt lat="42.85784" lon="0.20031">
        <ele>2245</ele>
        <time>2019-03-21T10:24:18Z</time>
      </trkpt>
      <trkpt lat="42.85796" lon="0.2">
        <ele>2242</ele>
        <time>2019-03-21T10:24:23Z</time>
      </trkpt>
      <trkpt lat="42.85799" lon="0.19991">
        <ele>2241</ele>
        <time>2019-03-21T10:24:26Z</time>
      </trkpt>
      <trkpt lat="42.85799" lon="0.19996">
        <ele>2241</ele>
        <time>2019-03-21T10:24:49Z</time>
      </trkpt>
      <trkpt lat="42.85802" lon="0.19998">
        <ele>2240</ele>
        <time>2019-03-21T10:25:04Z</time>
      </trkpt>
      <trkpt lat="42.85803" lon="0.20003">
        <ele>2236</ele>
        <time>2019-03-21T10:27:42Z</time>
      </trkpt>
      <trkpt lat="42.85799" lon="0.20001">
        <ele>2235</ele>
        <time>2019-03-21T10:27:56Z</time>
      </trkpt>
      <trkpt lat="42.85798" lon="0.19997">
        <ele>2229</ele>
        <time>2019-03-21T10:32:05Z</time>
      </trkpt>
      <trkpt lat="42.85802" lon="0.19997">
        <ele>2227</ele>
        <time>2019-03-21T10:33:30Z</time>
      </trkpt>
      <trkpt lat="42.85804" lon="0.19992">
        <ele>2227</ele>
        <time>2019-03-21T10:33:44Z</time>
      </trkpt>
      <trkpt lat="42.85808" lon="0.19993">
        <ele>2225</ele>
        <time>2019-03-21T10:36:00Z</time>
      </trkpt>
      <trkpt lat="42.8581" lon="0.1999">
        <ele>2216</ele>
        <time>2019-03-21T10:37:26Z</time>
      </trkpt>
      <trkpt lat="42.85806" lon="0.19985">
        <ele>2216</ele>
        <time>2019-03-21T10:37:29Z</time>
      </trkpt>
      <trkpt lat="42.85801" lon="0.19979">
        <ele>2215</ele>
        <time>2019-03-21T10:37:35Z</time>
      </trkpt>
      <trkpt lat="42.858" lon="0.19974">
        <ele>2215</ele>
        <time>2019-03-21T10:37:44Z</time>
      </trkpt>
      <trkpt lat="42.85803" lon="0.19971">
        <ele>2215</ele>
        <time>2019-03-21T10:37:57Z</time>
      </trkpt>
      <trkpt lat="42.85792" lon="0.19954">
        <ele>2214</ele>
        <time>2019-03-21T10:38:24Z</time>
      </trkpt>
      <trkpt lat="42.85792" lon="0.19949">
        <ele>2214</ele>
        <time>2019-03-21T10:38:30Z</time>
      </trkpt>
      <trkpt lat="42.85792" lon="0.19943">
        <ele>2214</ele>
        <time>2019-03-21T10:38:36Z</time>
      </trkpt>
      <trkpt lat="42.85794" lon="0.19939">
        <ele>2214</ele>
        <time>2019-03-21T10:38:42Z</time>
      </trkpt>
      <trkpt lat="42.85797" lon="0.19935">
        <ele>2214</ele>
        <time>2019-03-21T10:38:47Z</time>
      </trkpt>
      <trkpt lat="42.85801" lon="0.19932">
        <ele>2213</ele>
        <time>2019-03-21T10:39:12Z</time>
      </trkpt>
      <trkpt lat="42.85804" lon="0.19929">
        <ele>2213</ele>
        <time>2019-03-21T10:39:16Z</time>
      </trkpt>
      <trkpt lat="42.8581" lon="0.19929">
        <ele>2213</ele>
        <time>2019-03-21T10:39:23Z</time>
      </trkpt>
      <trkpt lat="42.85815" lon="0.19926">
        <ele>2213</ele>
        <time>2019-03-21T10:39:31Z</time>
      </trkpt>
      <trkpt lat="42.85832" lon="0.19919">
        <ele>2213</ele>
        <time>2019-03-21T10:39:48Z</time>
      </trkpt>
      <trkpt lat="42.85845" lon="0.19916">
        <ele>2213</ele>
        <time>2019-03-21T10:40:04Z</time>
      </trkpt>
      <trkpt lat="42.85849" lon="0.19915">
        <ele>2213</ele>
        <time>2019-03-21T10:40:10Z</time>
      </trkpt>
      <trkpt lat="42.85859" lon="0.19915">
        <ele>2213</ele>
        <time>2019-03-21T10:40:28Z</time>
      </trkpt>
      <trkpt lat="42.85863" lon="0.19912">
        <ele>2213</ele>
        <time>2019-03-21T10:40:34Z</time>
      </trkpt>
      <trkpt lat="42.85863" lon="0.19908">
        <ele>2213</ele>
        <time>2019-03-21T10:40:41Z</time>
      </trkpt>
      <trkpt lat="42.85865" lon="0.19902">
        <ele>2213</ele>
        <time>2019-03-21T10:40:47Z</time>
      </trkpt>
      <trkpt lat="42.85867" lon="0.19898">
        <ele>2213</ele>
        <time>2019-03-21T10:40:53Z</time>
      </trkpt>
      <trkpt lat="42.85874" lon="0.19891">
        <ele>2214</ele>
        <time>2019-03-21T10:41:06Z</time>
      </trkpt>
      <trkpt lat="42.85879" lon="0.19882">
        <ele>2214</ele>
        <time>2019-03-21T10:41:20Z</time>
      </trkpt>
      <trkpt lat="42.85883" lon="0.19878">
        <ele>2214</ele>
        <time>2019-03-21T10:41:26Z</time>
      </trkpt>
      <trkpt lat="42.85887" lon="0.19871">
        <ele>2214</ele>
        <time>2019-03-21T10:41:33Z</time>
      </trkpt>
      <trkpt lat="42.8589" lon="0.19874">
        <ele>2215</ele>
        <time>2019-03-21T10:41:54Z</time>
      </trkpt>
      <trkpt lat="42.85902" lon="0.19865">
        <ele>2216</ele>
        <time>2019-03-21T10:42:29Z</time>
      </trkpt>
      <trkpt lat="42.85907" lon="0.19862">
        <ele>2216</ele>
        <time>2019-03-21T10:42:37Z</time>
      </trkpt>
      <trkpt lat="42.85922" lon="0.19854">
        <ele>2217</ele>
        <time>2019-03-21T10:42:52Z</time>
      </trkpt>
      <trkpt lat="42.85926" lon="0.19852">
        <ele>2217</ele>
        <time>2019-03-21T10:43:00Z</time>
      </trkpt>
      <trkpt lat="42.8593" lon="0.1985">
        <ele>2218</ele>
        <time>2019-03-21T10:43:07Z</time>
      </trkpt>
      <trkpt lat="42.85934" lon="0.19852">
        <ele>2218</ele>
        <time>2019-03-21T10:43:12Z</time>
      </trkpt>
      <trkpt lat="42.85938" lon="0.19858">
        <ele>2218</ele>
        <time>2019-03-21T10:43:16Z</time>
      </trkpt>
      <trkpt lat="42.85943" lon="0.19857">
        <ele>2219</ele>
        <time>2019-03-21T10:43:29Z</time>
      </trkpt>
      <trkpt lat="42.85955" lon="0.19848">
        <ele>2220</ele>
        <time>2019-03-21T10:43:43Z</time>
      </trkpt>
      <trkpt lat="42.85959" lon="0.19848">
        <ele>2220</ele>
        <time>2019-03-21T10:43:49Z</time>
      </trkpt>
      <trkpt lat="42.85962" lon="0.19844">
        <ele>2220</ele>
        <time>2019-03-21T10:43:59Z</time>
      </trkpt>
      <trkpt lat="42.85962" lon="0.19839">
        <ele>2221</ele>
        <time>2019-03-21T10:44:05Z</time>
      </trkpt>
      <trkpt lat="42.85965" lon="0.19837">
        <ele>2221</ele>
        <time>2019-03-21T10:44:12Z</time>
      </trkpt>
      <trkpt lat="42.8597" lon="0.19841">
        <ele>2222</ele>
        <time>2019-03-21T10:44:22Z</time>
      </trkpt>
      <trkpt lat="42.85975" lon="0.19838">
        <ele>2223</ele>
        <time>2019-03-21T10:44:41Z</time>
      </trkpt>
      <trkpt lat="42.85981" lon="0.19835">
        <ele>2223</ele>
        <time>2019-03-21T10:44:51Z</time>
      </trkpt>
      <trkpt lat="42.85985" lon="0.19836">
        <ele>2224</ele>
        <time>2019-03-21T10:44:58Z</time>
      </trkpt>
      <trkpt lat="42.85988" lon="0.19832">
        <ele>2224</ele>
        <time>2019-03-21T10:45:02Z</time>
      </trkpt>
      <trkpt lat="42.8599" lon="0.19828">
        <ele>2224</ele>
        <time>2019-03-21T10:45:06Z</time>
      </trkpt>
      <trkpt lat="42.85997" lon="0.19824">
        <ele>2225</ele>
        <time>2019-03-21T10:45:14Z</time>
      </trkpt>
      <trkpt lat="42.86004" lon="0.19815">
        <ele>2226</ele>
        <time>2019-03-21T10:45:28Z</time>
      </trkpt>
      <trkpt lat="42.86007" lon="0.19813">
        <ele>2226</ele>
        <time>2019-03-21T10:45:32Z</time>
      </trkpt>
      <trkpt lat="42.86013" lon="0.19798">
        <ele>2227</ele>
        <time>2019-03-21T10:45:49Z</time>
      </trkpt>
      <trkpt lat="42.86015" lon="0.19793">
        <ele>2227</ele>
        <time>2019-03-21T10:45:54Z</time>
      </trkpt>
      <trkpt lat="42.86019" lon="0.19778">
        <ele>2229</ele>
        <time>2019-03-21T10:46:06Z</time>
      </trkpt>
      <trkpt lat="42.86019" lon="0.19772">
        <ele>2229</ele>
        <time>2019-03-21T10:46:10Z</time>
      </trkpt>
      <trkpt lat="42.86023" lon="0.19744">
        <ele>2232</ele>
        <time>2019-03-21T10:46:30Z</time>
      </trkpt>
      <trkpt lat="42.86025" lon="0.19739">
        <ele>2232</ele>
        <time>2019-03-21T10:46:35Z</time>
      </trkpt>
      <trkpt lat="42.86026" lon="0.19734">
        <ele>2233</ele>
        <time>2019-03-21T10:46:39Z</time>
      </trkpt>
      <trkpt lat="42.86027" lon="0.19723">
        <ele>2234</ele>
        <time>2019-03-21T10:46:46Z</time>
      </trkpt>
      <trkpt lat="42.86042" lon="0.19676">
        <ele>2237</ele>
        <time>2019-03-21T10:47:18Z</time>
      </trkpt>
      <trkpt lat="42.86057" lon="0.19646">
        <ele>2240</ele>
        <time>2019-03-21T10:47:48Z</time>
      </trkpt>
      <trkpt lat="42.8606" lon="0.1964">
        <ele>2241</ele>
        <time>2019-03-21T10:47:52Z</time>
      </trkpt>
      <trkpt lat="42.86062" lon="0.19636">
        <ele>2241</ele>
        <time>2019-03-21T10:47:56Z</time>
      </trkpt>
      <trkpt lat="42.86068" lon="0.19621">
        <ele>2242</ele>
        <time>2019-03-21T10:48:10Z</time>
      </trkpt>
      <trkpt lat="42.86072" lon="0.19616">
        <ele>2242</ele>
        <time>2019-03-21T10:48:13Z</time>
      </trkpt>
      <trkpt lat="42.86082" lon="0.19586">
        <ele>2244</ele>
        <time>2019-03-21T10:48:44Z</time>
      </trkpt>
      <trkpt lat="42.86084" lon="0.19581">
        <ele>2244</ele>
        <time>2019-03-21T10:48:48Z</time>
      </trkpt>
      <trkpt lat="42.86086" lon="0.19576">
        <ele>2244</ele>
        <time>2019-03-21T10:48:53Z</time>
      </trkpt>
      <trkpt lat="42.86091" lon="0.19555">
        <ele>2246</ele>
        <time>2019-03-21T10:49:11Z</time>
      </trkpt>
      <trkpt lat="42.86101" lon="0.19538">
        <ele>2247</ele>
        <time>2019-03-21T10:49:27Z</time>
      </trkpt>
      <trkpt lat="42.86107" lon="0.19523">
        <ele>2248</ele>
        <time>2019-03-21T10:49:43Z</time>
      </trkpt>
      <trkpt lat="42.8611" lon="0.19507">
        <ele>2249</ele>
        <time>2019-03-21T10:49:56Z</time>
      </trkpt>
      <trkpt lat="42.86112" lon="0.19501">
        <ele>2249</ele>
        <time>2019-03-21T10:50:01Z</time>
      </trkpt>
      <trkpt lat="42.86113" lon="0.19496">
        <ele>2249</ele>
        <time>2019-03-21T10:50:05Z</time>
      </trkpt>
      <trkpt lat="42.86115" lon="0.19492">
        <ele>2250</ele>
        <time>2019-03-21T10:50:09Z</time>
      </trkpt>
      <trkpt lat="42.86117" lon="0.19487">
        <ele>2250</ele>
        <time>2019-03-21T10:50:13Z</time>
      </trkpt>
      <trkpt lat="42.8612" lon="0.19483">
        <ele>2250</ele>
        <time>2019-03-21T10:50:17Z</time>
      </trkpt>
      <trkpt lat="42.86135" lon="0.19469">
        <ele>2252</ele>
        <time>2019-03-21T10:50:37Z</time>
      </trkpt>
      <trkpt lat="42.86138" lon="0.19466">
        <ele>2252</ele>
        <time>2019-03-21T10:50:41Z</time>
      </trkpt>
      <trkpt lat="42.86143" lon="0.19461">
        <ele>2253</ele>
        <time>2019-03-21T10:50:48Z</time>
      </trkpt>
      <trkpt lat="42.86147" lon="0.19456">
        <ele>2253</ele>
        <time>2019-03-21T10:50:58Z</time>
      </trkpt>
      <trkpt lat="42.86151" lon="0.19452">
        <ele>2254</ele>
        <time>2019-03-21T10:51:06Z</time>
      </trkpt>
      <trkpt lat="42.86155" lon="0.1945">
        <ele>2254</ele>
        <time>2019-03-21T10:51:13Z</time>
      </trkpt>
      <trkpt lat="42.86158" lon="0.19447">
        <ele>2255</ele>
        <time>2019-03-21T10:51:19Z</time>
      </trkpt>
      <trkpt lat="42.86161" lon="0.19444">
        <ele>2255</ele>
        <time>2019-03-21T10:51:23Z</time>
      </trkpt>
      <trkpt lat="42.86165" lon="0.19441">
        <ele>2256</ele>
        <time>2019-03-21T10:51:28Z</time>
      </trkpt>
      <trkpt lat="42.86168" lon="0.19438">
        <ele>2256</ele>
        <time>2019-03-21T10:51:33Z</time>
      </trkpt>
      <trkpt lat="42.86176" lon="0.19435">
        <ele>2257</ele>
        <time>2019-03-21T10:51:50Z</time>
      </trkpt>
      <trkpt lat="42.8618" lon="0.19434">
        <ele>2257</ele>
        <time>2019-03-21T10:51:57Z</time>
      </trkpt>
      <trkpt lat="42.86182" lon="0.19429">
        <ele>2258</ele>
        <time>2019-03-21T10:52:10Z</time>
      </trkpt>
      <trkpt lat="42.86179" lon="0.19427">
        <ele>2259</ele>
        <time>2019-03-21T10:53:16Z</time>
      </trkpt>
      <trkpt lat="42.86181" lon="0.19423">
        <ele>2259</ele>
        <time>2019-03-21T10:53:37Z</time>
      </trkpt>
      <trkpt lat="42.86185" lon="0.19423">
        <ele>2259</ele>
        <time>2019-03-21T10:53:43Z</time>
      </trkpt>
      <trkpt lat="42.86186" lon="0.19419">
        <ele>2262</ele>
        <time>2019-03-21T10:54:07Z</time>
      </trkpt>
      <trkpt lat="42.86185" lon="0.19414">
        <ele>2262</ele>
        <time>2019-03-21T10:54:12Z</time>
      </trkpt>
      <trkpt lat="42.86181" lon="0.19411">
        <ele>2263</ele>
        <time>2019-03-21T10:54:23Z</time>
      </trkpt>
      <trkpt lat="42.86177" lon="0.1941">
        <ele>2263</ele>
        <time>2019-03-21T10:54:37Z</time>
      </trkpt>
      <trkpt lat="42.86188" lon="0.19404">
        <ele>2265</ele>
        <time>2019-03-21T10:55:02Z</time>
      </trkpt>
      <trkpt lat="42.86201" lon="0.19401">
        <ele>2266</ele>
        <time>2019-03-21T10:55:33Z</time>
      </trkpt>
      <trkpt lat="42.86205" lon="0.19399">
        <ele>2266</ele>
        <time>2019-03-21T10:55:37Z</time>
      </trkpt>
      <trkpt lat="42.86213" lon="0.1939">
        <ele>2267</ele>
        <time>2019-03-21T10:57:14Z</time>
      </trkpt>
      <trkpt lat="42.86225" lon="0.19379">
        <ele>2271</ele>
        <time>2019-03-21T10:59:20Z</time>
      </trkpt>
      <trkpt lat="42.86229" lon="0.19378">
        <ele>2272</ele>
        <time>2019-03-21T10:59:25Z</time>
      </trkpt>
      <trkpt lat="42.86239" lon="0.1938">
        <ele>2274</ele>
        <time>2019-03-21T10:59:35Z</time>
      </trkpt>
      <trkpt lat="42.86252" lon="0.19374">
        <ele>2275</ele>
        <time>2019-03-21T10:59:50Z</time>
      </trkpt>
      <trkpt lat="42.86256" lon="0.19371">
        <ele>2275</ele>
        <time>2019-03-21T10:59:52Z</time>
      </trkpt>
      <trkpt lat="42.86283" lon="0.19364">
        <ele>2276</ele>
        <time>2019-03-21T11:00:05Z</time>
      </trkpt>
      <trkpt lat="42.86311" lon="0.19354">
        <ele>2277</ele>
        <time>2019-03-21T11:00:50Z</time>
      </trkpt>
      <trkpt lat="42.86315" lon="0.19354">
        <ele>2277</ele>
        <time>2019-03-21T11:00:53Z</time>
      </trkpt>
      <trkpt lat="42.86328" lon="0.19347">
        <ele>2277</ele>
        <time>2019-03-21T11:01:01Z</time>
      </trkpt>
      <trkpt lat="42.86336" lon="0.19341">
        <ele>2277</ele>
        <time>2019-03-21T11:01:04Z</time>
      </trkpt>
      <trkpt lat="42.86363" lon="0.19327">
        <ele>2278</ele>
        <time>2019-03-21T11:01:12Z</time>
      </trkpt>
      <trkpt lat="42.86371" lon="0.19323">
        <ele>2278</ele>
        <time>2019-03-21T11:01:19Z</time>
      </trkpt>
      <trkpt lat="42.86375" lon="0.1932">
        <ele>2278</ele>
        <time>2019-03-21T11:01:23Z</time>
      </trkpt>
      <trkpt lat="42.86381" lon="0.19314">
        <ele>2278</ele>
        <time>2019-03-21T11:01:32Z</time>
      </trkpt>
      <trkpt lat="42.86379" lon="0.1931">
        <ele>2278</ele>
        <time>2019-03-21T11:02:00Z</time>
      </trkpt>
      <trkpt lat="42.86381" lon="0.19304">
        <ele>2278</ele>
        <time>2019-03-21T11:02:04Z</time>
      </trkpt>
      <trkpt lat="42.86383" lon="0.193">
        <ele>2278</ele>
        <time>2019-03-21T11:02:10Z</time>
      </trkpt>
      <trkpt lat="42.86386" lon="0.19296">
        <ele>2277</ele>
        <time>2019-03-21T11:02:16Z</time>
      </trkpt>
      <trkpt lat="42.86389" lon="0.1929">
        <ele>2277</ele>
        <time>2019-03-21T11:02:28Z</time>
      </trkpt>
      <trkpt lat="42.86392" lon="0.19283">
        <ele>2277</ele>
        <time>2019-03-21T11:02:34Z</time>
      </trkpt>
      <trkpt lat="42.86396" lon="0.19274">
        <ele>2277</ele>
        <time>2019-03-21T11:02:44Z</time>
      </trkpt>
      <trkpt lat="42.86399" lon="0.19272">
        <ele>2277</ele>
        <time>2019-03-21T11:02:53Z</time>
      </trkpt>
      <trkpt lat="42.864" lon="0.19267">
        <ele>2277</ele>
        <time>2019-03-21T11:03:08Z</time>
      </trkpt>
      <trkpt lat="42.86398" lon="0.19261">
        <ele>2277</ele>
        <time>2019-03-21T11:03:16Z</time>
      </trkpt>
      <trkpt lat="42.86399" lon="0.19256">
        <ele>2277</ele>
        <time>2019-03-21T11:03:21Z</time>
      </trkpt>
      <trkpt lat="42.86401" lon="0.19251">
        <ele>2277</ele>
        <time>2019-03-21T11:03:27Z</time>
      </trkpt>
      <trkpt lat="42.86405" lon="0.19248">
        <ele>2277</ele>
        <time>2019-03-21T11:04:15Z</time>
      </trkpt>
      <trkpt lat="42.86413" lon="0.19235">
        <ele>2277</ele>
        <time>2019-03-21T11:04:27Z</time>
      </trkpt>
      <trkpt lat="42.86416" lon="0.19231">
        <ele>2277</ele>
        <time>2019-03-21T11:04:31Z</time>
      </trkpt>
      <trkpt lat="42.86419" lon="0.19228">
        <ele>2277</ele>
        <time>2019-03-21T11:04:34Z</time>
      </trkpt>
      <trkpt lat="42.86422" lon="0.19224">
        <ele>2277</ele>
        <time>2019-03-21T11:04:39Z</time>
      </trkpt>
      <trkpt lat="42.8644" lon="0.19197">
        <ele>2276</ele>
        <time>2019-03-21T11:04:59Z</time>
      </trkpt>
      <trkpt lat="42.86448" lon="0.19192">
        <ele>2276</ele>
        <time>2019-03-21T11:05:09Z</time>
      </trkpt>
      <trkpt lat="42.86455" lon="0.19189">
        <ele>2276</ele>
        <time>2019-03-21T11:05:16Z</time>
      </trkpt>
      <trkpt lat="42.86472" lon="0.19184">
        <ele>2276</ele>
        <time>2019-03-21T11:05:30Z</time>
      </trkpt>
      <trkpt lat="42.86489" lon="0.1917">
        <ele>2276</ele>
        <time>2019-03-21T11:05:46Z</time>
      </trkpt>
      <trkpt lat="42.86493" lon="0.19168">
        <ele>2276</ele>
        <time>2019-03-21T11:05:51Z</time>
      </trkpt>
      <trkpt lat="42.86496" lon="0.19165">
        <ele>2276</ele>
        <time>2019-03-21T11:05:54Z</time>
      </trkpt>
      <trkpt lat="42.86501" lon="0.19163">
        <ele>2276</ele>
        <time>2019-03-21T11:05:57Z</time>
      </trkpt>
      <trkpt lat="42.86499" lon="0.1916">
        <ele>2276</ele>
        <time>2019-03-21T11:06:07Z</time>
      </trkpt>
      <trkpt lat="42.86497" lon="0.1916">
        <ele>2276</ele>
        <time>2019-03-21T11:06:22Z</time>
      </trkpt>
      <trkpt lat="42.86495" lon="0.19159">
        <ele>2276</ele>
        <time>2019-03-21T11:06:34Z</time>
      </trkpt>
      <trkpt lat="42.86494" lon="0.19159">
        <ele>2276</ele>
        <time>2019-03-21T11:06:41Z</time>
      </trkpt>
      <trkpt lat="42.86493" lon="0.19155">
        <ele>2276</ele>
        <time>2019-03-21T11:06:47Z</time>
      </trkpt>
      <trkpt lat="42.86496" lon="0.19153">
        <ele>2276</ele>
        <time>2019-03-21T11:07:21Z</time>
      </trkpt>
      <trkpt lat="42.86502" lon="0.19152">
        <ele>2276</ele>
        <time>2019-03-21T11:07:28Z</time>
      </trkpt>
      <trkpt lat="42.86507" lon="0.19155">
        <ele>2276</ele>
        <time>2019-03-21T11:07:31Z</time>
      </trkpt>
      <trkpt lat="42.86512" lon="0.19153">
        <ele>2276</ele>
        <time>2019-03-21T11:07:40Z</time>
      </trkpt>
      <trkpt lat="42.86515" lon="0.1915">
        <ele>2276</ele>
        <time>2019-03-21T11:07:43Z</time>
      </trkpt>
      <trkpt lat="42.86514" lon="0.19151">
        <ele>2277</ele>
        <time>2019-03-21T11:08:26Z</time>
      </trkpt>
      <trkpt lat="42.86507" lon="0.19154">
        <ele>2277</ele>
        <time>2019-03-21T11:08:32Z</time>
      </trkpt>
      <trkpt lat="42.86503" lon="0.19155">
        <ele>2277</ele>
        <time>2019-03-21T11:08:35Z</time>
      </trkpt>
      <trkpt lat="42.86484" lon="0.19168">
        <ele>2277</ele>
        <time>2019-03-21T11:08:57Z</time>
      </trkpt>
      <trkpt lat="42.8648" lon="0.19169">
        <ele>2277</ele>
        <time>2019-03-21T11:09:00Z</time>
      </trkpt>
      <trkpt lat="42.86475" lon="0.1917">
        <ele>2277</ele>
        <time>2019-03-21T11:09:02Z</time>
      </trkpt>
      <trkpt lat="42.86472" lon="0.19168">
        <ele>2277</ele>
        <time>2019-03-21T11:09:07Z</time>
      </trkpt>
      <trkpt lat="42.86468" lon="0.19165">
        <ele>2277</ele>
        <time>2019-03-21T11:09:11Z</time>
      </trkpt>
      <trkpt lat="42.86464" lon="0.19165">
        <ele>2277</ele>
        <time>2019-03-21T11:09:21Z</time>
      </trkpt>
      <trkpt lat="42.86462" lon="0.19167">
        <ele>2277</ele>
        <time>2019-03-21T11:09:24Z</time>
      </trkpt>
      <trkpt lat="42.86459" lon="0.19168">
        <ele>2277</ele>
        <time>2019-03-21T11:09:27Z</time>
      </trkpt>
      <trkpt lat="42.86457" lon="0.1917">
        <ele>2277</ele>
        <time>2019-03-21T11:09:31Z</time>
      </trkpt>
      <trkpt lat="42.86454" lon="0.1917">
        <ele>2277</ele>
        <time>2019-03-21T11:09:35Z</time>
      </trkpt>
      <trkpt lat="42.8645" lon="0.19172">
        <ele>2277</ele>
        <time>2019-03-21T11:09:46Z</time>
      </trkpt>
      <trkpt lat="42.86436" lon="0.19174">
        <ele>2277</ele>
        <time>2019-03-21T11:09:55Z</time>
      </trkpt>
      <trkpt lat="42.86433" lon="0.1917">
        <ele>2277</ele>
        <time>2019-03-21T11:10:10Z</time>
      </trkpt>
      <trkpt lat="42.86431" lon="0.19172">
        <ele>2276</ele>
        <time>2019-03-21T11:12:09Z</time>
      </trkpt>
      <trkpt lat="42.86429" lon="0.19167">
        <ele>2276</ele>
        <time>2019-03-21T11:13:53Z</time>
      </trkpt>
      <trkpt lat="42.8643" lon="0.19162">
        <ele>2276</ele>
        <time>2019-03-21T11:16:50Z</time>
      </trkpt>
      <trkpt lat="42.86432" lon="0.19157">
        <ele>2275</ele>
        <time>2019-03-21T11:16:53Z</time>
      </trkpt>
      <trkpt lat="42.86435" lon="0.19154">
        <ele>2275</ele>
        <time>2019-03-21T11:16:55Z</time>
      </trkpt>
      <trkpt lat="42.86438" lon="0.19149">
        <ele>2275</ele>
        <time>2019-03-21T11:16:57Z</time>
      </trkpt>
      <trkpt lat="42.86441" lon="0.19146">
        <ele>2275</ele>
        <time>2019-03-21T11:16:59Z</time>
      </trkpt>
      <trkpt lat="42.86444" lon="0.19142">
        <ele>2275</ele>
        <time>2019-03-21T11:17:01Z</time>
      </trkpt>
      <trkpt lat="42.86446" lon="0.19143">
        <ele>2275</ele>
        <time>2019-03-21T11:18:12Z</time>
      </trkpt>
      <trkpt lat="42.86449" lon="0.19142">
        <ele>2275</ele>
        <time>2019-03-21T11:19:18Z</time>
      </trkpt>
      <trkpt lat="42.86453" lon="0.19143">
        <ele>2275</ele>
        <time>2019-03-21T11:20:27Z</time>
      </trkpt>
      <trkpt lat="42.86461" lon="0.19136">
        <ele>2274</ele>
        <time>2019-03-21T11:20:45Z</time>
      </trkpt>
      <trkpt lat="42.86457" lon="0.19132">
        <ele>2274</ele>
        <time>2019-03-21T11:20:51Z</time>
      </trkpt>
      <trkpt lat="42.86451" lon="0.1913">
        <ele>2274</ele>
        <time>2019-03-21T11:20:53Z</time>
      </trkpt>
      <trkpt lat="42.86446" lon="0.19126">
        <ele>2274</ele>
        <time>2019-03-21T11:20:55Z</time>
      </trkpt>
      <trkpt lat="42.86443" lon="0.19123">
        <ele>2274</ele>
        <time>2019-03-21T11:20:56Z</time>
      </trkpt>
      <trkpt lat="42.86441" lon="0.19117">
        <ele>2274</ele>
        <time>2019-03-21T11:21:01Z</time>
      </trkpt>
      <trkpt lat="42.86442" lon="0.19112">
        <ele>2274</ele>
        <time>2019-03-21T11:21:03Z</time>
      </trkpt>
      <trkpt lat="42.86445" lon="0.19106">
        <ele>2274</ele>
        <time>2019-03-21T11:21:05Z</time>
      </trkpt>
      <trkpt lat="42.86451" lon="0.19105">
        <ele>2273</ele>
        <time>2019-03-21T11:21:07Z</time>
      </trkpt>
      <trkpt lat="42.86455" lon="0.19101">
        <ele>2273</ele>
        <time>2019-03-21T11:21:09Z</time>
      </trkpt>
      <trkpt lat="42.86453" lon="0.19096">
        <ele>2273</ele>
        <time>2019-03-21T11:21:10Z</time>
      </trkpt>
      <trkpt lat="42.86452" lon="0.19092">
        <ele>2273</ele>
        <time>2019-03-21T11:21:11Z</time>
      </trkpt>
      <trkpt lat="42.86454" lon="0.19089">
        <ele>2273</ele>
        <time>2019-03-21T11:21:13Z</time>
      </trkpt>
      <trkpt lat="42.86455" lon="0.19083">
        <ele>2273</ele>
        <time>2019-03-21T11:21:15Z</time>
      </trkpt>
      <trkpt lat="42.86452" lon="0.1908">
        <ele>2273</ele>
        <time>2019-03-21T11:21:16Z</time>
      </trkpt>
      <trkpt lat="42.86453" lon="0.19073">
        <ele>2273</ele>
        <time>2019-03-21T11:21:18Z</time>
      </trkpt>
      <trkpt lat="42.86457" lon="0.19073">
        <ele>2273</ele>
        <time>2019-03-21T11:21:20Z</time>
      </trkpt>
      <trkpt lat="42.86455" lon="0.19068">
        <ele>2273</ele>
        <time>2019-03-21T11:21:37Z</time>
      </trkpt>
      <trkpt lat="42.86466" lon="0.19061">
        <ele>2273</ele>
        <time>2019-03-21T11:21:40Z</time>
      </trkpt>
      <trkpt lat="42.8648" lon="0.19046">
        <ele>2272</ele>
        <time>2019-03-21T11:21:44Z</time>
      </trkpt>
      <trkpt lat="42.86483" lon="0.19041">
        <ele>2272</ele>
        <time>2019-03-21T11:21:45Z</time>
      </trkpt>
      <trkpt lat="42.86492" lon="0.19005">
        <ele>2270</ele>
        <time>2019-03-21T11:21:55Z</time>
      </trkpt>
      <trkpt lat="42.86523" lon="0.18943">
        <ele>2260</ele>
        <time>2019-03-21T11:22:09Z</time>
      </trkpt>
      <trkpt lat="42.86525" lon="0.18939">
        <ele>2260</ele>
        <time>2019-03-21T11:22:10Z</time>
      </trkpt>
      <trkpt lat="42.86528" lon="0.18943">
        <ele>2251</ele>
        <time>2019-03-21T11:25:51Z</time>
      </trkpt>
      <trkpt lat="42.8653" lon="0.18939">
        <ele>2250</ele>
        <time>2019-03-21T11:26:25Z</time>
      </trkpt>
      <trkpt lat="42.86534" lon="0.18939">
        <ele>2242</ele>
        <time>2019-03-21T11:26:30Z</time>
      </trkpt>
      <trkpt lat="42.86563" lon="0.18938">
        <ele>2235</ele>
        <time>2019-03-21T11:27:00Z</time>
      </trkpt>
      <trkpt lat="42.86568" lon="0.18937">
        <ele>2235</ele>
        <time>2019-03-21T11:27:05Z</time>
      </trkpt>
      <trkpt lat="42.86577" lon="0.18934">
        <ele>2233</ele>
        <time>2019-03-21T11:27:21Z</time>
      </trkpt>
      <trkpt lat="42.8658" lon="0.18932">
        <ele>2233</ele>
        <time>2019-03-21T11:27:24Z</time>
      </trkpt>
      <trkpt lat="42.8659" lon="0.1893">
        <ele>2232</ele>
        <time>2019-03-21T11:27:36Z</time>
      </trkpt>
      <trkpt lat="42.86593" lon="0.1893">
        <ele>2232</ele>
        <time>2019-03-21T11:27:39Z</time>
      </trkpt>
      <trkpt lat="42.86614" lon="0.18919">
        <ele>2231</ele>
        <time>2019-03-21T11:28:10Z</time>
      </trkpt>
      <trkpt lat="42.8662" lon="0.18917">
        <ele>2231</ele>
        <time>2019-03-21T11:28:15Z</time>
      </trkpt>
      <trkpt lat="42.86623" lon="0.18913">
        <ele>2231</ele>
        <time>2019-03-21T11:28:18Z</time>
      </trkpt>
      <trkpt lat="42.86626" lon="0.18912">
        <ele>2231</ele>
        <time>2019-03-21T11:28:26Z</time>
      </trkpt>
      <trkpt lat="42.86629" lon="0.1891">
        <ele>2230</ele>
        <time>2019-03-21T11:28:30Z</time>
      </trkpt>
      <trkpt lat="42.86633" lon="0.18912">
        <ele>2230</ele>
        <time>2019-03-21T11:28:36Z</time>
      </trkpt>
      <trkpt lat="42.86636" lon="0.18912">
        <ele>2230</ele>
        <time>2019-03-21T11:28:38Z</time>
      </trkpt>
      <trkpt lat="42.86641" lon="0.18905">
        <ele>2231</ele>
        <time>2019-03-21T11:31:59Z</time>
      </trkpt>
      <trkpt lat="42.86645" lon="0.18903">
        <ele>2231</ele>
        <time>2019-03-21T11:32:02Z</time>
      </trkpt>
      <trkpt lat="42.86647" lon="0.18899">
        <ele>2232</ele>
        <time>2019-03-21T11:32:07Z</time>
      </trkpt>
      <trkpt lat="42.86655" lon="0.18893">
        <ele>2233</ele>
        <time>2019-03-21T11:32:18Z</time>
      </trkpt>
      <trkpt lat="42.86659" lon="0.18891">
        <ele>2233</ele>
        <time>2019-03-21T11:32:21Z</time>
      </trkpt>
      <trkpt lat="42.86663" lon="0.18891">
        <ele>2233</ele>
        <time>2019-03-21T11:32:29Z</time>
      </trkpt>
      <trkpt lat="42.86666" lon="0.18892">
        <ele>2233</ele>
        <time>2019-03-21T11:33:13Z</time>
      </trkpt>
      <trkpt lat="42.86668" lon="0.18888">
        <ele>2233</ele>
        <time>2019-03-21T11:33:19Z</time>
      </trkpt>
      <trkpt lat="42.86666" lon="0.18886">
        <ele>2233</ele>
        <time>2019-03-21T11:34:02Z</time>
      </trkpt>
      <trkpt lat="42.86666" lon="0.1889">
        <ele>2233</ele>
        <time>2019-03-21T11:34:22Z</time>
      </trkpt>
      <trkpt lat="42.86663" lon="0.18892">
        <ele>2233</ele>
        <time>2019-03-21T11:34:26Z</time>
      </trkpt>
      <trkpt lat="42.86662" lon="0.18896">
        <ele>2234</ele>
        <time>2019-03-21T11:34:29Z</time>
      </trkpt>
      <trkpt lat="42.86664" lon="0.18899">
        <ele>2234</ele>
        <time>2019-03-21T11:35:31Z</time>
      </trkpt>
      <trkpt lat="42.86663" lon="0.18902">
        <ele>2234</ele>
        <time>2019-03-21T11:35:45Z</time>
      </trkpt>
      <trkpt lat="42.8666" lon="0.189">
        <ele>2234</ele>
        <time>2019-03-21T11:36:30Z</time>
      </trkpt>
      <trkpt lat="42.86662" lon="0.18898">
        <ele>2234</ele>
        <time>2019-03-21T11:38:22Z</time>
      </trkpt>
      <trkpt lat="42.86663" lon="0.18902">
        <ele>2234</ele>
        <time>2019-03-21T11:38:35Z</time>
      </trkpt>
      <trkpt lat="42.86661" lon="0.18902">
        <ele>2234</ele>
        <time>2019-03-21T11:39:00Z</time>
      </trkpt>
      <trkpt lat="42.86661" lon="0.189">
        <ele>2234</ele>
        <time>2019-03-21T11:39:14Z</time>
      </trkpt>
      <trkpt lat="42.86661" lon="0.18897">
        <ele>2234</ele>
        <time>2019-03-21T11:39:28Z</time>
      </trkpt>
      <trkpt lat="42.86664" lon="0.18896">
        <ele>2235</ele>
        <time>2019-03-21T11:40:39Z</time>
      </trkpt>
      <trkpt lat="42.86664" lon="0.18899">
        <ele>2235</ele>
        <time>2019-03-21T11:42:18Z</time>
      </trkpt>
      <trkpt lat="42.86663" lon="0.18903">
        <ele>2235</ele>
        <time>2019-03-21T11:45:16Z</time>
      </trkpt>
      <trkpt lat="42.86665" lon="0.18903">
        <ele>2235</ele>
        <time>2019-03-21T11:47:56Z</time>
      </trkpt>
      <trkpt lat="42.86665" lon="0.189">
        <ele>2235</ele>
        <time>2019-03-21T11:48:51Z</time>
      </trkpt>
      <trkpt lat="42.86663" lon="0.18898">
        <ele>2235</ele>
        <time>2019-03-21T11:50:58Z</time>
      </trkpt>
      <trkpt lat="42.86662" lon="0.18898">
        <ele>2235</ele>
        <time>2019-03-21T11:53:36Z</time>
      </trkpt>
      <trkpt lat="42.86664" lon="0.18898">
        <ele>2235</ele>
        <time>2019-03-21T11:55:36Z</time>
      </trkpt>
      <trkpt lat="42.86664" lon="0.18902">
        <ele>2235</ele>
        <time>2019-03-21T11:55:51Z</time>
      </trkpt>
      <trkpt lat="42.86663" lon="0.18906">
        <ele>2235</ele>
        <time>2019-03-21T11:56:00Z</time>
      </trkpt>
      <trkpt lat="42.8666" lon="0.18907">
        <ele>2235</ele>
        <time>2019-03-21T11:56:13Z</time>
      </trkpt>
      <trkpt lat="42.8666" lon="0.18899">
        <ele>2235</ele>
        <time>2019-03-21T11:56:48Z</time>
      </trkpt>
      <trkpt lat="42.86659" lon="0.18897">
        <ele>2235</ele>
        <time>2019-03-21T11:59:14Z</time>
      </trkpt>
      <trkpt lat="42.86658" lon="0.18894">
        <ele>2235</ele>
        <time>2019-03-21T11:59:23Z</time>
      </trkpt>
      <trkpt lat="42.86661" lon="0.1889">
        <ele>2235</ele>
        <time>2019-03-21T12:00:52Z</time>
      </trkpt>
      <trkpt lat="42.86664" lon="0.18886">
        <ele>2235</ele>
        <time>2019-03-21T12:02:24Z</time>
      </trkpt>
      <trkpt lat="42.86661" lon="0.18882">
        <ele>2235</ele>
        <time>2019-03-21T12:02:53Z</time>
      </trkpt>
      <trkpt lat="42.86663" lon="0.18877">
        <ele>2235</ele>
        <time>2019-03-21T12:02:56Z</time>
      </trkpt>
      <trkpt lat="42.86666" lon="0.18874">
        <ele>2235</ele>
        <time>2019-03-21T12:03:08Z</time>
      </trkpt>
      <trkpt lat="42.86667" lon="0.18869">
        <ele>2235</ele>
        <time>2019-03-21T12:03:28Z</time>
      </trkpt>
      <trkpt lat="42.86671" lon="0.18865">
        <ele>2235</ele>
        <time>2019-03-21T12:04:14Z</time>
      </trkpt>
      <trkpt lat="42.86675" lon="0.18859">
        <ele>2235</ele>
        <time>2019-03-21T12:04:19Z</time>
      </trkpt>
      <trkpt lat="42.86697" lon="0.18847">
        <ele>2235</ele>
        <time>2019-03-21T12:04:35Z</time>
      </trkpt>
      <trkpt lat="42.86721" lon="0.18832">
        <ele>2235</ele>
        <time>2019-03-21T12:04:59Z</time>
      </trkpt>
      <trkpt lat="42.86729" lon="0.1883">
        <ele>2235</ele>
        <time>2019-03-21T12:05:06Z</time>
      </trkpt>
      <trkpt lat="42.86733" lon="0.18828">
        <ele>2235</ele>
        <time>2019-03-21T12:05:11Z</time>
      </trkpt>
      <trkpt lat="42.86757" lon="0.1881">
        <ele>2235</ele>
        <time>2019-03-21T12:05:21Z</time>
      </trkpt>
      <trkpt lat="42.8676" lon="0.18806">
        <ele>2235</ele>
        <time>2019-03-21T12:05:24Z</time>
      </trkpt>
      <trkpt lat="42.86762" lon="0.18801">
        <ele>2235</ele>
        <time>2019-03-21T12:05:28Z</time>
      </trkpt>
      <trkpt lat="42.86752" lon="0.18762">
        <ele>2234</ele>
        <time>2019-03-21T12:05:58Z</time>
      </trkpt>
      <trkpt lat="42.86751" lon="0.18755">
        <ele>2234</ele>
        <time>2019-03-21T12:06:02Z</time>
      </trkpt>
      <trkpt lat="42.86748" lon="0.18746">
        <ele>2234</ele>
        <time>2019-03-21T12:06:10Z</time>
      </trkpt>
      <trkpt lat="42.86745" lon="0.18743">
        <ele>2234</ele>
        <time>2019-03-21T12:06:14Z</time>
      </trkpt>
      <trkpt lat="42.86743" lon="0.1874">
        <ele>2234</ele>
        <time>2019-03-21T12:06:19Z</time>
      </trkpt>
      <trkpt lat="42.86736" lon="0.18738">
        <ele>2234</ele>
        <time>2019-03-21T12:06:27Z</time>
      </trkpt>
      <trkpt lat="42.86732" lon="0.18732">
        <ele>2234</ele>
        <time>2019-03-21T12:06:34Z</time>
      </trkpt>
      <trkpt lat="42.86731" lon="0.18728">
        <ele>2234</ele>
        <time>2019-03-21T12:06:38Z</time>
      </trkpt>
      <trkpt lat="42.86731" lon="0.18724">
        <ele>2234</ele>
        <time>2019-03-21T12:06:42Z</time>
      </trkpt>
      <trkpt lat="42.86729" lon="0.18721">
        <ele>2234</ele>
        <time>2019-03-21T12:06:45Z</time>
      </trkpt>
      <trkpt lat="42.86727" lon="0.18718">
        <ele>2234</ele>
        <time>2019-03-21T12:06:49Z</time>
      </trkpt>
      <trkpt lat="42.86725" lon="0.18715">
        <ele>2233</ele>
        <time>2019-03-21T12:06:53Z</time>
      </trkpt>
      <trkpt lat="42.86723" lon="0.18712">
        <ele>2233</ele>
        <time>2019-03-21T12:06:59Z</time>
      </trkpt>
      <trkpt lat="42.86721" lon="0.1871">
        <ele>2233</ele>
        <time>2019-03-21T12:07:03Z</time>
      </trkpt>
      <trkpt lat="42.8672" lon="0.18707">
        <ele>2233</ele>
        <time>2019-03-21T12:07:07Z</time>
      </trkpt>
      <trkpt lat="42.86723" lon="0.18705">
        <ele>2233</ele>
        <time>2019-03-21T12:07:41Z</time>
      </trkpt>
      <trkpt lat="42.86726" lon="0.18701">
        <ele>2233</ele>
        <time>2019-03-21T12:08:25Z</time>
      </trkpt>
      <trkpt lat="42.86735" lon="0.18697">
        <ele>2232</ele>
        <time>2019-03-21T12:08:45Z</time>
      </trkpt>
      <trkpt lat="42.86739" lon="0.18691">
        <ele>2232</ele>
        <time>2019-03-21T12:08:52Z</time>
      </trkpt>
      <trkpt lat="42.86743" lon="0.18685">
        <ele>2232</ele>
        <time>2019-03-21T12:08:58Z</time>
      </trkpt>
      <trkpt lat="42.86755" lon="0.18645">
        <ele>2231</ele>
        <time>2019-03-21T12:09:17Z</time>
      </trkpt>
      <trkpt lat="42.86758" lon="0.18641">
        <ele>2231</ele>
        <time>2019-03-21T12:09:21Z</time>
      </trkpt>
      <trkpt lat="42.86759" lon="0.18636">
        <ele>2231</ele>
        <time>2019-03-21T12:09:27Z</time>
      </trkpt>
      <trkpt lat="42.86758" lon="0.18622">
        <ele>2231</ele>
        <time>2019-03-21T12:09:42Z</time>
      </trkpt>
      <trkpt lat="42.8676" lon="0.18609">
        <ele>2231</ele>
        <time>2019-03-21T12:09:56Z</time>
      </trkpt>
      <trkpt lat="42.86761" lon="0.18605">
        <ele>2231</ele>
        <time>2019-03-21T12:09:59Z</time>
      </trkpt>
      <trkpt lat="42.86761" lon="0.186">
        <ele>2231</ele>
        <time>2019-03-21T12:10:03Z</time>
      </trkpt>
      <trkpt lat="42.86763" lon="0.18592">
        <ele>2231</ele>
        <time>2019-03-21T12:10:11Z</time>
      </trkpt>
      <trkpt lat="42.86764" lon="0.18587">
        <ele>2231</ele>
        <time>2019-03-21T12:10:16Z</time>
      </trkpt>
      <trkpt lat="42.86762" lon="0.18584">
        <ele>2231</ele>
        <time>2019-03-21T12:10:22Z</time>
      </trkpt>
      <trkpt lat="42.86761" lon="0.1858">
        <ele>2231</ele>
        <time>2019-03-21T12:10:29Z</time>
      </trkpt>
      <trkpt lat="42.86762" lon="0.18576">
        <ele>2230</ele>
        <time>2019-03-21T12:10:33Z</time>
      </trkpt>
      <trkpt lat="42.86765" lon="0.18563">
        <ele>2230</ele>
        <time>2019-03-21T12:10:45Z</time>
      </trkpt>
      <trkpt lat="42.86766" lon="0.18555">
        <ele>2230</ele>
        <time>2019-03-21T12:10:52Z</time>
      </trkpt>
      <trkpt lat="42.86769" lon="0.18549">
        <ele>2231</ele>
        <time>2019-03-21T12:10:58Z</time>
      </trkpt>
      <trkpt lat="42.86773" lon="0.18543">
        <ele>2231</ele>
        <time>2019-03-21T12:11:05Z</time>
      </trkpt>
      <trkpt lat="42.86775" lon="0.1854">
        <ele>2231</ele>
        <time>2019-03-21T12:11:17Z</time>
      </trkpt>
      <trkpt lat="42.86777" lon="0.18536">
        <ele>2231</ele>
        <time>2019-03-21T12:11:20Z</time>
      </trkpt>
      <trkpt lat="42.86781" lon="0.18535">
        <ele>2231</ele>
        <time>2019-03-21T12:13:01Z</time>
      </trkpt>
      <trkpt lat="42.86784" lon="0.1853">
        <ele>2231</ele>
        <time>2019-03-21T12:13:45Z</time>
      </trkpt>
      <trkpt lat="42.86787" lon="0.18527">
        <ele>2231</ele>
        <time>2019-03-21T12:13:50Z</time>
      </trkpt>
      <trkpt lat="42.86794" lon="0.18513">
        <ele>2231</ele>
        <time>2019-03-21T12:14:03Z</time>
      </trkpt>
      <trkpt lat="42.86799" lon="0.18505">
        <ele>2231</ele>
        <time>2019-03-21T12:14:11Z</time>
      </trkpt>
      <trkpt lat="42.86807" lon="0.18492">
        <ele>2231</ele>
        <time>2019-03-21T12:14:18Z</time>
      </trkpt>
      <trkpt lat="42.86811" lon="0.18487">
        <ele>2231</ele>
        <time>2019-03-21T12:14:23Z</time>
      </trkpt>
      <trkpt lat="42.86814" lon="0.18483">
        <ele>2231</ele>
        <time>2019-03-21T12:14:26Z</time>
      </trkpt>
      <trkpt lat="42.86822" lon="0.1847">
        <ele>2231</ele>
        <time>2019-03-21T12:14:53Z</time>
      </trkpt>
      <trkpt lat="42.86824" lon="0.18465">
        <ele>2231</ele>
        <time>2019-03-21T12:14:58Z</time>
      </trkpt>
      <trkpt lat="42.8683" lon="0.18457">
        <ele>2232</ele>
        <time>2019-03-21T12:15:10Z</time>
      </trkpt>
      <trkpt lat="42.86832" lon="0.18452">
        <ele>2232</ele>
        <time>2019-03-21T12:15:15Z</time>
      </trkpt>
      <trkpt lat="42.86836" lon="0.18449">
        <ele>2232</ele>
        <time>2019-03-21T12:15:22Z</time>
      </trkpt>
      <trkpt lat="42.86851" lon="0.18424">
        <ele>2232</ele>
        <time>2019-03-21T12:15:45Z</time>
      </trkpt>
      <trkpt lat="42.86854" lon="0.1842">
        <ele>2232</ele>
        <time>2019-03-21T12:15:49Z</time>
      </trkpt>
      <trkpt lat="42.8686" lon="0.18413">
        <ele>2232</ele>
        <time>2019-03-21T12:16:02Z</time>
      </trkpt>
      <trkpt lat="42.86864" lon="0.18412">
        <ele>2232</ele>
        <time>2019-03-21T12:16:10Z</time>
      </trkpt>
      <trkpt lat="42.86869" lon="0.18404">
        <ele>2233</ele>
        <time>2019-03-21T12:16:26Z</time>
      </trkpt>
      <trkpt lat="42.86876" lon="0.18397">
        <ele>2233</ele>
        <time>2019-03-21T12:16:31Z</time>
      </trkpt>
      <trkpt lat="42.86879" lon="0.18395">
        <ele>2233</ele>
        <time>2019-03-21T12:16:35Z</time>
      </trkpt>
      <trkpt lat="42.86887" lon="0.1839">
        <ele>2233</ele>
        <time>2019-03-21T12:16:51Z</time>
      </trkpt>
      <trkpt lat="42.8689" lon="0.18386">
        <ele>2233</ele>
        <time>2019-03-21T12:16:53Z</time>
      </trkpt>
      <trkpt lat="42.86894" lon="0.18385">
        <ele>2233</ele>
        <time>2019-03-21T12:17:02Z</time>
      </trkpt>
      <trkpt lat="42.86897" lon="0.18381">
        <ele>2233</ele>
        <time>2019-03-21T12:17:08Z</time>
      </trkpt>
      <trkpt lat="42.86901" lon="0.1838">
        <ele>2233</ele>
        <time>2019-03-21T12:17:16Z</time>
      </trkpt>
      <trkpt lat="42.86905" lon="0.18378">
        <ele>2233</ele>
        <time>2019-03-21T12:17:27Z</time>
      </trkpt>
      <trkpt lat="42.86916" lon="0.18371">
        <ele>2234</ele>
        <time>2019-03-21T12:17:45Z</time>
      </trkpt>
      <trkpt lat="42.86919" lon="0.18368">
        <ele>2234</ele>
        <time>2019-03-21T12:17:50Z</time>
      </trkpt>
      <trkpt lat="42.86923" lon="0.18365">
        <ele>2234</ele>
        <time>2019-03-21T12:17:57Z</time>
      </trkpt>
      <trkpt lat="42.86927" lon="0.18365">
        <ele>2234</ele>
        <time>2019-03-21T12:18:04Z</time>
      </trkpt>
      <trkpt lat="42.86934" lon="0.18358">
        <ele>2234</ele>
        <time>2019-03-21T12:18:15Z</time>
      </trkpt>
      <trkpt lat="42.86937" lon="0.18356">
        <ele>2234</ele>
        <time>2019-03-21T12:18:19Z</time>
      </trkpt>
      <trkpt lat="42.86941" lon="0.18355">
        <ele>2234</ele>
        <time>2019-03-21T12:18:28Z</time>
      </trkpt>
      <trkpt lat="42.86948" lon="0.1835">
        <ele>2235</ele>
        <time>2019-03-21T12:18:38Z</time>
      </trkpt>
      <trkpt lat="42.86967" lon="0.18331">
        <ele>2235</ele>
        <time>2019-03-21T12:19:11Z</time>
      </trkpt>
      <trkpt lat="42.86972" lon="0.18324">
        <ele>2235</ele>
        <time>2019-03-21T12:19:23Z</time>
      </trkpt>
      <trkpt lat="42.86975" lon="0.1832">
        <ele>2236</ele>
        <time>2019-03-21T12:19:30Z</time>
      </trkpt>
      <trkpt lat="42.86979" lon="0.1832">
        <ele>2236</ele>
        <time>2019-03-21T12:19:42Z</time>
      </trkpt>
      <trkpt lat="42.8699" lon="0.18313">
        <ele>2236</ele>
        <time>2019-03-21T12:20:00Z</time>
      </trkpt>
      <trkpt lat="42.86993" lon="0.1831">
        <ele>2237</ele>
        <time>2019-03-21T12:20:04Z</time>
      </trkpt>
      <trkpt lat="42.8701" lon="0.18295">
        <ele>2238</ele>
        <time>2019-03-21T12:20:33Z</time>
      </trkpt>
      <trkpt lat="42.87026" lon="0.18282">
        <ele>2238</ele>
        <time>2019-03-21T12:20:52Z</time>
      </trkpt>
      <trkpt lat="42.87029" lon="0.18282">
        <ele>2238</ele>
        <time>2019-03-21T12:20:57Z</time>
      </trkpt>
      <trkpt lat="42.8704" lon="0.18274">
        <ele>2239</ele>
        <time>2019-03-21T12:21:16Z</time>
      </trkpt>
      <trkpt lat="42.87042" lon="0.18269">
        <ele>2239</ele>
        <time>2019-03-21T12:21:21Z</time>
      </trkpt>
      <trkpt lat="42.87049" lon="0.18263">
        <ele>2240</ele>
        <time>2019-03-21T12:21:37Z</time>
      </trkpt>
      <trkpt lat="42.87057" lon="0.18258">
        <ele>2241</ele>
        <time>2019-03-21T12:21:47Z</time>
      </trkpt>
      <trkpt lat="42.87061" lon="0.18256">
        <ele>2241</ele>
        <time>2019-03-21T12:21:57Z</time>
      </trkpt>
      <trkpt lat="42.87065" lon="0.18251">
        <ele>2241</ele>
        <time>2019-03-21T12:22:06Z</time>
      </trkpt>
      <trkpt lat="42.87081" lon="0.18244">
        <ele>2242</ele>
        <time>2019-03-21T12:22:25Z</time>
      </trkpt>
      <trkpt lat="42.87085" lon="0.18242">
        <ele>2242</ele>
        <time>2019-03-21T12:22:33Z</time>
      </trkpt>
      <trkpt lat="42.87088" lon="0.18239">
        <ele>2243</ele>
        <time>2019-03-21T12:22:40Z</time>
      </trkpt>
      <trkpt lat="42.87105" lon="0.18233">
        <ele>2244</ele>
        <time>2019-03-21T12:23:04Z</time>
      </trkpt>
      <trkpt lat="42.87118" lon="0.18206">
        <ele>2246</ele>
        <time>2019-03-21T12:23:40Z</time>
      </trkpt>
      <trkpt lat="42.87119" lon="0.18202">
        <ele>2246</ele>
        <time>2019-03-21T12:23:45Z</time>
      </trkpt>
      <trkpt lat="42.87121" lon="0.18197">
        <ele>2247</ele>
        <time>2019-03-21T12:23:52Z</time>
      </trkpt>
      <trkpt lat="42.8712" lon="0.18192">
        <ele>2247</ele>
        <time>2019-03-21T12:23:58Z</time>
      </trkpt>
      <trkpt lat="42.87119" lon="0.18188">
        <ele>2248</ele>
        <time>2019-03-21T12:24:03Z</time>
      </trkpt>
      <trkpt lat="42.87121" lon="0.18177">
        <ele>2250</ele>
        <time>2019-03-21T12:24:32Z</time>
      </trkpt>
      <trkpt lat="42.87125" lon="0.18167">
        <ele>2252</ele>
        <time>2019-03-21T12:24:44Z</time>
      </trkpt>
      <trkpt lat="42.87124" lon="0.18162">
        <ele>2252</ele>
        <time>2019-03-21T12:24:48Z</time>
      </trkpt>
      <trkpt lat="42.87126" lon="0.18157">
        <ele>2253</ele>
        <time>2019-03-21T12:24:53Z</time>
      </trkpt>
      <trkpt lat="42.87128" lon="0.18153">
        <ele>2254</ele>
        <time>2019-03-21T12:24:59Z</time>
      </trkpt>
      <trkpt lat="42.87131" lon="0.1815">
        <ele>2255</ele>
        <time>2019-03-21T12:25:08Z</time>
      </trkpt>
      <trkpt lat="42.87132" lon="0.18146">
        <ele>2255</ele>
        <time>2019-03-21T12:25:14Z</time>
      </trkpt>
      <trkpt lat="42.87134" lon="0.18141">
        <ele>2257</ele>
        <time>2019-03-21T12:25:24Z</time>
      </trkpt>
      <trkpt lat="42.87134" lon="0.18135">
        <ele>2257</ele>
        <time>2019-03-21T12:25:28Z</time>
      </trkpt>
      <trkpt lat="42.87131" lon="0.18131">
        <ele>2258</ele>
        <time>2019-03-21T12:25:35Z</time>
      </trkpt>
      <trkpt lat="42.8713" lon="0.18126">
        <ele>2259</ele>
        <time>2019-03-21T12:25:44Z</time>
      </trkpt>
      <trkpt lat="42.87126" lon="0.18127">
        <ele>2260</ele>
        <time>2019-03-21T12:25:51Z</time>
      </trkpt>
      <trkpt lat="42.87122" lon="0.18126">
        <ele>2260</ele>
        <time>2019-03-21T12:25:58Z</time>
      </trkpt>
      <trkpt lat="42.87119" lon="0.18125">
        <ele>2261</ele>
        <time>2019-03-21T12:26:07Z</time>
      </trkpt>
      <trkpt lat="42.87115" lon="0.18124">
        <ele>2262</ele>
        <time>2019-03-21T12:26:17Z</time>
      </trkpt>
      <trkpt lat="42.87108" lon="0.18119">
        <ele>2263</ele>
        <time>2019-03-21T12:26:30Z</time>
      </trkpt>
      <trkpt lat="42.87105" lon="0.18114">
        <ele>2264</ele>
        <time>2019-03-21T12:26:34Z</time>
      </trkpt>
      <trkpt lat="42.87103" lon="0.1811">
        <ele>2264</ele>
        <time>2019-03-21T12:26:37Z</time>
      </trkpt>
      <trkpt lat="42.87104" lon="0.18099">
        <ele>2265</ele>
        <time>2019-03-21T12:26:45Z</time>
      </trkpt>
      <trkpt lat="42.87106" lon="0.18094">
        <ele>2266</ele>
        <time>2019-03-21T12:26:54Z</time>
      </trkpt>
      <trkpt lat="42.87105" lon="0.18089">
        <ele>2267</ele>
        <time>2019-03-21T12:27:00Z</time>
      </trkpt>
      <trkpt lat="42.87102" lon="0.18084">
        <ele>2268</ele>
        <time>2019-03-21T12:27:10Z</time>
      </trkpt>
      <trkpt lat="42.87104" lon="0.1808">
        <ele>2269</ele>
        <time>2019-03-21T12:27:17Z</time>
      </trkpt>
      <trkpt lat="42.87105" lon="0.18075">
        <ele>2276</ele>
        <time>2019-03-21T12:29:16Z</time>
      </trkpt>
      <trkpt lat="42.87108" lon="0.18071">
        <ele>2276</ele>
        <time>2019-03-21T12:29:23Z</time>
      </trkpt>
      <trkpt lat="42.87111" lon="0.18067">
        <ele>2280</ele>
        <time>2019-03-21T12:29:29Z</time>
      </trkpt>
      <trkpt lat="42.87115" lon="0.18065">
        <ele>2281</ele>
        <time>2019-03-21T12:29:34Z</time>
      </trkpt>
      <trkpt lat="42.87118" lon="0.18062">
        <ele>2282</ele>
        <time>2019-03-21T12:29:39Z</time>
      </trkpt>
      <trkpt lat="42.87138" lon="0.18057">
        <ele>2287</ele>
        <time>2019-03-21T12:30:14Z</time>
      </trkpt>
      <trkpt lat="42.87147" lon="0.18059">
        <ele>2289</ele>
        <time>2019-03-21T12:30:27Z</time>
      </trkpt>
      <trkpt lat="42.87149" lon="0.18062">
        <ele>2290</ele>
        <time>2019-03-21T12:30:37Z</time>
      </trkpt>
      <trkpt lat="42.87154" lon="0.18059">
        <ele>2291</ele>
        <time>2019-03-21T12:30:45Z</time>
      </trkpt>
      <trkpt lat="42.87161" lon="0.18053">
        <ele>2292</ele>
        <time>2019-03-21T12:30:59Z</time>
      </trkpt>
      <trkpt lat="42.87165" lon="0.18054">
        <ele>2293</ele>
        <time>2019-03-21T12:31:15Z</time>
      </trkpt>
      <trkpt lat="42.87168" lon="0.18054">
        <ele>2294</ele>
        <time>2019-03-21T12:31:24Z</time>
      </trkpt>
      <trkpt lat="42.87172" lon="0.18052">
        <ele>2294</ele>
        <time>2019-03-21T12:31:33Z</time>
      </trkpt>
      <trkpt lat="42.87175" lon="0.18048">
        <ele>2295</ele>
        <time>2019-03-21T12:31:42Z</time>
      </trkpt>
      <trkpt lat="42.87181" lon="0.18042">
        <ele>2296</ele>
        <time>2019-03-21T12:31:52Z</time>
      </trkpt>
      <trkpt lat="42.87183" lon="0.18038">
        <ele>2296</ele>
        <time>2019-03-21T12:32:00Z</time>
      </trkpt>
      <trkpt lat="42.87187" lon="0.18034">
        <ele>2297</ele>
        <time>2019-03-21T12:32:11Z</time>
      </trkpt>
      <trkpt lat="42.8719" lon="0.18031">
        <ele>2298</ele>
        <time>2019-03-21T12:32:17Z</time>
      </trkpt>
      <trkpt lat="42.87195" lon="0.18022">
        <ele>2299</ele>
        <time>2019-03-21T12:32:31Z</time>
      </trkpt>
      <trkpt lat="42.87202" lon="0.18013">
        <ele>2300</ele>
        <time>2019-03-21T12:32:42Z</time>
      </trkpt>
      <trkpt lat="42.87205" lon="0.1801">
        <ele>2300</ele>
        <time>2019-03-21T12:32:46Z</time>
      </trkpt>
      <trkpt lat="42.87207" lon="0.18005">
        <ele>2301</ele>
        <time>2019-03-21T12:32:57Z</time>
      </trkpt>
      <trkpt lat="42.87209" lon="0.17995">
        <ele>2302</ele>
        <time>2019-03-21T12:33:12Z</time>
      </trkpt>
      <trkpt lat="42.87209" lon="0.1799">
        <ele>2302</ele>
        <time>2019-03-21T12:33:16Z</time>
      </trkpt>
      <trkpt lat="42.87213" lon="0.17974">
        <ele>2304</ele>
        <time>2019-03-21T12:33:37Z</time>
      </trkpt>
      <trkpt lat="42.87212" lon="0.17964">
        <ele>2305</ele>
        <time>2019-03-21T12:33:46Z</time>
      </trkpt>
      <trkpt lat="42.87212" lon="0.17959">
        <ele>2306</ele>
        <time>2019-03-21T12:35:14Z</time>
      </trkpt>
      <trkpt lat="42.87211" lon="0.17953">
        <ele>2309</ele>
        <time>2019-03-21T12:37:36Z</time>
      </trkpt>
      <trkpt lat="42.87213" lon="0.17948">
        <ele>2310</ele>
        <time>2019-03-21T12:37:43Z</time>
      </trkpt>
      <trkpt lat="42.87215" lon="0.17939">
        <ele>2314</ele>
        <time>2019-03-21T12:37:56Z</time>
      </trkpt>
      <trkpt lat="42.87218" lon="0.17934">
        <ele>2315</ele>
        <time>2019-03-21T12:38:42Z</time>
      </trkpt>
      <trkpt lat="42.87221" lon="0.17929">
        <ele>2316</ele>
        <time>2019-03-21T12:38:46Z</time>
      </trkpt>
      <trkpt lat="42.87225" lon="0.17931">
        <ele>2317</ele>
        <time>2019-03-21T12:38:53Z</time>
      </trkpt>
      <trkpt lat="42.87229" lon="0.17929">
        <ele>2318</ele>
        <time>2019-03-21T12:38:59Z</time>
      </trkpt>
      <trkpt lat="42.87231" lon="0.17925">
        <ele>2318</ele>
        <time>2019-03-21T12:39:06Z</time>
      </trkpt>
      <trkpt lat="42.87235" lon="0.17924">
        <ele>2319</ele>
        <time>2019-03-21T12:39:13Z</time>
      </trkpt>
      <trkpt lat="42.87239" lon="0.17923">
        <ele>2320</ele>
        <time>2019-03-21T12:39:17Z</time>
      </trkpt>
      <trkpt lat="42.87244" lon="0.17916">
        <ele>2321</ele>
        <time>2019-03-21T12:39:29Z</time>
      </trkpt>
      <trkpt lat="42.87252" lon="0.17912">
        <ele>2321</ele>
        <time>2019-03-21T12:39:38Z</time>
      </trkpt>
      <trkpt lat="42.8726" lon="0.1791">
        <ele>2322</ele>
        <time>2019-03-21T12:39:51Z</time>
      </trkpt>
      <trkpt lat="42.87264" lon="0.17911">
        <ele>2323</ele>
        <time>2019-03-21T12:39:54Z</time>
      </trkpt>
      <trkpt lat="42.87266" lon="0.17906">
        <ele>2323</ele>
        <time>2019-03-21T12:40:00Z</time>
      </trkpt>
      <trkpt lat="42.87285" lon="0.17883">
        <ele>2325</ele>
        <time>2019-03-21T12:40:32Z</time>
      </trkpt>
      <trkpt lat="42.87287" lon="0.17878">
        <ele>2325</ele>
        <time>2019-03-21T12:40:39Z</time>
      </trkpt>
      <trkpt lat="42.87288" lon="0.17873">
        <ele>2326</ele>
        <time>2019-03-21T12:41:21Z</time>
      </trkpt>
      <trkpt lat="42.87291" lon="0.17868">
        <ele>2326</ele>
        <time>2019-03-21T12:41:25Z</time>
      </trkpt>
      <trkpt lat="42.87305" lon="0.17843">
        <ele>2327</ele>
        <time>2019-03-21T12:41:55Z</time>
      </trkpt>
      <trkpt lat="42.87311" lon="0.17834">
        <ele>2328</ele>
        <time>2019-03-21T12:42:03Z</time>
      </trkpt>
      <trkpt lat="42.87313" lon="0.17829">
        <ele>2328</ele>
        <time>2019-03-21T12:43:01Z</time>
      </trkpt>
      <trkpt lat="42.87314" lon="0.17824">
        <ele>2328</ele>
        <time>2019-03-21T12:43:07Z</time>
      </trkpt>
      <trkpt lat="42.87315" lon="0.1782">
        <ele>2329</ele>
        <time>2019-03-21T12:43:13Z</time>
      </trkpt>
      <trkpt lat="42.87316" lon="0.17814">
        <ele>2329</ele>
        <time>2019-03-21T12:43:17Z</time>
      </trkpt>
      <trkpt lat="42.87317" lon="0.1781">
        <ele>2330</ele>
        <time>2019-03-21T12:43:24Z</time>
      </trkpt>
      <trkpt lat="42.87318" lon="0.17805">
        <ele>2330</ele>
        <time>2019-03-21T12:43:29Z</time>
      </trkpt>
      <trkpt lat="42.87322" lon="0.1779">
        <ele>2331</ele>
        <time>2019-03-21T12:43:42Z</time>
      </trkpt>
      <trkpt lat="42.87324" lon="0.17785">
        <ele>2331</ele>
        <time>2019-03-21T12:43:46Z</time>
      </trkpt>
      <trkpt lat="42.87324" lon="0.17779">
        <ele>2331</ele>
        <time>2019-03-21T12:43:51Z</time>
      </trkpt>
      <trkpt lat="42.87325" lon="0.17769">
        <ele>2332</ele>
        <time>2019-03-21T12:44:01Z</time>
      </trkpt>
      <trkpt lat="42.87325" lon="0.17763">
        <ele>2332</ele>
        <time>2019-03-21T12:44:05Z</time>
      </trkpt>
      <trkpt lat="42.87324" lon="0.17758">
        <ele>2332</ele>
        <time>2019-03-21T12:44:10Z</time>
      </trkpt>
      <trkpt lat="42.87325" lon="0.17752">
        <ele>2332</ele>
        <time>2019-03-21T12:44:15Z</time>
      </trkpt>
      <trkpt lat="42.87328" lon="0.17749">
        <ele>2332</ele>
        <time>2019-03-21T12:44:19Z</time>
      </trkpt>
      <trkpt lat="42.8733" lon="0.17738">
        <ele>2333</ele>
        <time>2019-03-21T12:44:30Z</time>
      </trkpt>
      <trkpt lat="42.87329" lon="0.17733">
        <ele>2333</ele>
        <time>2019-03-21T12:44:37Z</time>
      </trkpt>
      <trkpt lat="42.87328" lon="0.17718">
        <ele>2333</ele>
        <time>2019-03-21T12:44:56Z</time>
      </trkpt>
      <trkpt lat="42.87326" lon="0.17712">
        <ele>2334</ele>
        <time>2019-03-21T12:45:01Z</time>
      </trkpt>
      <trkpt lat="42.87326" lon="0.17706">
        <ele>2334</ele>
        <time>2019-03-21T12:45:08Z</time>
      </trkpt>
      <trkpt lat="42.87335" lon="0.17685">
        <ele>2334</ele>
        <time>2019-03-21T12:45:30Z</time>
      </trkpt>
      <trkpt lat="42.87335" lon="0.17679">
        <ele>2335</ele>
        <time>2019-03-21T12:45:40Z</time>
      </trkpt>
      <trkpt lat="42.87334" lon="0.17674">
        <ele>2335</ele>
        <time>2019-03-21T12:45:45Z</time>
      </trkpt>
      <trkpt lat="42.87334" lon="0.17669">
        <ele>2335</ele>
        <time>2019-03-21T12:45:54Z</time>
      </trkpt>
      <trkpt lat="42.87337" lon="0.17662">
        <ele>2335</ele>
        <time>2019-03-21T12:46:09Z</time>
      </trkpt>
      <trkpt lat="42.87337" lon="0.17655">
        <ele>2336</ele>
        <time>2019-03-21T12:46:18Z</time>
      </trkpt>
      <trkpt lat="42.87338" lon="0.17647">
        <ele>2336</ele>
        <time>2019-03-21T12:46:25Z</time>
      </trkpt>
      <trkpt lat="42.87348" lon="0.17624">
        <ele>2338</ele>
        <time>2019-03-21T12:46:57Z</time>
      </trkpt>
      <trkpt lat="42.87348" lon="0.17602">
        <ele>2340</ele>
        <time>2019-03-21T12:47:38Z</time>
      </trkpt>
      <trkpt lat="42.87352" lon="0.17592">
        <ele>2342</ele>
        <time>2019-03-21T12:47:52Z</time>
      </trkpt>
      <trkpt lat="42.87353" lon="0.17584">
        <ele>2343</ele>
        <time>2019-03-21T12:47:58Z</time>
      </trkpt>
      <trkpt lat="42.87354" lon="0.17579">
        <ele>2343</ele>
        <time>2019-03-21T12:48:11Z</time>
      </trkpt>
      <trkpt lat="42.87354" lon="0.17572">
        <ele>2345</ele>
        <time>2019-03-21T12:48:40Z</time>
      </trkpt>
      <trkpt lat="42.87355" lon="0.17567">
        <ele>2346</ele>
        <time>2019-03-21T12:48:46Z</time>
      </trkpt>
      <trkpt lat="42.87356" lon="0.17562">
        <ele>2347</ele>
        <time>2019-03-21T12:48:52Z</time>
      </trkpt>
      <trkpt lat="42.87356" lon="0.17549">
        <ele>2348</ele>
        <time>2019-03-21T12:49:05Z</time>
      </trkpt>
      <trkpt lat="42.87357" lon="0.17544">
        <ele>2349</ele>
        <time>2019-03-21T12:49:13Z</time>
      </trkpt>
      <trkpt lat="42.87354" lon="0.17529">
        <ele>2351</ele>
        <time>2019-03-21T12:49:32Z</time>
      </trkpt>
      <trkpt lat="42.87352" lon="0.17525">
        <ele>2351</ele>
        <time>2019-03-21T12:49:41Z</time>
      </trkpt>
      <trkpt lat="42.87349" lon="0.17519">
        <ele>2352</ele>
        <time>2019-03-21T12:49:45Z</time>
      </trkpt>
      <trkpt lat="42.8735" lon="0.17514">
        <ele>2352</ele>
        <time>2019-03-21T12:49:51Z</time>
      </trkpt>
      <trkpt lat="42.87351" lon="0.17509">
        <ele>2353</ele>
        <time>2019-03-21T12:50:04Z</time>
      </trkpt>
      <trkpt lat="42.8735" lon="0.17504">
        <ele>2354</ele>
        <time>2019-03-21T12:50:09Z</time>
      </trkpt>
      <trkpt lat="42.87349" lon="0.17499">
        <ele>2354</ele>
        <time>2019-03-21T12:50:14Z</time>
      </trkpt>
      <trkpt lat="42.87349" lon="0.17494">
        <ele>2355</ele>
        <time>2019-03-21T12:50:20Z</time>
      </trkpt>
      <trkpt lat="42.87346" lon="0.1749">
        <ele>2355</ele>
        <time>2019-03-21T12:50:26Z</time>
      </trkpt>
      <trkpt lat="42.87344" lon="0.17485">
        <ele>2356</ele>
        <time>2019-03-21T12:50:30Z</time>
      </trkpt>
      <trkpt lat="42.87342" lon="0.17481">
        <ele>2357</ele>
        <time>2019-03-21T12:50:40Z</time>
      </trkpt>
      <trkpt lat="42.8734" lon="0.17476">
        <ele>2357</ele>
        <time>2019-03-21T12:51:59Z</time>
      </trkpt>
      <trkpt lat="42.87344" lon="0.1746">
        <ele>2359</ele>
        <time>2019-03-21T12:52:16Z</time>
      </trkpt>
      <trkpt lat="42.87346" lon="0.17454">
        <ele>2360</ele>
        <time>2019-03-21T12:52:50Z</time>
      </trkpt>
      <trkpt lat="42.87349" lon="0.17445">
        <ele>2361</ele>
        <time>2019-03-21T12:53:00Z</time>
      </trkpt>
      <trkpt lat="42.8735" lon="0.17439">
        <ele>2362</ele>
        <time>2019-03-21T12:53:05Z</time>
      </trkpt>
      <trkpt lat="42.87348" lon="0.17434">
        <ele>2362</ele>
        <time>2019-03-21T12:53:12Z</time>
      </trkpt>
      <trkpt lat="42.87348" lon="0.17428">
        <ele>2363</ele>
        <time>2019-03-21T12:53:20Z</time>
      </trkpt>
      <trkpt lat="42.87348" lon="0.17422">
        <ele>2364</ele>
        <time>2019-03-21T12:53:34Z</time>
      </trkpt>
      <trkpt lat="42.87352" lon="0.17416">
        <ele>2364</ele>
        <time>2019-03-21T12:53:43Z</time>
      </trkpt>
      <trkpt lat="42.87351" lon="0.17412">
        <ele>2365</ele>
        <time>2019-03-21T12:53:57Z</time>
      </trkpt>
      <trkpt lat="42.87352" lon="0.17391">
        <ele>2367</ele>
        <time>2019-03-21T12:54:27Z</time>
      </trkpt>
      <trkpt lat="42.87351" lon="0.17386">
        <ele>2368</ele>
        <time>2019-03-21T12:54:42Z</time>
      </trkpt>
      <trkpt lat="42.8735" lon="0.17381">
        <ele>2368</ele>
        <time>2019-03-21T12:54:49Z</time>
      </trkpt>
      <trkpt lat="42.87352" lon="0.17364">
        <ele>2370</ele>
        <time>2019-03-21T12:55:10Z</time>
      </trkpt>
      <trkpt lat="42.87352" lon="0.17359">
        <ele>2371</ele>
        <time>2019-03-21T12:55:20Z</time>
      </trkpt>
      <trkpt lat="42.8735" lon="0.17355">
        <ele>2372</ele>
        <time>2019-03-21T12:55:32Z</time>
      </trkpt>
      <trkpt lat="42.87346" lon="0.1734">
        <ele>2373</ele>
        <time>2019-03-21T12:55:51Z</time>
      </trkpt>
      <trkpt lat="42.87343" lon="0.17325">
        <ele>2375</ele>
        <time>2019-03-21T12:56:22Z</time>
      </trkpt>
      <trkpt lat="42.8734" lon="0.17321">
        <ele>2376</ele>
        <time>2019-03-21T12:56:27Z</time>
      </trkpt>
      <trkpt lat="42.8734" lon="0.17315">
        <ele>2377</ele>
        <time>2019-03-21T12:57:16Z</time>
      </trkpt>
      <trkpt lat="42.87338" lon="0.1731">
        <ele>2379</ele>
        <time>2019-03-21T12:57:22Z</time>
      </trkpt>
      <trkpt lat="42.87335" lon="0.17306">
        <ele>2380</ele>
        <time>2019-03-21T12:57:31Z</time>
      </trkpt>
      <trkpt lat="42.87332" lon="0.17303">
        <ele>2380</ele>
        <time>2019-03-21T12:57:36Z</time>
      </trkpt>
      <trkpt lat="42.87328" lon="0.17302">
        <ele>2381</ele>
        <time>2019-03-21T12:57:41Z</time>
      </trkpt>
      <trkpt lat="42.87328" lon="0.17292">
        <ele>2383</ele>
        <time>2019-03-21T12:57:58Z</time>
      </trkpt>
      <trkpt lat="42.87326" lon="0.17287">
        <ele>2384</ele>
        <time>2019-03-21T12:58:12Z</time>
      </trkpt>
      <trkpt lat="42.87325" lon="0.17283">
        <ele>2385</ele>
        <time>2019-03-21T12:58:20Z</time>
      </trkpt>
      <trkpt lat="42.87321" lon="0.17281">
        <ele>2387</ele>
        <time>2019-03-21T12:58:46Z</time>
      </trkpt>
      <trkpt lat="42.87319" lon="0.17271">
        <ele>2390</ele>
        <time>2019-03-21T12:59:02Z</time>
      </trkpt>
      <trkpt lat="42.87319" lon="0.17265">
        <ele>2390</ele>
        <time>2019-03-21T12:59:05Z</time>
      </trkpt>
      <trkpt lat="42.87317" lon="0.17261">
        <ele>2391</ele>
        <time>2019-03-21T12:59:11Z</time>
      </trkpt>
      <trkpt lat="42.87316" lon="0.17255">
        <ele>2391</ele>
        <time>2019-03-21T12:59:20Z</time>
      </trkpt>
      <trkpt lat="42.87314" lon="0.17251">
        <ele>2394</ele>
        <time>2019-03-21T12:59:47Z</time>
      </trkpt>
      <trkpt lat="42.87313" lon="0.17246">
        <ele>2394</ele>
        <time>2019-03-21T13:00:04Z</time>
      </trkpt>
      <trkpt lat="42.87312" lon="0.17241">
        <ele>2396</ele>
        <time>2019-03-21T13:00:09Z</time>
      </trkpt>
      <trkpt lat="42.87311" lon="0.17236">
        <ele>2397</ele>
        <time>2019-03-21T13:00:14Z</time>
      </trkpt>
      <trkpt lat="42.87309" lon="0.17232">
        <ele>2398</ele>
        <time>2019-03-21T13:01:05Z</time>
      </trkpt>
      <trkpt lat="42.87308" lon="0.17227">
        <ele>2399</ele>
        <time>2019-03-21T13:01:14Z</time>
      </trkpt>
      <trkpt lat="42.87308" lon="0.17221">
        <ele>2402</ele>
        <time>2019-03-21T13:01:22Z</time>
      </trkpt>
      <trkpt lat="42.87307" lon="0.17217">
        <ele>2402</ele>
        <time>2019-03-21T13:01:28Z</time>
      </trkpt>
      <trkpt lat="42.87305" lon="0.17206">
        <ele>2404</ele>
        <time>2019-03-21T13:01:43Z</time>
      </trkpt>
      <trkpt lat="42.87303" lon="0.17202">
        <ele>2405</ele>
        <time>2019-03-21T13:01:53Z</time>
      </trkpt>
      <trkpt lat="42.87306" lon="0.17201">
        <ele>2409</ele>
        <time>2019-03-21T13:02:52Z</time>
      </trkpt>
      <trkpt lat="42.87312" lon="0.17201">
        <ele>2410</ele>
        <time>2019-03-21T13:02:59Z</time>
      </trkpt>
      <trkpt lat="42.87319" lon="0.17199">
        <ele>2413</ele>
        <time>2019-03-21T13:03:16Z</time>
      </trkpt>
      <trkpt lat="42.87323" lon="0.17196">
        <ele>2413</ele>
        <time>2019-03-21T13:03:23Z</time>
      </trkpt>
      <trkpt lat="42.87325" lon="0.17201">
        <ele>2414</ele>
        <time>2019-03-21T13:04:00Z</time>
      </trkpt>
      <trkpt lat="42.87329" lon="0.17201">
        <ele>2416</ele>
        <time>2019-03-21T13:04:07Z</time>
      </trkpt>
      <trkpt lat="42.87338" lon="0.17203">
        <ele>2418</ele>
        <time>2019-03-21T13:04:21Z</time>
      </trkpt>
      <trkpt lat="42.87346" lon="0.17201">
        <ele>2420</ele>
        <time>2019-03-21T13:04:31Z</time>
      </trkpt>
      <trkpt lat="42.87349" lon="0.17203">
        <ele>2421</ele>
        <time>2019-03-21T13:04:41Z</time>
      </trkpt>
      <trkpt lat="42.87352" lon="0.17206">
        <ele>2422</ele>
        <time>2019-03-21T13:04:47Z</time>
      </trkpt>
      <trkpt lat="42.87355" lon="0.17205">
        <ele>2426</ele>
        <time>2019-03-21T13:06:31Z</time>
      </trkpt>
      <trkpt lat="42.87358" lon="0.17209">
        <ele>2427</ele>
        <time>2019-03-21T13:06:40Z</time>
      </trkpt>
      <trkpt lat="42.87358" lon="0.17215">
        <ele>2431</ele>
        <time>2019-03-21T13:06:59Z</time>
      </trkpt>
      <trkpt lat="42.87362" lon="0.17213">
        <ele>2435</ele>
        <time>2019-03-21T13:07:23Z</time>
      </trkpt>
      <trkpt lat="42.87363" lon="0.17213">
        <ele>2437</ele>
        <time>2019-03-21T13:08:23Z</time>
      </trkpt>
      <trkpt lat="42.87365" lon="0.17217">
        <ele>2440</ele>
        <time>2019-03-21T13:08:37Z</time>
      </trkpt>
      <trkpt lat="42.87367" lon="0.1722">
        <ele>2444</ele>
        <time>2019-03-21T13:12:50Z</time>
      </trkpt>
      <trkpt lat="42.87368" lon="0.17221">
        <ele>2448</ele>
        <time>2019-03-21T13:13:27Z</time>
      </trkpt>
      <trkpt lat="42.87369" lon="0.17219">
        <ele>2459</ele>
        <time>2019-03-21T13:24:29Z</time>
      </trkpt>
      <trkpt lat="42.87371" lon="0.17222">
        <ele>2460</ele>
        <time>2019-03-21T13:25:34Z</time>
      </trkpt>
      <trkpt lat="42.87371" lon="0.17223">
        <ele>2461</ele>
        <time>2019-03-21T13:27:19Z</time>
      </trkpt>
      <trkpt lat="42.87374" lon="0.17224">
        <ele>2461</ele>
        <time>2019-03-21T13:27:47Z</time>
      </trkpt>
      <trkpt lat="42.87376" lon="0.17221">
        <ele>2465</ele>
        <time>2019-03-21T13:27:49Z</time>
      </trkpt>
      <trkpt lat="42.87379" lon="0.17218">
        <ele>2466</ele>
        <time>2019-03-21T13:27:51Z</time>
      </trkpt>
      <trkpt lat="42.87381" lon="0.17218">
        <ele>2468</ele>
        <time>2019-03-21T13:28:47Z</time>
      </trkpt>
      <trkpt lat="42.87383" lon="0.17217">
        <ele>2468</ele>
        <time>2019-03-21T13:28:48Z</time>
      </trkpt>
      <trkpt lat="42.87387" lon="0.17218">
        <ele>2468</ele>
        <time>2019-03-21T13:28:50Z</time>
      </trkpt>
      <trkpt lat="42.87391" lon="0.17216">
        <ele>2468</ele>
        <time>2019-03-21T13:28:52Z</time>
      </trkpt>
      <trkpt lat="42.87396" lon="0.17214">
        <ele>2469</ele>
        <time>2019-03-21T13:28:54Z</time>
      </trkpt>
      <trkpt lat="42.87401" lon="0.17215">
        <ele>2469</ele>
        <time>2019-03-21T13:28:55Z</time>
      </trkpt>
      <trkpt lat="42.87405" lon="0.17215">
        <ele>2469</ele>
        <time>2019-03-21T13:28:56Z</time>
      </trkpt>
      <trkpt lat="42.87409" lon="0.17213">
        <ele>2469</ele>
        <time>2019-03-21T13:28:57Z</time>
      </trkpt>
      <trkpt lat="42.87415" lon="0.17216">
        <ele>2469</ele>
        <time>2019-03-21T13:28:58Z</time>
      </trkpt>
      <trkpt lat="42.87419" lon="0.17218">
        <ele>2469</ele>
        <time>2019-03-21T13:28:59Z</time>
      </trkpt>
      <trkpt lat="42.87422" lon="0.17217">
        <ele>2469</ele>
        <time>2019-03-21T13:29:00Z</time>
      </trkpt>
      <trkpt lat="42.87423" lon="0.17213">
        <ele>2469</ele>
        <time>2019-03-21T13:29:01Z</time>
      </trkpt>
      <trkpt lat="42.87422" lon="0.17208">
        <ele>2469</ele>
        <time>2019-03-21T13:29:02Z</time>
      </trkpt>
      <trkpt lat="42.87423" lon="0.17204">
        <ele>2469</ele>
        <time>2019-03-21T13:29:03Z</time>
      </trkpt>
      <trkpt lat="42.87426" lon="0.17202">
        <ele>2469</ele>
        <time>2019-03-21T13:29:04Z</time>
      </trkpt>
      <trkpt lat="42.87429" lon="0.17203">
        <ele>2469</ele>
        <time>2019-03-21T13:29:05Z</time>
      </trkpt>
      <trkpt lat="42.87433" lon="0.17201">
        <ele>2469</ele>
        <time>2019-03-21T13:29:07Z</time>
      </trkpt>
      <trkpt lat="42.87434" lon="0.17196">
        <ele>2469</ele>
        <time>2019-03-21T13:29:46Z</time>
      </trkpt>
      <trkpt lat="42.87437" lon="0.17193">
        <ele>2469</ele>
        <time>2019-03-21T13:30:54Z</time>
      </trkpt>
      <trkpt lat="42.87436" lon="0.17187">
        <ele>2469</ele>
        <time>2019-03-21T13:30:56Z</time>
      </trkpt>
      <trkpt lat="42.8743" lon="0.17179">
        <ele>2469</ele>
        <time>2019-03-21T13:31:00Z</time>
      </trkpt>
      <trkpt lat="42.87429" lon="0.17174">
        <ele>2469</ele>
        <time>2019-03-21T13:31:02Z</time>
      </trkpt>
      <trkpt lat="42.87433" lon="0.17172">
        <ele>2469</ele>
        <time>2019-03-21T13:31:05Z</time>
      </trkpt>
      <trkpt lat="42.8743" lon="0.17166">
        <ele>2469</ele>
        <time>2019-03-21T13:31:07Z</time>
      </trkpt>
      <trkpt lat="42.87428" lon="0.17159">
        <ele>2469</ele>
        <time>2019-03-21T13:31:09Z</time>
      </trkpt>
      <trkpt lat="42.87432" lon="0.17157">
        <ele>2469</ele>
        <time>2019-03-21T13:31:11Z</time>
      </trkpt>
      <trkpt lat="42.8743" lon="0.17141">
        <ele>2469</ele>
        <time>2019-03-21T13:31:14Z</time>
      </trkpt>
      <trkpt lat="42.87428" lon="0.17135">
        <ele>2469</ele>
        <time>2019-03-21T13:31:16Z</time>
      </trkpt>
      <trkpt lat="42.87427" lon="0.17126">
        <ele>2468</ele>
        <time>2019-03-21T13:31:18Z</time>
      </trkpt>
      <trkpt lat="42.87426" lon="0.17117">
        <ele>2468</ele>
        <time>2019-03-21T13:31:20Z</time>
      </trkpt>
      <trkpt lat="42.87428" lon="0.1711">
        <ele>2468</ele>
        <time>2019-03-21T13:31:21Z</time>
      </trkpt>
      <trkpt lat="42.87429" lon="0.17103">
        <ele>2468</ele>
        <time>2019-03-21T13:31:22Z</time>
      </trkpt>
      <trkpt lat="42.87428" lon="0.17098">
        <ele>2468</ele>
        <time>2019-03-21T13:31:23Z</time>
      </trkpt>
      <trkpt lat="42.87428" lon="0.17094">
        <ele>2468</ele>
        <time>2019-03-21T13:31:32Z</time>
      </trkpt>
      <trkpt lat="42.87431" lon="0.17092">
        <ele>2468</ele>
        <time>2019-03-21T13:31:33Z</time>
      </trkpt>
      <trkpt lat="42.87433" lon="0.17089">
        <ele>2468</ele>
        <time>2019-03-21T13:31:34Z</time>
      </trkpt>
      <trkpt lat="42.87434" lon="0.17084">
        <ele>2468</ele>
        <time>2019-03-21T13:31:37Z</time>
      </trkpt>
      <trkpt lat="42.87435" lon="0.1708">
        <ele>2468</ele>
        <time>2019-03-21T13:31:39Z</time>
      </trkpt>
      <trkpt lat="42.87439" lon="0.17069">
        <ele>2468</ele>
        <time>2019-03-21T13:31:44Z</time>
      </trkpt>
      <trkpt lat="42.87442" lon="0.17061">
        <ele>2468</ele>
        <time>2019-03-21T13:31:47Z</time>
      </trkpt>
      <trkpt lat="42.87446" lon="0.17064">
        <ele>2468</ele>
        <time>2019-03-21T13:31:50Z</time>
      </trkpt>
      <trkpt lat="42.87447" lon="0.17068">
        <ele>2468</ele>
        <time>2019-03-21T13:31:52Z</time>
      </trkpt>
      <trkpt lat="42.8746" lon="0.17083">
        <ele>2466</ele>
        <time>2019-03-21T13:31:58Z</time>
      </trkpt>
      <trkpt lat="42.87466" lon="0.17088">
        <ele>2465</ele>
        <time>2019-03-21T13:32:00Z</time>
      </trkpt>
      <trkpt lat="42.87474" lon="0.17093">
        <ele>2464</ele>
        <time>2019-03-21T13:32:03Z</time>
      </trkpt>
      <trkpt lat="42.87479" lon="0.17084">
        <ele>2463</ele>
        <time>2019-03-21T13:32:11Z</time>
      </trkpt>
      <trkpt lat="42.87488" lon="0.17082">
        <ele>2459</ele>
        <time>2019-03-21T13:32:28Z</time>
      </trkpt>
      <trkpt lat="42.87493" lon="0.17089">
        <ele>2451</ele>
        <time>2019-03-21T13:33:51Z</time>
      </trkpt>
      <trkpt lat="42.87494" lon="0.17085">
        <ele>2437</ele>
        <time>2019-03-21T13:35:01Z</time>
      </trkpt>
      <trkpt lat="42.87494" lon="0.17082">
        <ele>2436</ele>
        <time>2019-03-21T13:35:02Z</time>
      </trkpt>
      <trkpt lat="42.87493" lon="0.17079">
        <ele>2435</ele>
        <time>2019-03-21T13:35:03Z</time>
      </trkpt>
      <trkpt lat="42.87495" lon="0.17073">
        <ele>2432</ele>
        <time>2019-03-21T13:35:07Z</time>
      </trkpt>
      <trkpt lat="42.87497" lon="0.17069">
        <ele>2428</ele>
        <time>2019-03-21T13:35:08Z</time>
      </trkpt>
      <trkpt lat="42.87499" lon="0.1707">
        <ele>2427</ele>
        <time>2019-03-21T13:35:09Z</time>
      </trkpt>
      <trkpt lat="42.87503" lon="0.17067">
        <ele>2424</ele>
        <time>2019-03-21T13:35:10Z</time>
      </trkpt>
      <trkpt lat="42.87507" lon="0.17061">
        <ele>2422</ele>
        <time>2019-03-21T13:35:11Z</time>
      </trkpt>
      <trkpt lat="42.87512" lon="0.17059">
        <ele>2421</ele>
        <time>2019-03-21T13:35:13Z</time>
      </trkpt>
      <trkpt lat="42.87514" lon="0.17054">
        <ele>2420</ele>
        <time>2019-03-21T13:35:14Z</time>
      </trkpt>
      <trkpt lat="42.87516" lon="0.17048">
        <ele>2419</ele>
        <time>2019-03-21T13:35:15Z</time>
      </trkpt>
      <trkpt lat="42.87518" lon="0.17042">
        <ele>2419</ele>
        <time>2019-03-21T13:35:17Z</time>
      </trkpt>
      <trkpt lat="42.87525" lon="0.17037">
        <ele>2416</ele>
        <time>2019-03-21T13:35:19Z</time>
      </trkpt>
      <trkpt lat="42.87526" lon="0.17031">
        <ele>2415</ele>
        <time>2019-03-21T13:35:20Z</time>
      </trkpt>
      <trkpt lat="42.87526" lon="0.17026">
        <ele>2413</ele>
        <time>2019-03-21T13:35:21Z</time>
      </trkpt>
      <trkpt lat="42.8753" lon="0.17022">
        <ele>2412</ele>
        <time>2019-03-21T13:35:22Z</time>
      </trkpt>
      <trkpt lat="42.87533" lon="0.17015">
        <ele>2410</ele>
        <time>2019-03-21T13:35:23Z</time>
      </trkpt>
      <trkpt lat="42.87533" lon="0.17009">
        <ele>2409</ele>
        <time>2019-03-21T13:35:24Z</time>
      </trkpt>
      <trkpt lat="42.87538" lon="0.17001">
        <ele>2407</ele>
        <time>2019-03-21T13:35:26Z</time>
      </trkpt>
      <trkpt lat="42.87538" lon="0.16994">
        <ele>2406</ele>
        <time>2019-03-21T13:35:27Z</time>
      </trkpt>
      <trkpt lat="42.87546" lon="0.16997">
        <ele>2404</ele>
        <time>2019-03-21T13:36:41Z</time>
      </trkpt>
      <trkpt lat="42.87548" lon="0.17">
        <ele>2402</ele>
        <time>2019-03-21T13:37:23Z</time>
      </trkpt>
      <trkpt lat="42.8755" lon="0.17002">
        <ele>2401</ele>
        <time>2019-03-21T13:38:33Z</time>
      </trkpt>
      <trkpt lat="42.87553" lon="0.17005">
        <ele>2398</ele>
        <time>2019-03-21T13:39:02Z</time>
      </trkpt>
      <trkpt lat="42.87553" lon="0.17008">
        <ele>2397</ele>
        <time>2019-03-21T13:39:24Z</time>
      </trkpt>
      <trkpt lat="42.87554" lon="0.1701">
        <ele>2397</ele>
        <time>2019-03-21T13:39:28Z</time>
      </trkpt>
      <trkpt lat="42.87557" lon="0.17007">
        <ele>2395</ele>
        <time>2019-03-21T13:39:41Z</time>
      </trkpt>
      <trkpt lat="42.87558" lon="0.17002">
        <ele>2394</ele>
        <time>2019-03-21T13:39:42Z</time>
      </trkpt>
      <trkpt lat="42.87558" lon="0.16997">
        <ele>2393</ele>
        <time>2019-03-21T13:39:43Z</time>
      </trkpt>
      <trkpt lat="42.87557" lon="0.16992">
        <ele>2393</ele>
        <time>2019-03-21T13:39:44Z</time>
      </trkpt>
      <trkpt lat="42.87559" lon="0.16987">
        <ele>2391</ele>
        <time>2019-03-21T13:39:45Z</time>
      </trkpt>
      <trkpt lat="42.8756" lon="0.16981">
        <ele>2390</ele>
        <time>2019-03-21T13:39:46Z</time>
      </trkpt>
      <trkpt lat="42.8756" lon="0.16976">
        <ele>2389</ele>
        <time>2019-03-21T13:39:47Z</time>
      </trkpt>
      <trkpt lat="42.87563" lon="0.16971">
        <ele>2388</ele>
        <time>2019-03-21T13:39:48Z</time>
      </trkpt>
      <trkpt lat="42.87566" lon="0.16967">
        <ele>2386</ele>
        <time>2019-03-21T13:39:49Z</time>
      </trkpt>
      <trkpt lat="42.87566" lon="0.16962">
        <ele>2385</ele>
        <time>2019-03-21T13:39:50Z</time>
      </trkpt>
      <trkpt lat="42.87569" lon="0.16959">
        <ele>2384</ele>
        <time>2019-03-21T13:39:51Z</time>
      </trkpt>
      <trkpt lat="42.87572" lon="0.16954">
        <ele>2383</ele>
        <time>2019-03-21T13:39:52Z</time>
      </trkpt>
      <trkpt lat="42.87573" lon="0.16949">
        <ele>2383</ele>
        <time>2019-03-21T13:39:53Z</time>
      </trkpt>
      <trkpt lat="42.87576" lon="0.16945">
        <ele>2382</ele>
        <time>2019-03-21T13:39:54Z</time>
      </trkpt>
      <trkpt lat="42.87579" lon="0.16943">
        <ele>2382</ele>
        <time>2019-03-21T13:39:55Z</time>
      </trkpt>
      <trkpt lat="42.87581" lon="0.16939">
        <ele>2382</ele>
        <time>2019-03-21T13:39:56Z</time>
      </trkpt>
      <trkpt lat="42.8758" lon="0.16936">
        <ele>2382</ele>
        <time>2019-03-21T13:39:57Z</time>
      </trkpt>
      <trkpt lat="42.87579" lon="0.16935">
        <ele>2382</ele>
        <time>2019-03-21T13:39:58Z</time>
      </trkpt>
      <trkpt lat="42.87581" lon="0.16933">
        <ele>2381</ele>
        <time>2019-03-21T13:40:37Z</time>
      </trkpt>
      <trkpt lat="42.87582" lon="0.16931">
        <ele>2381</ele>
        <time>2019-03-21T13:40:47Z</time>
      </trkpt>
      <trkpt lat="42.87582" lon="0.16928">
        <ele>2381</ele>
        <time>2019-03-21T13:40:48Z</time>
      </trkpt>
      <trkpt lat="42.87584" lon="0.16925">
        <ele>2380</ele>
        <time>2019-03-21T13:40:49Z</time>
      </trkpt>
      <trkpt lat="42.87588" lon="0.16925">
        <ele>2380</ele>
        <time>2019-03-21T13:40:51Z</time>
      </trkpt>
      <trkpt lat="42.87588" lon="0.16921">
        <ele>2380</ele>
        <time>2019-03-21T13:40:52Z</time>
      </trkpt>
      <trkpt lat="42.87588" lon="0.16917">
        <ele>2380</ele>
        <time>2019-03-21T13:40:53Z</time>
      </trkpt>
      <trkpt lat="42.87588" lon="0.16914">
        <ele>2380</ele>
        <time>2019-03-21T13:40:54Z</time>
      </trkpt>
      <trkpt lat="42.87589" lon="0.16911">
        <ele>2380</ele>
        <time>2019-03-21T13:40:55Z</time>
      </trkpt>
      <trkpt lat="42.87592" lon="0.1691">
        <ele>2379</ele>
        <time>2019-03-21T13:40:56Z</time>
      </trkpt>
      <trkpt lat="42.87591" lon="0.16904">
        <ele>2379</ele>
        <time>2019-03-21T13:40:58Z</time>
      </trkpt>
      <trkpt lat="42.87592" lon="0.16899">
        <ele>2378</ele>
        <time>2019-03-21T13:40:59Z</time>
      </trkpt>
      <trkpt lat="42.87595" lon="0.16895">
        <ele>2378</ele>
        <time>2019-03-21T13:41:00Z</time>
      </trkpt>
      <trkpt lat="42.87599" lon="0.16894">
        <ele>2377</ele>
        <time>2019-03-21T13:41:01Z</time>
      </trkpt>
      <trkpt lat="42.87599" lon="0.16889">
        <ele>2377</ele>
        <time>2019-03-21T13:41:02Z</time>
      </trkpt>
      <trkpt lat="42.87598" lon="0.16885">
        <ele>2377</ele>
        <time>2019-03-21T13:41:03Z</time>
      </trkpt>
      <trkpt lat="42.87598" lon="0.1688">
        <ele>2377</ele>
        <time>2019-03-21T13:41:04Z</time>
      </trkpt>
      <trkpt lat="42.87599" lon="0.16877">
        <ele>2377</ele>
        <time>2019-03-21T13:41:05Z</time>
      </trkpt>
      <trkpt lat="42.87602" lon="0.16875">
        <ele>2376</ele>
        <time>2019-03-21T13:41:06Z</time>
      </trkpt>
      <trkpt lat="42.87598" lon="0.16864">
        <ele>2376</ele>
        <time>2019-03-21T13:41:08Z</time>
      </trkpt>
      <trkpt lat="42.87596" lon="0.16854">
        <ele>2375</ele>
        <time>2019-03-21T13:41:10Z</time>
      </trkpt>
      <trkpt lat="42.87598" lon="0.16848">
        <ele>2375</ele>
        <time>2019-03-21T13:41:11Z</time>
      </trkpt>
      <trkpt lat="42.87601" lon="0.16844">
        <ele>2374</ele>
        <time>2019-03-21T13:41:12Z</time>
      </trkpt>
      <trkpt lat="42.87602" lon="0.16837">
        <ele>2373</ele>
        <time>2019-03-21T13:41:13Z</time>
      </trkpt>
      <trkpt lat="42.87599" lon="0.16816">
        <ele>2371</ele>
        <time>2019-03-21T13:41:16Z</time>
      </trkpt>
      <trkpt lat="42.87597" lon="0.16809">
        <ele>2371</ele>
        <time>2019-03-21T13:41:17Z</time>
      </trkpt>
      <trkpt lat="42.87597" lon="0.16804">
        <ele>2370</ele>
        <time>2019-03-21T13:41:18Z</time>
      </trkpt>
      <trkpt lat="42.87601" lon="0.168">
        <ele>2369</ele>
        <time>2019-03-21T13:41:19Z</time>
      </trkpt>
      <trkpt lat="42.87602" lon="0.16793">
        <ele>2368</ele>
        <time>2019-03-21T13:41:20Z</time>
      </trkpt>
      <trkpt lat="42.87602" lon="0.16787">
        <ele>2367</ele>
        <time>2019-03-21T13:41:21Z</time>
      </trkpt>
      <trkpt lat="42.87611" lon="0.16756">
        <ele>2362</ele>
        <time>2019-03-21T13:41:25Z</time>
      </trkpt>
      <trkpt lat="42.87617" lon="0.16739">
        <ele>2358</ele>
        <time>2019-03-21T13:41:27Z</time>
      </trkpt>
      <trkpt lat="42.87621" lon="0.16724">
        <ele>2355</ele>
        <time>2019-03-21T13:41:29Z</time>
      </trkpt>
      <trkpt lat="42.87634" lon="0.1669">
        <ele>2345</ele>
        <time>2019-03-21T13:41:35Z</time>
      </trkpt>
      <trkpt lat="42.87636" lon="0.16682">
        <ele>2344</ele>
        <time>2019-03-21T13:41:37Z</time>
      </trkpt>
      <trkpt lat="42.87643" lon="0.16682">
        <ele>2343</ele>
        <time>2019-03-21T13:41:39Z</time>
      </trkpt>
      <trkpt lat="42.87651" lon="0.16674">
        <ele>2340</ele>
        <time>2019-03-21T13:41:41Z</time>
      </trkpt>
      <trkpt lat="42.87657" lon="0.1667">
        <ele>2338</ele>
        <time>2019-03-21T13:41:42Z</time>
      </trkpt>
      <trkpt lat="42.87663" lon="0.16668">
        <ele>2337</ele>
        <time>2019-03-21T13:41:43Z</time>
      </trkpt>
      <trkpt lat="42.87667" lon="0.16669">
        <ele>2335</ele>
        <time>2019-03-21T13:41:57Z</time>
      </trkpt>
      <trkpt lat="42.8767" lon="0.16674">
        <ele>2334</ele>
        <time>2019-03-21T13:42:23Z</time>
      </trkpt>
      <trkpt lat="42.8767" lon="0.16679">
        <ele>2331</ele>
        <time>2019-03-21T13:43:00Z</time>
      </trkpt>
      <trkpt lat="42.87672" lon="0.16679">
        <ele>2328</ele>
        <time>2019-03-21T13:43:21Z</time>
      </trkpt>
      <trkpt lat="42.87673" lon="0.16676">
        <ele>2325</ele>
        <time>2019-03-21T13:43:53Z</time>
      </trkpt>
      <trkpt lat="42.87674" lon="0.16622">
        <ele>2315</ele>
        <time>2019-03-21T13:44:13Z</time>
      </trkpt>
      <trkpt lat="42.87673" lon="0.16616">
        <ele>2314</ele>
        <time>2019-03-21T13:44:14Z</time>
      </trkpt>
      <trkpt lat="42.87672" lon="0.16609">
        <ele>2312</ele>
        <time>2019-03-21T13:44:15Z</time>
      </trkpt>
      <trkpt lat="42.87674" lon="0.16603">
        <ele>2312</ele>
        <time>2019-03-21T13:44:16Z</time>
      </trkpt>
      <trkpt lat="42.87673" lon="0.16592">
        <ele>2309</ele>
        <time>2019-03-21T13:44:18Z</time>
      </trkpt>
      <trkpt lat="42.87674" lon="0.16571">
        <ele>2307</ele>
        <time>2019-03-21T13:44:21Z</time>
      </trkpt>
      <trkpt lat="42.87676" lon="0.16555">
        <ele>2307</ele>
        <time>2019-03-21T13:44:23Z</time>
      </trkpt>
      <trkpt lat="42.87678" lon="0.16534">
        <ele>2306</ele>
        <time>2019-03-21T13:44:26Z</time>
      </trkpt>
      <trkpt lat="42.87677" lon="0.16528">
        <ele>2306</ele>
        <time>2019-03-21T13:44:27Z</time>
      </trkpt>
      <trkpt lat="42.87676" lon="0.16523">
        <ele>2305</ele>
        <time>2019-03-21T13:44:28Z</time>
      </trkpt>
      <trkpt lat="42.87677" lon="0.16446">
        <ele>2303</ele>
        <time>2019-03-21T13:44:42Z</time>
      </trkpt>
      <trkpt lat="42.87677" lon="0.16441">
        <ele>2303</ele>
        <time>2019-03-21T13:44:45Z</time>
      </trkpt>
      <trkpt lat="42.87675" lon="0.16397">
        <ele>2302</ele>
        <time>2019-03-21T13:45:02Z</time>
      </trkpt>
      <trkpt lat="42.87689" lon="0.16344">
        <ele>2300</ele>
        <time>2019-03-21T13:45:49Z</time>
      </trkpt>
      <trkpt lat="42.8769" lon="0.16341">
        <ele>2300</ele>
        <time>2019-03-21T13:45:52Z</time>
      </trkpt>
      <trkpt lat="42.87692" lon="0.16339">
        <ele>2300</ele>
        <time>2019-03-21T13:45:54Z</time>
      </trkpt>
      <trkpt lat="42.87694" lon="0.16333">
        <ele>2299</ele>
        <time>2019-03-21T13:45:58Z</time>
      </trkpt>
      <trkpt lat="42.87695" lon="0.16331">
        <ele>2299</ele>
        <time>2019-03-21T13:46:00Z</time>
      </trkpt>
      <trkpt lat="42.87695" lon="0.16328">
        <ele>2299</ele>
        <time>2019-03-21T13:46:02Z</time>
      </trkpt>
      <trkpt lat="42.87694" lon="0.16325">
        <ele>2298</ele>
        <time>2019-03-21T13:46:25Z</time>
      </trkpt>
      <trkpt lat="42.87696" lon="0.16316">
        <ele>2297</ele>
        <time>2019-03-21T13:46:29Z</time>
      </trkpt>
      <trkpt lat="42.87697" lon="0.16312">
        <ele>2297</ele>
        <time>2019-03-21T13:46:30Z</time>
      </trkpt>
      <trkpt lat="42.877" lon="0.1631">
        <ele>2297</ele>
        <time>2019-03-21T13:46:31Z</time>
      </trkpt>
      <trkpt lat="42.87702" lon="0.16307">
        <ele>2297</ele>
        <time>2019-03-21T13:46:32Z</time>
      </trkpt>
      <trkpt lat="42.87702" lon="0.16303">
        <ele>2297</ele>
        <time>2019-03-21T13:46:33Z</time>
      </trkpt>
      <trkpt lat="42.87704" lon="0.16299">
        <ele>2297</ele>
        <time>2019-03-21T13:46:34Z</time>
      </trkpt>
      <trkpt lat="42.87708" lon="0.16291">
        <ele>2297</ele>
        <time>2019-03-21T13:46:36Z</time>
      </trkpt>
      <trkpt lat="42.8771" lon="0.16288">
        <ele>2296</ele>
        <time>2019-03-21T13:46:37Z</time>
      </trkpt>
      <trkpt lat="42.87713" lon="0.16283">
        <ele>2296</ele>
        <time>2019-03-21T13:46:38Z</time>
      </trkpt>
      <trkpt lat="42.87713" lon="0.16279">
        <ele>2296</ele>
        <time>2019-03-21T13:46:39Z</time>
      </trkpt>
      <trkpt lat="42.87715" lon="0.16275">
        <ele>2296</ele>
        <time>2019-03-21T13:46:40Z</time>
      </trkpt>
      <trkpt lat="42.87718" lon="0.16271">
        <ele>2295</ele>
        <time>2019-03-21T13:46:41Z</time>
      </trkpt>
      <trkpt lat="42.8772" lon="0.16265">
        <ele>2294</ele>
        <time>2019-03-21T13:46:42Z</time>
      </trkpt>
      <trkpt lat="42.87724" lon="0.16262">
        <ele>2294</ele>
        <time>2019-03-21T13:46:43Z</time>
      </trkpt>
      <trkpt lat="42.87726" lon="0.16258">
        <ele>2294</ele>
        <time>2019-03-21T13:46:44Z</time>
      </trkpt>
      <trkpt lat="42.87726" lon="0.16253">
        <ele>2293</ele>
        <time>2019-03-21T13:46:45Z</time>
      </trkpt>
      <trkpt lat="42.87728" lon="0.16247">
        <ele>2293</ele>
        <time>2019-03-21T13:46:46Z</time>
      </trkpt>
      <trkpt lat="42.87729" lon="0.16241">
        <ele>2292</ele>
        <time>2019-03-21T13:46:47Z</time>
      </trkpt>
      <trkpt lat="42.87728" lon="0.16234">
        <ele>2292</ele>
        <time>2019-03-21T13:46:48Z</time>
      </trkpt>
      <trkpt lat="42.8773" lon="0.16229">
        <ele>2292</ele>
        <time>2019-03-21T13:46:49Z</time>
      </trkpt>
      <trkpt lat="42.87731" lon="0.16223">
        <ele>2291</ele>
        <time>2019-03-21T13:46:50Z</time>
      </trkpt>
      <trkpt lat="42.87731" lon="0.16217">
        <ele>2290</ele>
        <time>2019-03-21T13:46:51Z</time>
      </trkpt>
      <trkpt lat="42.87733" lon="0.1621">
        <ele>2290</ele>
        <time>2019-03-21T13:46:52Z</time>
      </trkpt>
      <trkpt lat="42.87733" lon="0.16205">
        <ele>2289</ele>
        <time>2019-03-21T13:46:53Z</time>
      </trkpt>
      <trkpt lat="42.87732" lon="0.16198">
        <ele>2288</ele>
        <time>2019-03-21T13:46:54Z</time>
      </trkpt>
      <trkpt lat="42.87734" lon="0.16193">
        <ele>2287</ele>
        <time>2019-03-21T13:46:55Z</time>
      </trkpt>
      <trkpt lat="42.87738" lon="0.16153">
        <ele>2280</ele>
        <time>2019-03-21T13:47:01Z</time>
      </trkpt>
      <trkpt lat="42.8774" lon="0.16125">
        <ele>2275</ele>
        <time>2019-03-21T13:47:05Z</time>
      </trkpt>
      <trkpt lat="42.87742" lon="0.16113">
        <ele>2274</ele>
        <time>2019-03-21T13:47:08Z</time>
      </trkpt>
      <trkpt lat="42.87742" lon="0.16109">
        <ele>2273</ele>
        <time>2019-03-21T13:47:10Z</time>
      </trkpt>
      <trkpt lat="42.87742" lon="0.1611">
        <ele>2270</ele>
        <time>2019-03-21T13:48:42Z</time>
      </trkpt>
      <trkpt lat="42.87742" lon="0.16113">
        <ele>2269</ele>
        <time>2019-03-21T13:48:51Z</time>
      </trkpt>
      <trkpt lat="42.87746" lon="0.16113">
        <ele>2266</ele>
        <time>2019-03-21T13:49:20Z</time>
      </trkpt>
      <trkpt lat="42.87745" lon="0.16095">
        <ele>2259</ele>
        <time>2019-03-21T13:50:25Z</time>
      </trkpt>
      <trkpt lat="42.87745" lon="0.16088">
        <ele>2258</ele>
        <time>2019-03-21T13:50:27Z</time>
      </trkpt>
      <trkpt lat="42.87745" lon="0.16085">
        <ele>2258</ele>
        <time>2019-03-21T13:50:28Z</time>
      </trkpt>
      <trkpt lat="42.87747" lon="0.16079">
        <ele>2257</ele>
        <time>2019-03-21T13:50:30Z</time>
      </trkpt>
      <trkpt lat="42.87748" lon="0.16074">
        <ele>2257</ele>
        <time>2019-03-21T13:50:31Z</time>
      </trkpt>
      <trkpt lat="42.87747" lon="0.16069">
        <ele>2257</ele>
        <time>2019-03-21T13:50:32Z</time>
      </trkpt>
      <trkpt lat="42.87748" lon="0.16064">
        <ele>2257</ele>
        <time>2019-03-21T13:50:33Z</time>
      </trkpt>
      <trkpt lat="42.87749" lon="0.16059">
        <ele>2256</ele>
        <time>2019-03-21T13:50:34Z</time>
      </trkpt>
      <trkpt lat="42.87749" lon="0.16053">
        <ele>2254</ele>
        <time>2019-03-21T13:50:35Z</time>
      </trkpt>
      <trkpt lat="42.87747" lon="0.15986">
        <ele>2249</ele>
        <time>2019-03-21T13:50:44Z</time>
      </trkpt>
      <trkpt lat="42.8775" lon="0.15884">
        <ele>2246</ele>
        <time>2019-03-21T13:51:01Z</time>
      </trkpt>
      <trkpt lat="42.87741" lon="0.15812">
        <ele>2245</ele>
        <time>2019-03-21T13:51:16Z</time>
      </trkpt>
      <trkpt lat="42.87737" lon="0.1579">
        <ele>2245</ele>
        <time>2019-03-21T13:51:20Z</time>
      </trkpt>
      <trkpt lat="42.87735" lon="0.15765">
        <ele>2244</ele>
        <time>2019-03-21T13:51:24Z</time>
      </trkpt>
      <trkpt lat="42.87732" lon="0.15752">
        <ele>2243</ele>
        <time>2019-03-21T13:51:26Z</time>
      </trkpt>
      <trkpt lat="42.87729" lon="0.15744">
        <ele>2243</ele>
        <time>2019-03-21T13:51:28Z</time>
      </trkpt>
      <trkpt lat="42.87704" lon="0.15701">
        <ele>2242</ele>
        <time>2019-03-21T13:51:56Z</time>
      </trkpt>
      <trkpt lat="42.87701" lon="0.15696">
        <ele>2242</ele>
        <time>2019-03-21T13:52:01Z</time>
      </trkpt>
      <trkpt lat="42.87699" lon="0.15693">
        <ele>2242</ele>
        <time>2019-03-21T13:52:05Z</time>
      </trkpt>
      <trkpt lat="42.87698" lon="0.1569">
        <ele>2241</ele>
        <time>2019-03-21T13:52:10Z</time>
      </trkpt>
      <trkpt lat="42.87695" lon="0.15687">
        <ele>2241</ele>
        <time>2019-03-21T13:52:14Z</time>
      </trkpt>
      <trkpt lat="42.87695" lon="0.15685">
        <ele>2241</ele>
        <time>2019-03-21T13:52:16Z</time>
      </trkpt>
      <trkpt lat="42.87694" lon="0.15683">
        <ele>2241</ele>
        <time>2019-03-21T13:52:19Z</time>
      </trkpt>
      <trkpt lat="42.87694" lon="0.15681">
        <ele>2241</ele>
        <time>2019-03-21T13:52:22Z</time>
      </trkpt>
      <trkpt lat="42.87692" lon="0.15675">
        <ele>2240</ele>
        <time>2019-03-21T13:52:26Z</time>
      </trkpt>
      <trkpt lat="42.8768" lon="0.15632">
        <ele>2238</ele>
        <time>2019-03-21T13:52:56Z</time>
      </trkpt>
      <trkpt lat="42.8768" lon="0.15629">
        <ele>2238</ele>
        <time>2019-03-21T13:52:58Z</time>
      </trkpt>
      <trkpt lat="42.87677" lon="0.15628">
        <ele>2238</ele>
        <time>2019-03-21T13:53:24Z</time>
      </trkpt>
      <trkpt lat="42.87674" lon="0.15625">
        <ele>2237</ele>
        <time>2019-03-21T13:53:26Z</time>
      </trkpt>
      <trkpt lat="42.87671" lon="0.15623">
        <ele>2237</ele>
        <time>2019-03-21T13:53:28Z</time>
      </trkpt>
      <trkpt lat="42.87668" lon="0.15624">
        <ele>2237</ele>
        <time>2019-03-21T13:53:29Z</time>
      </trkpt>
      <trkpt lat="42.87665" lon="0.15623">
        <ele>2237</ele>
        <time>2019-03-21T13:53:30Z</time>
      </trkpt>
      <trkpt lat="42.87653" lon="0.15584">
        <ele>2233</ele>
        <time>2019-03-21T13:53:38Z</time>
      </trkpt>
      <trkpt lat="42.87652" lon="0.15566">
        <ele>2232</ele>
        <time>2019-03-21T13:53:41Z</time>
      </trkpt>
      <trkpt lat="42.87658" lon="0.15543">
        <ele>2231</ele>
        <time>2019-03-21T13:53:57Z</time>
      </trkpt>
      <trkpt lat="42.87663" lon="0.15533">
        <ele>2230</ele>
        <time>2019-03-21T13:54:17Z</time>
      </trkpt>
      <trkpt lat="42.87662" lon="0.15531">
        <ele>2229</ele>
        <time>2019-03-21T13:54:28Z</time>
      </trkpt>
      <trkpt lat="42.87663" lon="0.15528">
        <ele>2229</ele>
        <time>2019-03-21T13:54:59Z</time>
      </trkpt>
      <trkpt lat="42.87665" lon="0.15524">
        <ele>2227</ele>
        <time>2019-03-21T13:55:04Z</time>
      </trkpt>
      <trkpt lat="42.87667" lon="0.15521">
        <ele>2226</ele>
        <time>2019-03-21T13:55:07Z</time>
      </trkpt>
      <trkpt lat="42.87678" lon="0.15497">
        <ele>2223</ele>
        <time>2019-03-21T13:55:13Z</time>
      </trkpt>
      <trkpt lat="42.8769" lon="0.15462">
        <ele>2219</ele>
        <time>2019-03-21T13:55:18Z</time>
      </trkpt>
      <trkpt lat="42.8769" lon="0.15455">
        <ele>2219</ele>
        <time>2019-03-21T13:55:21Z</time>
      </trkpt>
      <trkpt lat="42.87694" lon="0.15444">
        <ele>2219</ele>
        <time>2019-03-21T13:55:26Z</time>
      </trkpt>
      <trkpt lat="42.87694" lon="0.15442">
        <ele>2219</ele>
        <time>2019-03-21T13:55:27Z</time>
      </trkpt>
      <trkpt lat="42.87695" lon="0.1544">
        <ele>2219</ele>
        <time>2019-03-21T13:55:28Z</time>
      </trkpt>
      <trkpt lat="42.87698" lon="0.15436">
        <ele>2218</ele>
        <time>2019-03-21T13:55:32Z</time>
      </trkpt>
      <trkpt lat="42.87701" lon="0.15432">
        <ele>2218</ele>
        <time>2019-03-21T13:55:35Z</time>
      </trkpt>
      <trkpt lat="42.87703" lon="0.15427">
        <ele>2218</ele>
        <time>2019-03-21T13:55:37Z</time>
      </trkpt>
      <trkpt lat="42.87702" lon="0.15421">
        <ele>2218</ele>
        <time>2019-03-21T13:55:39Z</time>
      </trkpt>
      <trkpt lat="42.87699" lon="0.15417">
        <ele>2218</ele>
        <time>2019-03-21T13:55:40Z</time>
      </trkpt>
      <trkpt lat="42.877" lon="0.1541">
        <ele>2218</ele>
        <time>2019-03-21T13:55:42Z</time>
      </trkpt>
      <trkpt lat="42.87696" lon="0.15408">
        <ele>2218</ele>
        <time>2019-03-21T13:55:44Z</time>
      </trkpt>
      <trkpt lat="42.87692" lon="0.15403">
        <ele>2218</ele>
        <time>2019-03-21T13:55:46Z</time>
      </trkpt>
      <trkpt lat="42.87692" lon="0.15398">
        <ele>2217</ele>
        <time>2019-03-21T13:55:48Z</time>
      </trkpt>
      <trkpt lat="42.87692" lon="0.15394">
        <ele>2217</ele>
        <time>2019-03-21T13:55:49Z</time>
      </trkpt>
      <trkpt lat="42.8769" lon="0.15392">
        <ele>2217</ele>
        <time>2019-03-21T13:55:50Z</time>
      </trkpt>
      <trkpt lat="42.87688" lon="0.15387">
        <ele>2217</ele>
        <time>2019-03-21T13:55:51Z</time>
      </trkpt>
      <trkpt lat="42.8768" lon="0.15338">
        <ele>2214</ele>
        <time>2019-03-21T13:55:57Z</time>
      </trkpt>
      <trkpt lat="42.87677" lon="0.15269">
        <ele>2213</ele>
        <time>2019-03-21T13:56:10Z</time>
      </trkpt>
      <trkpt lat="42.87683" lon="0.15192">
        <ele>2210</ele>
        <time>2019-03-21T13:56:21Z</time>
      </trkpt>
      <trkpt lat="42.87699" lon="0.15147">
        <ele>2209</ele>
        <time>2019-03-21T13:56:32Z</time>
      </trkpt>
      <trkpt lat="42.877" lon="0.15139">
        <ele>2209</ele>
        <time>2019-03-21T13:56:35Z</time>
      </trkpt>
      <trkpt lat="42.877" lon="0.15131">
        <ele>2209</ele>
        <time>2019-03-21T13:56:38Z</time>
      </trkpt>
      <trkpt lat="42.87705" lon="0.15101">
        <ele>2208</ele>
        <time>2019-03-21T13:56:52Z</time>
      </trkpt>
      <trkpt lat="42.87704" lon="0.15102">
        <ele>2207</ele>
        <time>2019-03-21T13:57:27Z</time>
      </trkpt>
      <trkpt lat="42.87707" lon="0.151">
        <ele>2205</ele>
        <time>2019-03-21T13:58:25Z</time>
      </trkpt>
      <trkpt lat="42.87713" lon="0.15096">
        <ele>2203</ele>
        <time>2019-03-21T13:58:30Z</time>
      </trkpt>
      <trkpt lat="42.87719" lon="0.15084">
        <ele>2201</ele>
        <time>2019-03-21T13:58:34Z</time>
      </trkpt>
      <trkpt lat="42.8772" lon="0.1508">
        <ele>2201</ele>
        <time>2019-03-21T13:58:35Z</time>
      </trkpt>
      <trkpt lat="42.8772" lon="0.15074">
        <ele>2201</ele>
        <time>2019-03-21T13:58:37Z</time>
      </trkpt>
      <trkpt lat="42.8772" lon="0.1507">
        <ele>2200</ele>
        <time>2019-03-21T13:58:38Z</time>
      </trkpt>
      <trkpt lat="42.87724" lon="0.15064">
        <ele>2199</ele>
        <time>2019-03-21T13:58:46Z</time>
      </trkpt>
      <trkpt lat="42.87726" lon="0.15062">
        <ele>2199</ele>
        <time>2019-03-21T13:58:48Z</time>
      </trkpt>
      <trkpt lat="42.87729" lon="0.15061">
        <ele>2198</ele>
        <time>2019-03-21T13:58:51Z</time>
      </trkpt>
      <trkpt lat="42.87732" lon="0.15059">
        <ele>2195</ele>
        <time>2019-03-21T13:59:49Z</time>
      </trkpt>
      <trkpt lat="42.87731" lon="0.15061">
        <ele>2193</ele>
        <time>2019-03-21T14:00:57Z</time>
      </trkpt>
      <trkpt lat="42.8773" lon="0.1506">
        <ele>2192</ele>
        <time>2019-03-21T14:02:02Z</time>
      </trkpt>
      <trkpt lat="42.87727" lon="0.15059">
        <ele>2189</ele>
        <time>2019-03-21T14:02:28Z</time>
      </trkpt>
      <trkpt lat="42.8773" lon="0.15057">
        <ele>2187</ele>
        <time>2019-03-21T14:02:39Z</time>
      </trkpt>
      <trkpt lat="42.87733" lon="0.15062">
        <ele>2187</ele>
        <time>2019-03-21T14:02:52Z</time>
      </trkpt>
      <trkpt lat="42.87731" lon="0.15063">
        <ele>2184</ele>
        <time>2019-03-21T14:04:49Z</time>
      </trkpt>
      <trkpt lat="42.87733" lon="0.15063">
        <ele>2182</ele>
        <time>2019-03-21T14:06:52Z</time>
      </trkpt>
      <trkpt lat="42.87734" lon="0.15063">
        <ele>2181</ele>
        <time>2019-03-21T14:07:49Z</time>
      </trkpt>
      <trkpt lat="42.87733" lon="0.15063">
        <ele>2181</ele>
        <time>2019-03-21T14:08:38Z</time>
      </trkpt>
      <trkpt lat="42.87732" lon="0.15058">
        <ele>2181</ele>
        <time>2019-03-21T14:08:40Z</time>
      </trkpt>
      <trkpt lat="42.87732" lon="0.15055">
        <ele>2177</ele>
        <time>2019-03-21T14:08:41Z</time>
      </trkpt>
      <trkpt lat="42.87733" lon="0.15051">
        <ele>2176</ele>
        <time>2019-03-21T14:08:42Z</time>
      </trkpt>
      <trkpt lat="42.87734" lon="0.15049">
        <ele>2175</ele>
        <time>2019-03-21T14:08:43Z</time>
      </trkpt>
      <trkpt lat="42.87736" lon="0.15048">
        <ele>2175</ele>
        <time>2019-03-21T14:08:44Z</time>
      </trkpt>
      <trkpt lat="42.87736" lon="0.15045">
        <ele>2174</ele>
        <time>2019-03-21T14:08:45Z</time>
      </trkpt>
      <trkpt lat="42.87736" lon="0.15043">
        <ele>2174</ele>
        <time>2019-03-21T14:08:47Z</time>
      </trkpt>
      <trkpt lat="42.87733" lon="0.15043">
        <ele>2174</ele>
        <time>2019-03-21T14:08:49Z</time>
      </trkpt>
      <trkpt lat="42.87731" lon="0.1504">
        <ele>2174</ele>
        <time>2019-03-21T14:08:50Z</time>
      </trkpt>
      <trkpt lat="42.8773" lon="0.15036">
        <ele>2174</ele>
        <time>2019-03-21T14:08:51Z</time>
      </trkpt>
      <trkpt lat="42.87732" lon="0.15031">
        <ele>2173</ele>
        <time>2019-03-21T14:08:53Z</time>
      </trkpt>
      <trkpt lat="42.87733" lon="0.15028">
        <ele>2173</ele>
        <time>2019-03-21T14:08:54Z</time>
      </trkpt>
      <trkpt lat="42.87733" lon="0.15024">
        <ele>2173</ele>
        <time>2019-03-21T14:08:55Z</time>
      </trkpt>
      <trkpt lat="42.87731" lon="0.1502">
        <ele>2173</ele>
        <time>2019-03-21T14:08:56Z</time>
      </trkpt>
      <trkpt lat="42.87729" lon="0.15018">
        <ele>2173</ele>
        <time>2019-03-21T14:08:57Z</time>
      </trkpt>
      <trkpt lat="42.87725" lon="0.15016">
        <ele>2173</ele>
        <time>2019-03-21T14:08:59Z</time>
      </trkpt>
      <trkpt lat="42.87725" lon="0.15014">
        <ele>2173</ele>
        <time>2019-03-21T14:09:00Z</time>
      </trkpt>
      <trkpt lat="42.87726" lon="0.1501">
        <ele>2173</ele>
        <time>2019-03-21T14:09:02Z</time>
      </trkpt>
      <trkpt lat="42.87725" lon="0.15007">
        <ele>2172</ele>
        <time>2019-03-21T14:09:03Z</time>
      </trkpt>
      <trkpt lat="42.87723" lon="0.15007">
        <ele>2172</ele>
        <time>2019-03-21T14:09:04Z</time>
      </trkpt>
      <trkpt lat="42.87721" lon="0.15007">
        <ele>2172</ele>
        <time>2019-03-21T14:09:06Z</time>
      </trkpt>
      <trkpt lat="42.87722" lon="0.15004">
        <ele>2172</ele>
        <time>2019-03-21T14:09:07Z</time>
      </trkpt>
      <trkpt lat="42.87722" lon="0.15">
        <ele>2172</ele>
        <time>2019-03-21T14:09:08Z</time>
      </trkpt>
      <trkpt lat="42.87719" lon="0.14996">
        <ele>2172</ele>
        <time>2019-03-21T14:09:09Z</time>
      </trkpt>
      <trkpt lat="42.87716" lon="0.14993">
        <ele>2172</ele>
        <time>2019-03-21T14:09:10Z</time>
      </trkpt>
      <trkpt lat="42.87717" lon="0.14986">
        <ele>2172</ele>
        <time>2019-03-21T14:09:12Z</time>
      </trkpt>
      <trkpt lat="42.87717" lon="0.14982">
        <ele>2172</ele>
        <time>2019-03-21T14:09:13Z</time>
      </trkpt>
      <trkpt lat="42.87711" lon="0.14975">
        <ele>2171</ele>
        <time>2019-03-21T14:09:15Z</time>
      </trkpt>
      <trkpt lat="42.87709" lon="0.1497">
        <ele>2171</ele>
        <time>2019-03-21T14:09:17Z</time>
      </trkpt>
      <trkpt lat="42.87708" lon="0.14968">
        <ele>2169</ele>
        <time>2019-03-21T14:11:49Z</time>
      </trkpt>
      <trkpt lat="42.87711" lon="0.14966">
        <ele>2168</ele>
        <time>2019-03-21T14:11:51Z</time>
      </trkpt>
      <trkpt lat="42.87719" lon="0.14963">
        <ele>2167</ele>
        <time>2019-03-21T14:11:58Z</time>
      </trkpt>
      <trkpt lat="42.87721" lon="0.14961">
        <ele>2166</ele>
        <time>2019-03-21T14:11:59Z</time>
      </trkpt>
      <trkpt lat="42.87724" lon="0.14957">
        <ele>2166</ele>
        <time>2019-03-21T14:12:00Z</time>
      </trkpt>
      <trkpt lat="42.87725" lon="0.14952">
        <ele>2165</ele>
        <time>2019-03-21T14:12:01Z</time>
      </trkpt>
      <trkpt lat="42.87728" lon="0.14948">
        <ele>2164</ele>
        <time>2019-03-21T14:12:02Z</time>
      </trkpt>
      <trkpt lat="42.8773" lon="0.14943">
        <ele>2164</ele>
        <time>2019-03-21T14:12:03Z</time>
      </trkpt>
      <trkpt lat="42.87727" lon="0.1494">
        <ele>2164</ele>
        <time>2019-03-21T14:12:04Z</time>
      </trkpt>
      <trkpt lat="42.87729" lon="0.14937">
        <ele>2164</ele>
        <time>2019-03-21T14:12:05Z</time>
      </trkpt>
      <trkpt lat="42.87732" lon="0.14932">
        <ele>2163</ele>
        <time>2019-03-21T14:12:06Z</time>
      </trkpt>
      <trkpt lat="42.87733" lon="0.14926">
        <ele>2163</ele>
        <time>2019-03-21T14:12:07Z</time>
      </trkpt>
      <trkpt lat="42.87735" lon="0.14919">
        <ele>2162</ele>
        <time>2019-03-21T14:12:08Z</time>
      </trkpt>
      <trkpt lat="42.87738" lon="0.14914">
        <ele>2162</ele>
        <time>2019-03-21T14:12:09Z</time>
      </trkpt>
      <trkpt lat="42.87738" lon="0.14909">
        <ele>2162</ele>
        <time>2019-03-21T14:12:10Z</time>
      </trkpt>
      <trkpt lat="42.87737" lon="0.14903">
        <ele>2161</ele>
        <time>2019-03-21T14:12:11Z</time>
      </trkpt>
      <trkpt lat="42.8774" lon="0.14898">
        <ele>2161</ele>
        <time>2019-03-21T14:12:12Z</time>
      </trkpt>
      <trkpt lat="42.87754" lon="0.1483">
        <ele>2157</ele>
        <time>2019-03-21T14:12:22Z</time>
      </trkpt>
      <trkpt lat="42.87758" lon="0.14811">
        <ele>2156</ele>
        <time>2019-03-21T14:12:27Z</time>
      </trkpt>
      <trkpt lat="42.8776" lon="0.14803">
        <ele>2156</ele>
        <time>2019-03-21T14:12:33Z</time>
      </trkpt>
      <trkpt lat="42.87763" lon="0.14775">
        <ele>2151</ele>
        <time>2019-03-21T14:12:49Z</time>
      </trkpt>
      <trkpt lat="42.8777" lon="0.1472">
        <ele>2139</ele>
        <time>2019-03-21T14:12:58Z</time>
      </trkpt>
      <trkpt lat="42.87772" lon="0.147">
        <ele>2137</ele>
        <time>2019-03-21T14:13:01Z</time>
      </trkpt>
      <trkpt lat="42.87763" lon="0.14676">
        <ele>2136</ele>
        <time>2019-03-21T14:13:09Z</time>
      </trkpt>
      <trkpt lat="42.87761" lon="0.14652">
        <ele>2135</ele>
        <time>2019-03-21T14:13:16Z</time>
      </trkpt>
      <trkpt lat="42.87762" lon="0.14648">
        <ele>2135</ele>
        <time>2019-03-21T14:13:18Z</time>
      </trkpt>
      <trkpt lat="42.87763" lon="0.14644">
        <ele>2134</ele>
        <time>2019-03-21T14:13:20Z</time>
      </trkpt>
      <trkpt lat="42.87764" lon="0.14635">
        <ele>2134</ele>
        <time>2019-03-21T14:13:24Z</time>
      </trkpt>
      <trkpt lat="42.8776" lon="0.14636">
        <ele>2133</ele>
        <time>2019-03-21T14:13:32Z</time>
      </trkpt>
      <trkpt lat="42.87759" lon="0.14632">
        <ele>2132</ele>
        <time>2019-03-21T14:13:45Z</time>
      </trkpt>
      <trkpt lat="42.8776" lon="0.14628">
        <ele>2131</ele>
        <time>2019-03-21T14:13:55Z</time>
      </trkpt>
      <trkpt lat="42.8776" lon="0.14625">
        <ele>2131</ele>
        <time>2019-03-21T14:13:57Z</time>
      </trkpt>
      <trkpt lat="42.8776" lon="0.14622">
        <ele>2130</ele>
        <time>2019-03-21T14:14:00Z</time>
      </trkpt>
      <trkpt lat="42.87758" lon="0.14622">
        <ele>2129</ele>
        <time>2019-03-21T14:14:28Z</time>
      </trkpt>
      <trkpt lat="42.87757" lon="0.14625">
        <ele>2128</ele>
        <time>2019-03-21T14:14:31Z</time>
      </trkpt>
      <trkpt lat="42.87757" lon="0.14628">
        <ele>2127</ele>
        <time>2019-03-21T14:14:34Z</time>
      </trkpt>
      <trkpt lat="42.87757" lon="0.14629">
        <ele>2124</ele>
        <time>2019-03-21T14:14:53Z</time>
      </trkpt>
      <trkpt lat="42.87758" lon="0.14626">
        <ele>2123</ele>
        <time>2019-03-21T14:14:55Z</time>
      </trkpt>
      <trkpt lat="42.87758" lon="0.14625">
        <ele>2120</ele>
        <time>2019-03-21T14:16:20Z</time>
      </trkpt>
      <trkpt lat="42.87759" lon="0.14623">
        <ele>2119</ele>
        <time>2019-03-21T14:16:45Z</time>
      </trkpt>
      <trkpt lat="42.87757" lon="0.14623">
        <ele>2117</ele>
        <time>2019-03-21T14:17:03Z</time>
      </trkpt>
      <trkpt lat="42.87758" lon="0.1462">
        <ele>2117</ele>
        <time>2019-03-21T14:17:17Z</time>
      </trkpt>
      <trkpt lat="42.87769" lon="0.14604">
        <ele>2114</ele>
        <time>2019-03-21T14:17:31Z</time>
      </trkpt>
      <trkpt lat="42.87775" lon="0.14579">
        <ele>2113</ele>
        <time>2019-03-21T14:17:40Z</time>
      </trkpt>
      <trkpt lat="42.87787" lon="0.14533">
        <ele>2110</ele>
        <time>2019-03-21T14:17:48Z</time>
      </trkpt>
      <trkpt lat="42.87794" lon="0.14515">
        <ele>2109</ele>
        <time>2019-03-21T14:17:51Z</time>
      </trkpt>
      <trkpt lat="42.87796" lon="0.14506">
        <ele>2109</ele>
        <time>2019-03-21T14:17:53Z</time>
      </trkpt>
      <trkpt lat="42.87796" lon="0.14499">
        <ele>2109</ele>
        <time>2019-03-21T14:17:55Z</time>
      </trkpt>
      <trkpt lat="42.87795" lon="0.14495">
        <ele>2109</ele>
        <time>2019-03-21T14:17:56Z</time>
      </trkpt>
      <trkpt lat="42.87795" lon="0.14488">
        <ele>2109</ele>
        <time>2019-03-21T14:17:58Z</time>
      </trkpt>
      <trkpt lat="42.87797" lon="0.14485">
        <ele>2109</ele>
        <time>2019-03-21T14:17:59Z</time>
      </trkpt>
      <trkpt lat="42.87797" lon="0.1448">
        <ele>2109</ele>
        <time>2019-03-21T14:18:01Z</time>
      </trkpt>
      <trkpt lat="42.87796" lon="0.14476">
        <ele>2108</ele>
        <time>2019-03-21T14:18:03Z</time>
      </trkpt>
      <trkpt lat="42.87791" lon="0.14461">
        <ele>2108</ele>
        <time>2019-03-21T14:18:07Z</time>
      </trkpt>
      <trkpt lat="42.87788" lon="0.14453">
        <ele>2108</ele>
        <time>2019-03-21T14:18:09Z</time>
      </trkpt>
      <trkpt lat="42.87793" lon="0.14429">
        <ele>2108</ele>
        <time>2019-03-21T14:18:13Z</time>
      </trkpt>
      <trkpt lat="42.87795" lon="0.14409">
        <ele>2107</ele>
        <time>2019-03-21T14:18:17Z</time>
      </trkpt>
      <trkpt lat="42.87795" lon="0.144">
        <ele>2107</ele>
        <time>2019-03-21T14:18:19Z</time>
      </trkpt>
      <trkpt lat="42.87812" lon="0.14374">
        <ele>2107</ele>
        <time>2019-03-21T14:18:25Z</time>
      </trkpt>
      <trkpt lat="42.87818" lon="0.1436">
        <ele>2107</ele>
        <time>2019-03-21T14:18:29Z</time>
      </trkpt>
      <trkpt lat="42.87822" lon="0.14352">
        <ele>2107</ele>
        <time>2019-03-21T14:18:31Z</time>
      </trkpt>
      <trkpt lat="42.87824" lon="0.14344">
        <ele>2106</ele>
        <time>2019-03-21T14:18:33Z</time>
      </trkpt>
      <trkpt lat="42.87827" lon="0.14336">
        <ele>2106</ele>
        <time>2019-03-21T14:18:35Z</time>
      </trkpt>
      <trkpt lat="42.87829" lon="0.1433">
        <ele>2106</ele>
        <time>2019-03-21T14:18:37Z</time>
      </trkpt>
      <trkpt lat="42.87828" lon="0.14326">
        <ele>2106</ele>
        <time>2019-03-21T14:18:39Z</time>
      </trkpt>
      <trkpt lat="42.87831" lon="0.14318">
        <ele>2106</ele>
        <time>2019-03-21T14:18:41Z</time>
      </trkpt>
      <trkpt lat="42.87835" lon="0.14308">
        <ele>2106</ele>
        <time>2019-03-21T14:18:43Z</time>
      </trkpt>
      <trkpt lat="42.87845" lon="0.14308">
        <ele>2106</ele>
        <time>2019-03-21T14:18:49Z</time>
      </trkpt>
      <trkpt lat="42.87845" lon="0.14308">
        <ele>2105</ele>
        <time>2019-03-21T14:19:12Z</time>
      </trkpt>
      <trkpt lat="42.87855" lon="0.14293">
        <ele>2104</ele>
        <time>2019-03-21T14:19:18Z</time>
      </trkpt>
      <trkpt lat="42.87857" lon="0.14286">
        <ele>2104</ele>
        <time>2019-03-21T14:19:20Z</time>
      </trkpt>
      <trkpt lat="42.87857" lon="0.14282">
        <ele>2104</ele>
        <time>2019-03-21T14:19:22Z</time>
      </trkpt>
      <trkpt lat="42.87859" lon="0.14272">
        <ele>2103</ele>
        <time>2019-03-21T14:19:25Z</time>
      </trkpt>
      <trkpt lat="42.87866" lon="0.14258">
        <ele>2103</ele>
        <time>2019-03-21T14:19:28Z</time>
      </trkpt>
      <trkpt lat="42.8787" lon="0.14248">
        <ele>2103</ele>
        <time>2019-03-21T14:19:31Z</time>
      </trkpt>
      <trkpt lat="42.8787" lon="0.14245">
        <ele>2103</ele>
        <time>2019-03-21T14:19:32Z</time>
      </trkpt>
      <trkpt lat="42.8787" lon="0.14243">
        <ele>2102</ele>
        <time>2019-03-21T14:19:34Z</time>
      </trkpt>
      <trkpt lat="42.87873" lon="0.14242">
        <ele>2102</ele>
        <time>2019-03-21T14:20:19Z</time>
      </trkpt>
      <trkpt lat="42.87874" lon="0.14234">
        <ele>2101</ele>
        <time>2019-03-21T14:20:24Z</time>
      </trkpt>
      <trkpt lat="42.87875" lon="0.1423">
        <ele>2101</ele>
        <time>2019-03-21T14:20:26Z</time>
      </trkpt>
      <trkpt lat="42.87877" lon="0.14224">
        <ele>2100</ele>
        <time>2019-03-21T14:20:29Z</time>
      </trkpt>
      <trkpt lat="42.8788" lon="0.14219">
        <ele>2100</ele>
        <time>2019-03-21T14:20:31Z</time>
      </trkpt>
      <trkpt lat="42.87882" lon="0.14215">
        <ele>2099</ele>
        <time>2019-03-21T14:20:33Z</time>
      </trkpt>
      <trkpt lat="42.87879" lon="0.14211">
        <ele>2099</ele>
        <time>2019-03-21T14:20:35Z</time>
      </trkpt>
      <trkpt lat="42.87877" lon="0.14207">
        <ele>2099</ele>
        <time>2019-03-21T14:20:52Z</time>
      </trkpt>
      <trkpt lat="42.87875" lon="0.14204">
        <ele>2099</ele>
        <time>2019-03-21T14:20:56Z</time>
      </trkpt>
      <trkpt lat="42.87874" lon="0.142">
        <ele>2098</ele>
        <time>2019-03-21T14:20:58Z</time>
      </trkpt>
      <trkpt lat="42.87871" lon="0.14196">
        <ele>2098</ele>
        <time>2019-03-21T14:21:00Z</time>
      </trkpt>
      <trkpt lat="42.87869" lon="0.14191">
        <ele>2097</ele>
        <time>2019-03-21T14:21:03Z</time>
      </trkpt>
      <trkpt lat="42.87868" lon="0.14187">
        <ele>2097</ele>
        <time>2019-03-21T14:21:05Z</time>
      </trkpt>
      <trkpt lat="42.87864" lon="0.14173">
        <ele>2097</ele>
        <time>2019-03-21T14:21:09Z</time>
      </trkpt>
      <trkpt lat="42.87857" lon="0.14158">
        <ele>2096</ele>
        <time>2019-03-21T14:21:15Z</time>
      </trkpt>
      <trkpt lat="42.87855" lon="0.14151">
        <ele>2096</ele>
        <time>2019-03-21T14:21:17Z</time>
      </trkpt>
      <trkpt lat="42.87855" lon="0.14146">
        <ele>2096</ele>
        <time>2019-03-21T14:21:21Z</time>
      </trkpt>
      <trkpt lat="42.87854" lon="0.14141">
        <ele>2095</ele>
        <time>2019-03-21T14:21:41Z</time>
      </trkpt>
      <trkpt lat="42.87852" lon="0.14136">
        <ele>2094</ele>
        <time>2019-03-21T14:21:43Z</time>
      </trkpt>
      <trkpt lat="42.87852" lon="0.14128">
        <ele>2094</ele>
        <time>2019-03-21T14:21:47Z</time>
      </trkpt>
      <trkpt lat="42.87853" lon="0.14122">
        <ele>2094</ele>
        <time>2019-03-21T14:21:49Z</time>
      </trkpt>
      <trkpt lat="42.87856" lon="0.14123">
        <ele>2094</ele>
        <time>2019-03-21T14:21:53Z</time>
      </trkpt>
      <trkpt lat="42.87857" lon="0.14118">
        <ele>2094</ele>
        <time>2019-03-21T14:21:55Z</time>
      </trkpt>
      <trkpt lat="42.87861" lon="0.14113">
        <ele>2093</ele>
        <time>2019-03-21T14:21:57Z</time>
      </trkpt>
      <trkpt lat="42.87865" lon="0.14113">
        <ele>2093</ele>
        <time>2019-03-21T14:22:00Z</time>
      </trkpt>
      <trkpt lat="42.8787" lon="0.1411">
        <ele>2093</ele>
        <time>2019-03-21T14:22:02Z</time>
      </trkpt>
      <trkpt lat="42.87876" lon="0.14107">
        <ele>2093</ele>
        <time>2019-03-21T14:22:04Z</time>
      </trkpt>
      <trkpt lat="42.87884" lon="0.14096">
        <ele>2092</ele>
        <time>2019-03-21T14:22:52Z</time>
      </trkpt>
      <trkpt lat="42.87886" lon="0.14094">
        <ele>2092</ele>
        <time>2019-03-21T14:23:13Z</time>
      </trkpt>
      <trkpt lat="42.87889" lon="0.1409">
        <ele>2090</ele>
        <time>2019-03-21T14:24:06Z</time>
      </trkpt>
      <trkpt lat="42.87891" lon="0.14087">
        <ele>2089</ele>
        <time>2019-03-21T14:24:08Z</time>
      </trkpt>
      <trkpt lat="42.87891" lon="0.14082">
        <ele>2088</ele>
        <time>2019-03-21T14:24:10Z</time>
      </trkpt>
      <trkpt lat="42.87892" lon="0.14077">
        <ele>2088</ele>
        <time>2019-03-21T14:24:13Z</time>
      </trkpt>
      <trkpt lat="42.87892" lon="0.14072">
        <ele>2087</ele>
        <time>2019-03-21T14:24:14Z</time>
      </trkpt>
      <trkpt lat="42.87894" lon="0.14069">
        <ele>2087</ele>
        <time>2019-03-21T14:24:15Z</time>
      </trkpt>
      <trkpt lat="42.87896" lon="0.14065">
        <ele>2087</ele>
        <time>2019-03-21T14:24:16Z</time>
      </trkpt>
      <trkpt lat="42.87895" lon="0.14062">
        <ele>2087</ele>
        <time>2019-03-21T14:24:17Z</time>
      </trkpt>
      <trkpt lat="42.87895" lon="0.14058">
        <ele>2087</ele>
        <time>2019-03-21T14:24:18Z</time>
      </trkpt>
      <trkpt lat="42.87906" lon="0.14038">
        <ele>2085</ele>
        <time>2019-03-21T14:24:24Z</time>
      </trkpt>
      <trkpt lat="42.87908" lon="0.14035">
        <ele>2085</ele>
        <time>2019-03-21T14:24:26Z</time>
      </trkpt>
      <trkpt lat="42.8791" lon="0.1403">
        <ele>2084</ele>
        <time>2019-03-21T14:24:31Z</time>
      </trkpt>
      <trkpt lat="42.87911" lon="0.14025">
        <ele>2084</ele>
        <time>2019-03-21T14:24:33Z</time>
      </trkpt>
      <trkpt lat="42.87912" lon="0.14012">
        <ele>2083</ele>
        <time>2019-03-21T14:24:37Z</time>
      </trkpt>
      <trkpt lat="42.8791" lon="0.14006">
        <ele>2082</ele>
        <time>2019-03-21T14:24:40Z</time>
      </trkpt>
      <trkpt lat="42.8791" lon="0.13997">
        <ele>2081</ele>
        <time>2019-03-21T14:24:43Z</time>
      </trkpt>
      <trkpt lat="42.87912" lon="0.13987">
        <ele>2080</ele>
        <time>2019-03-21T14:24:46Z</time>
      </trkpt>
      <trkpt lat="42.87913" lon="0.13983">
        <ele>2079</ele>
        <time>2019-03-21T14:24:58Z</time>
      </trkpt>
      <trkpt lat="42.87912" lon="0.1398">
        <ele>2079</ele>
        <time>2019-03-21T14:25:01Z</time>
      </trkpt>
      <trkpt lat="42.87913" lon="0.13973">
        <ele>2077</ele>
        <time>2019-03-21T14:25:06Z</time>
      </trkpt>
      <trkpt lat="42.87914" lon="0.1397">
        <ele>2076</ele>
        <time>2019-03-21T14:25:07Z</time>
      </trkpt>
      <trkpt lat="42.87915" lon="0.13966">
        <ele>2075</ele>
        <time>2019-03-21T14:25:08Z</time>
      </trkpt>
      <trkpt lat="42.87917" lon="0.13963">
        <ele>2075</ele>
        <time>2019-03-21T14:25:09Z</time>
      </trkpt>
      <trkpt lat="42.8792" lon="0.13961">
        <ele>2074</ele>
        <time>2019-03-21T14:25:10Z</time>
      </trkpt>
      <trkpt lat="42.87921" lon="0.13957">
        <ele>2074</ele>
        <time>2019-03-21T14:25:11Z</time>
      </trkpt>
      <trkpt lat="42.87921" lon="0.13951">
        <ele>2073</ele>
        <time>2019-03-21T14:25:12Z</time>
      </trkpt>
      <trkpt lat="42.87922" lon="0.13947">
        <ele>2073</ele>
        <time>2019-03-21T14:25:13Z</time>
      </trkpt>
      <trkpt lat="42.87927" lon="0.13939">
        <ele>2072</ele>
        <time>2019-03-21T14:25:15Z</time>
      </trkpt>
      <trkpt lat="42.87929" lon="0.13935">
        <ele>2072</ele>
        <time>2019-03-21T14:25:16Z</time>
      </trkpt>
      <trkpt lat="42.87931" lon="0.13926">
        <ele>2071</ele>
        <time>2019-03-21T14:25:18Z</time>
      </trkpt>
      <trkpt lat="42.87932" lon="0.1392">
        <ele>2071</ele>
        <time>2019-03-21T14:25:20Z</time>
      </trkpt>
      <trkpt lat="42.87935" lon="0.13904">
        <ele>2069</ele>
        <time>2019-03-21T14:25:25Z</time>
      </trkpt>
      <trkpt lat="42.87937" lon="0.139">
        <ele>2068</ele>
        <time>2019-03-21T14:25:26Z</time>
      </trkpt>
      <trkpt lat="42.87939" lon="0.13897">
        <ele>2068</ele>
        <time>2019-03-21T14:25:27Z</time>
      </trkpt>
      <trkpt lat="42.87941" lon="0.13892">
        <ele>2068</ele>
        <time>2019-03-21T14:25:28Z</time>
      </trkpt>
      <trkpt lat="42.87942" lon="0.13887">
        <ele>2067</ele>
        <time>2019-03-21T14:25:29Z</time>
      </trkpt>
      <trkpt lat="42.87946" lon="0.13876">
        <ele>2066</ele>
        <time>2019-03-21T14:25:32Z</time>
      </trkpt>
      <trkpt lat="42.87949" lon="0.13867">
        <ele>2066</ele>
        <time>2019-03-21T14:25:34Z</time>
      </trkpt>
      <trkpt lat="42.87952" lon="0.13851">
        <ele>2058</ele>
        <time>2019-03-21T14:25:37Z</time>
      </trkpt>
      <trkpt lat="42.87954" lon="0.13833">
        <ele>2056</ele>
        <time>2019-03-21T14:25:41Z</time>
      </trkpt>
      <trkpt lat="42.87956" lon="0.13823">
        <ele>2054</ele>
        <time>2019-03-21T14:25:43Z</time>
      </trkpt>
      <trkpt lat="42.87959" lon="0.13814">
        <ele>2053</ele>
        <time>2019-03-21T14:25:45Z</time>
      </trkpt>
      <trkpt lat="42.87956" lon="0.13767">
        <ele>2049</ele>
        <time>2019-03-21T14:25:55Z</time>
      </trkpt>
      <trkpt lat="42.87956" lon="0.13758">
        <ele>2048</ele>
        <time>2019-03-21T14:25:57Z</time>
      </trkpt>
      <trkpt lat="42.87961" lon="0.13752">
        <ele>2043</ele>
        <time>2019-03-21T14:26:42Z</time>
      </trkpt>
      <trkpt lat="42.87974" lon="0.1374">
        <ele>2039</ele>
        <time>2019-03-21T14:26:49Z</time>
      </trkpt>
      <trkpt lat="42.87976" lon="0.13737">
        <ele>2036</ele>
        <time>2019-03-21T14:26:50Z</time>
      </trkpt>
      <trkpt lat="42.8798" lon="0.13721">
        <ele>2034</ele>
        <time>2019-03-21T14:26:53Z</time>
      </trkpt>
      <trkpt lat="42.87981" lon="0.13716">
        <ele>2033</ele>
        <time>2019-03-21T14:26:54Z</time>
      </trkpt>
      <trkpt lat="42.87983" lon="0.13708">
        <ele>2032</ele>
        <time>2019-03-21T14:26:56Z</time>
      </trkpt>
      <trkpt lat="42.87984" lon="0.13702">
        <ele>2031</ele>
        <time>2019-03-21T14:26:57Z</time>
      </trkpt>
      <trkpt lat="42.87986" lon="0.13697">
        <ele>2030</ele>
        <time>2019-03-21T14:26:58Z</time>
      </trkpt>
      <trkpt lat="42.87988" lon="0.13693">
        <ele>2028</ele>
        <time>2019-03-21T14:26:59Z</time>
      </trkpt>
      <trkpt lat="42.87996" lon="0.13687">
        <ele>2025</ele>
        <time>2019-03-21T14:27:01Z</time>
      </trkpt>
      <trkpt lat="42.87998" lon="0.13685">
        <ele>2024</ele>
        <time>2019-03-21T14:27:02Z</time>
      </trkpt>
      <trkpt lat="42.88" lon="0.13678">
        <ele>2024</ele>
        <time>2019-03-21T14:27:04Z</time>
      </trkpt>
      <trkpt lat="42.88003" lon="0.13673">
        <ele>2023</ele>
        <time>2019-03-21T14:27:06Z</time>
      </trkpt>
      <trkpt lat="42.88002" lon="0.13667">
        <ele>2023</ele>
        <time>2019-03-21T14:27:08Z</time>
      </trkpt>
      <trkpt lat="42.88003" lon="0.13664">
        <ele>2023</ele>
        <time>2019-03-21T14:27:13Z</time>
      </trkpt>
      <trkpt lat="42.88005" lon="0.1366">
        <ele>2022</ele>
        <time>2019-03-21T14:27:15Z</time>
      </trkpt>
      <trkpt lat="42.8801" lon="0.13651">
        <ele>2021</ele>
        <time>2019-03-21T14:27:17Z</time>
      </trkpt>
      <trkpt lat="42.88014" lon="0.13641">
        <ele>2020</ele>
        <time>2019-03-21T14:27:20Z</time>
      </trkpt>
      <trkpt lat="42.88016" lon="0.13638">
        <ele>2020</ele>
        <time>2019-03-21T14:27:21Z</time>
      </trkpt>
      <trkpt lat="42.8802" lon="0.1363">
        <ele>2020</ele>
        <time>2019-03-21T14:27:24Z</time>
      </trkpt>
      <trkpt lat="42.88023" lon="0.13627">
        <ele>2020</ele>
        <time>2019-03-21T14:27:26Z</time>
      </trkpt>
      <trkpt lat="42.88025" lon="0.13625">
        <ele>2019</ele>
        <time>2019-03-21T14:27:28Z</time>
      </trkpt>
      <trkpt lat="42.88026" lon="0.13622">
        <ele>2019</ele>
        <time>2019-03-21T14:27:29Z</time>
      </trkpt>
      <trkpt lat="42.88031" lon="0.13615">
        <ele>2019</ele>
        <time>2019-03-21T14:27:31Z</time>
      </trkpt>
      <trkpt lat="42.88032" lon="0.1361">
        <ele>2018</ele>
        <time>2019-03-21T14:28:10Z</time>
      </trkpt>
      <trkpt lat="42.88035" lon="0.13606">
        <ele>2018</ele>
        <time>2019-03-21T14:28:13Z</time>
      </trkpt>
      <trkpt lat="42.88039" lon="0.13603">
        <ele>2017</ele>
        <time>2019-03-21T14:28:15Z</time>
      </trkpt>
      <trkpt lat="42.88042" lon="0.13596">
        <ele>2017</ele>
        <time>2019-03-21T14:28:17Z</time>
      </trkpt>
      <trkpt lat="42.88044" lon="0.13594">
        <ele>2016</ele>
        <time>2019-03-21T14:28:19Z</time>
      </trkpt>
      <trkpt lat="42.88054" lon="0.13604">
        <ele>2015</ele>
        <time>2019-03-21T14:28:31Z</time>
      </trkpt>
      <trkpt lat="42.88057" lon="0.13609">
        <ele>2014</ele>
        <time>2019-03-21T14:28:34Z</time>
      </trkpt>
      <trkpt lat="42.88059" lon="0.13606">
        <ele>2014</ele>
        <time>2019-03-21T14:28:36Z</time>
      </trkpt>
      <trkpt lat="42.88061" lon="0.13593">
        <ele>2014</ele>
        <time>2019-03-21T14:28:40Z</time>
      </trkpt>
      <trkpt lat="42.88066" lon="0.13581">
        <ele>2013</ele>
        <time>2019-03-21T14:28:43Z</time>
      </trkpt>
      <trkpt lat="42.88068" lon="0.13565">
        <ele>2013</ele>
        <time>2019-03-21T14:28:47Z</time>
      </trkpt>
      <trkpt lat="42.88069" lon="0.1356">
        <ele>2013</ele>
        <time>2019-03-21T14:28:48Z</time>
      </trkpt>
      <trkpt lat="42.88071" lon="0.13556">
        <ele>2012</ele>
        <time>2019-03-21T14:28:49Z</time>
      </trkpt>
      <trkpt lat="42.88074" lon="0.13554">
        <ele>2012</ele>
        <time>2019-03-21T14:28:50Z</time>
      </trkpt>
      <trkpt lat="42.88078" lon="0.13551">
        <ele>2012</ele>
        <time>2019-03-21T14:28:51Z</time>
      </trkpt>
      <trkpt lat="42.88081" lon="0.13549">
        <ele>2012</ele>
        <time>2019-03-21T14:28:52Z</time>
      </trkpt>
      <trkpt lat="42.88084" lon="0.13548">
        <ele>2011</ele>
        <time>2019-03-21T14:28:53Z</time>
      </trkpt>
      <trkpt lat="42.88089" lon="0.13546">
        <ele>2011</ele>
        <time>2019-03-21T14:28:54Z</time>
      </trkpt>
      <trkpt lat="42.88096" lon="0.13537">
        <ele>2010</ele>
        <time>2019-03-21T14:28:56Z</time>
      </trkpt>
      <trkpt lat="42.881" lon="0.13532">
        <ele>2009</ele>
        <time>2019-03-21T14:28:57Z</time>
      </trkpt>
      <trkpt lat="42.88104" lon="0.1352">
        <ele>2008</ele>
        <time>2019-03-21T14:28:59Z</time>
      </trkpt>
      <trkpt lat="42.88106" lon="0.13516">
        <ele>2008</ele>
        <time>2019-03-21T14:29:00Z</time>
      </trkpt>
      <trkpt lat="42.88105" lon="0.13512">
        <ele>2008</ele>
        <time>2019-03-21T14:29:01Z</time>
      </trkpt>
      <trkpt lat="42.88107" lon="0.13503">
        <ele>2007</ele>
        <time>2019-03-21T14:29:03Z</time>
      </trkpt>
      <trkpt lat="42.88109" lon="0.13499">
        <ele>2006</ele>
        <time>2019-03-21T14:29:04Z</time>
      </trkpt>
      <trkpt lat="42.8811" lon="0.13414">
        <ele>1993</ele>
        <time>2019-03-21T14:29:19Z</time>
      </trkpt>
      <trkpt lat="42.88118" lon="0.13338">
        <ele>1986</ele>
        <time>2019-03-21T14:29:33Z</time>
      </trkpt>
      <trkpt lat="42.88116" lon="0.13297">
        <ele>1982</ele>
        <time>2019-03-21T14:29:42Z</time>
      </trkpt>
      <trkpt lat="42.88114" lon="0.13258">
        <ele>1973</ele>
        <time>2019-03-21T14:31:41Z</time>
      </trkpt>
      <trkpt lat="42.88115" lon="0.1325">
        <ele>1968</ele>
        <time>2019-03-21T14:31:51Z</time>
      </trkpt>
      <trkpt lat="42.88117" lon="0.13246">
        <ele>1967</ele>
        <time>2019-03-21T14:31:53Z</time>
      </trkpt>
      <trkpt lat="42.88121" lon="0.13232">
        <ele>1965</ele>
        <time>2019-03-21T14:32:02Z</time>
      </trkpt>
      <trkpt lat="42.8812" lon="0.13224">
        <ele>1964</ele>
        <time>2019-03-21T14:32:07Z</time>
      </trkpt>
      <trkpt lat="42.88121" lon="0.13219">
        <ele>1964</ele>
        <time>2019-03-21T14:32:09Z</time>
      </trkpt>
      <trkpt lat="42.88122" lon="0.13208">
        <ele>1963</ele>
        <time>2019-03-21T14:32:13Z</time>
      </trkpt>
      <trkpt lat="42.88123" lon="0.13203">
        <ele>1963</ele>
        <time>2019-03-21T14:32:16Z</time>
      </trkpt>
      <trkpt lat="42.88128" lon="0.13166">
        <ele>1961</ele>
        <time>2019-03-21T14:32:26Z</time>
      </trkpt>
      <trkpt lat="42.88131" lon="0.13157">
        <ele>1961</ele>
        <time>2019-03-21T14:32:28Z</time>
      </trkpt>
      <trkpt lat="42.88133" lon="0.13152">
        <ele>1961</ele>
        <time>2019-03-21T14:32:29Z</time>
      </trkpt>
      <trkpt lat="42.88145" lon="0.1313">
        <ele>1958</ele>
        <time>2019-03-21T14:32:33Z</time>
      </trkpt>
      <trkpt lat="42.88149" lon="0.13125">
        <ele>1957</ele>
        <time>2019-03-21T14:32:34Z</time>
      </trkpt>
      <trkpt lat="42.88152" lon="0.13122">
        <ele>1956</ele>
        <time>2019-03-21T14:32:35Z</time>
      </trkpt>
      <trkpt lat="42.88157" lon="0.13108">
        <ele>1956</ele>
        <time>2019-03-21T14:32:38Z</time>
      </trkpt>
      <trkpt lat="42.88164" lon="0.13081">
        <ele>1955</ele>
        <time>2019-03-21T14:32:43Z</time>
      </trkpt>
      <trkpt lat="42.88164" lon="0.13028">
        <ele>1954</ele>
        <time>2019-03-21T14:32:57Z</time>
      </trkpt>
      <trkpt lat="42.88164" lon="0.13022">
        <ele>1954</ele>
        <time>2019-03-21T14:32:59Z</time>
      </trkpt>
      <trkpt lat="42.88168" lon="0.13007">
        <ele>1953</ele>
        <time>2019-03-21T14:33:05Z</time>
      </trkpt>
      <trkpt lat="42.8817" lon="0.12995">
        <ele>1952</ele>
        <time>2019-03-21T14:33:10Z</time>
      </trkpt>
      <trkpt lat="42.88171" lon="0.12977">
        <ele>1952</ele>
        <time>2019-03-21T14:33:16Z</time>
      </trkpt>
      <trkpt lat="42.88176" lon="0.12957">
        <ele>1951</ele>
        <time>2019-03-21T14:33:21Z</time>
      </trkpt>
      <trkpt lat="42.88181" lon="0.12932">
        <ele>1950</ele>
        <time>2019-03-21T14:33:29Z</time>
      </trkpt>
      <trkpt lat="42.88181" lon="0.12924">
        <ele>1950</ele>
        <time>2019-03-21T14:33:32Z</time>
      </trkpt>
      <trkpt lat="42.88179" lon="0.12916">
        <ele>1949</ele>
        <time>2019-03-21T14:33:50Z</time>
      </trkpt>
      <trkpt lat="42.88181" lon="0.12911">
        <ele>1948</ele>
        <time>2019-03-21T14:34:22Z</time>
      </trkpt>
      <trkpt lat="42.88183" lon="0.12907">
        <ele>1947</ele>
        <time>2019-03-21T14:34:29Z</time>
      </trkpt>
      <trkpt lat="42.88181" lon="0.12902">
        <ele>1946</ele>
        <time>2019-03-21T14:34:32Z</time>
      </trkpt>
      <trkpt lat="42.8818" lon="0.12887">
        <ele>1945</ele>
        <time>2019-03-21T14:34:40Z</time>
      </trkpt>
      <trkpt lat="42.88179" lon="0.12882">
        <ele>1945</ele>
        <time>2019-03-21T14:34:42Z</time>
      </trkpt>
      <trkpt lat="42.88178" lon="0.12877">
        <ele>1945</ele>
        <time>2019-03-21T14:34:44Z</time>
      </trkpt>
      <trkpt lat="42.88175" lon="0.12876">
        <ele>1944</ele>
        <time>2019-03-21T14:34:51Z</time>
      </trkpt>
      <trkpt lat="42.88176" lon="0.12872">
        <ele>1944</ele>
        <time>2019-03-21T14:34:57Z</time>
      </trkpt>
      <trkpt lat="42.88175" lon="0.12867">
        <ele>1943</ele>
        <time>2019-03-21T14:35:02Z</time>
      </trkpt>
      <trkpt lat="42.88174" lon="0.12863">
        <ele>1943</ele>
        <time>2019-03-21T14:35:04Z</time>
      </trkpt>
      <trkpt lat="42.88174" lon="0.12859">
        <ele>1943</ele>
        <time>2019-03-21T14:35:06Z</time>
      </trkpt>
      <trkpt lat="42.88174" lon="0.12855">
        <ele>1943</ele>
        <time>2019-03-21T14:35:08Z</time>
      </trkpt>
      <trkpt lat="42.88176" lon="0.12846">
        <ele>1943</ele>
        <time>2019-03-21T14:35:13Z</time>
      </trkpt>
      <trkpt lat="42.88176" lon="0.12842">
        <ele>1942</ele>
        <time>2019-03-21T14:35:24Z</time>
      </trkpt>
      <trkpt lat="42.88175" lon="0.12838">
        <ele>1942</ele>
        <time>2019-03-21T14:35:28Z</time>
      </trkpt>
      <trkpt lat="42.88173" lon="0.12831">
        <ele>1942</ele>
        <time>2019-03-21T14:35:37Z</time>
      </trkpt>
      <trkpt lat="42.88172" lon="0.12822">
        <ele>1942</ele>
        <time>2019-03-21T14:35:41Z</time>
      </trkpt>
      <trkpt lat="42.88172" lon="0.12818">
        <ele>1942</ele>
        <time>2019-03-21T14:35:43Z</time>
      </trkpt>
      <trkpt lat="42.88171" lon="0.128">
        <ele>1941</ele>
        <time>2019-03-21T14:35:55Z</time>
      </trkpt>
      <trkpt lat="42.88171" lon="0.12796">
        <ele>1941</ele>
        <time>2019-03-21T14:36:01Z</time>
      </trkpt>
      <trkpt lat="42.8817" lon="0.12793">
        <ele>1941</ele>
        <time>2019-03-21T14:36:05Z</time>
      </trkpt>
      <trkpt lat="42.88171" lon="0.12789">
        <ele>1941</ele>
        <time>2019-03-21T14:36:08Z</time>
      </trkpt>
      <trkpt lat="42.88171" lon="0.12785">
        <ele>1941</ele>
        <time>2019-03-21T14:36:11Z</time>
      </trkpt>
      <trkpt lat="42.88171" lon="0.12781">
        <ele>1941</ele>
        <time>2019-03-21T14:36:14Z</time>
      </trkpt>
      <trkpt lat="42.88169" lon="0.12778">
        <ele>1941</ele>
        <time>2019-03-21T14:36:18Z</time>
      </trkpt>
      <trkpt lat="42.88162" lon="0.1274">
        <ele>1941</ele>
        <time>2019-03-21T14:36:47Z</time>
      </trkpt>
      <trkpt lat="42.88161" lon="0.12737">
        <ele>1941</ele>
        <time>2019-03-21T14:36:51Z</time>
      </trkpt>
      <trkpt lat="42.8816" lon="0.12735">
        <ele>1941</ele>
        <time>2019-03-21T14:36:52Z</time>
      </trkpt>
      <trkpt lat="42.8816" lon="0.12732">
        <ele>1941</ele>
        <time>2019-03-21T14:36:53Z</time>
      </trkpt>
      <trkpt lat="42.88158" lon="0.12726">
        <ele>1941</ele>
        <time>2019-03-21T14:36:59Z</time>
      </trkpt>
      <trkpt lat="42.88156" lon="0.12724">
        <ele>1941</ele>
        <time>2019-03-21T14:37:01Z</time>
      </trkpt>
      <trkpt lat="42.88148" lon="0.12718">
        <ele>1941</ele>
        <time>2019-03-21T14:37:09Z</time>
      </trkpt>
      <trkpt lat="42.88146" lon="0.12714">
        <ele>1941</ele>
        <time>2019-03-21T14:37:13Z</time>
      </trkpt>
      <trkpt lat="42.88146" lon="0.12702">
        <ele>1940</ele>
        <time>2019-03-21T14:37:23Z</time>
      </trkpt>
      <trkpt lat="42.88144" lon="0.12697">
        <ele>1940</ele>
        <time>2019-03-21T14:37:27Z</time>
      </trkpt>
      <trkpt lat="42.88144" lon="0.12677">
        <ele>1940</ele>
        <time>2019-03-21T14:37:43Z</time>
      </trkpt>
      <trkpt lat="42.88145" lon="0.12673">
        <ele>1940</ele>
        <time>2019-03-21T14:37:45Z</time>
      </trkpt>
      <trkpt lat="42.88143" lon="0.12664">
        <ele>1940</ele>
        <time>2019-03-21T14:37:51Z</time>
      </trkpt>
      <trkpt lat="42.88144" lon="0.12659">
        <ele>1940</ele>
        <time>2019-03-21T14:37:53Z</time>
      </trkpt>
      <trkpt lat="42.88144" lon="0.12654">
        <ele>1940</ele>
        <time>2019-03-21T14:37:55Z</time>
      </trkpt>
      <trkpt lat="42.88144" lon="0.12648">
        <ele>1940</ele>
        <time>2019-03-21T14:37:57Z</time>
      </trkpt>
      <trkpt lat="42.8814" lon="0.12631">
        <ele>1940</ele>
        <time>2019-03-21T14:38:03Z</time>
      </trkpt>
      <trkpt lat="42.88141" lon="0.12595">
        <ele>1940</ele>
        <time>2019-03-21T14:38:35Z</time>
      </trkpt>
      <trkpt lat="42.8814" lon="0.12591">
        <ele>1940</ele>
        <time>2019-03-21T14:38:39Z</time>
      </trkpt>
      <trkpt lat="42.8814" lon="0.12587">
        <ele>1940</ele>
        <time>2019-03-21T14:38:45Z</time>
      </trkpt>
      <trkpt lat="42.88141" lon="0.12577">
        <ele>1940</ele>
        <time>2019-03-21T14:38:50Z</time>
      </trkpt>
      <trkpt lat="42.88141" lon="0.12561">
        <ele>1940</ele>
        <time>2019-03-21T14:38:57Z</time>
      </trkpt>
      <trkpt lat="42.88135" lon="0.12538">
        <ele>1940</ele>
        <time>2019-03-21T14:39:08Z</time>
      </trkpt>
      <trkpt lat="42.8813" lon="0.12523">
        <ele>1940</ele>
        <time>2019-03-21T14:39:14Z</time>
      </trkpt>
      <trkpt lat="42.88128" lon="0.12516">
        <ele>1940</ele>
        <time>2019-03-21T14:39:17Z</time>
      </trkpt>
      <trkpt lat="42.88127" lon="0.12508">
        <ele>1940</ele>
        <time>2019-03-21T14:39:25Z</time>
      </trkpt>
      <trkpt lat="42.88126" lon="0.12491">
        <ele>1940</ele>
        <time>2019-03-21T14:39:32Z</time>
      </trkpt>
      <trkpt lat="42.88128" lon="0.1248">
        <ele>1940</ele>
        <time>2019-03-21T14:39:35Z</time>
      </trkpt>
      <trkpt lat="42.88129" lon="0.12468">
        <ele>1939</ele>
        <time>2019-03-21T14:39:39Z</time>
      </trkpt>
      <trkpt lat="42.88131" lon="0.12446">
        <ele>1939</ele>
        <time>2019-03-21T14:39:47Z</time>
      </trkpt>
      <trkpt lat="42.88132" lon="0.12439">
        <ele>1939</ele>
        <time>2019-03-21T14:39:49Z</time>
      </trkpt>
      <trkpt lat="42.88133" lon="0.12433">
        <ele>1939</ele>
        <time>2019-03-21T14:39:51Z</time>
      </trkpt>
      <trkpt lat="42.88139" lon="0.12402">
        <ele>1939</ele>
        <time>2019-03-21T14:40:01Z</time>
      </trkpt>
      <trkpt lat="42.88141" lon="0.12398">
        <ele>1939</ele>
        <time>2019-03-21T14:40:03Z</time>
      </trkpt>
      <trkpt lat="42.88142" lon="0.12395">
        <ele>1939</ele>
        <time>2019-03-21T14:40:14Z</time>
      </trkpt>
      <trkpt lat="42.88144" lon="0.12378">
        <ele>1939</ele>
        <time>2019-03-21T14:40:23Z</time>
      </trkpt>
      <trkpt lat="42.88148" lon="0.12358">
        <ele>1938</ele>
        <time>2019-03-21T14:40:28Z</time>
      </trkpt>
      <trkpt lat="42.88154" lon="0.12338">
        <ele>1938</ele>
        <time>2019-03-21T14:40:34Z</time>
      </trkpt>
      <trkpt lat="42.88156" lon="0.12322">
        <ele>1938</ele>
        <time>2019-03-21T14:40:42Z</time>
      </trkpt>
      <trkpt lat="42.88162" lon="0.1229">
        <ele>1937</ele>
        <time>2019-03-21T14:40:51Z</time>
      </trkpt>
      <trkpt lat="42.88162" lon="0.12274">
        <ele>1937</ele>
        <time>2019-03-21T14:40:57Z</time>
      </trkpt>
      <trkpt lat="42.88161" lon="0.12257">
        <ele>1936</ele>
        <time>2019-03-21T14:41:13Z</time>
      </trkpt>
      <trkpt lat="42.88164" lon="0.1225">
        <ele>1935</ele>
        <time>2019-03-21T14:41:15Z</time>
      </trkpt>
      <trkpt lat="42.88174" lon="0.12228">
        <ele>1935</ele>
        <time>2019-03-21T14:41:22Z</time>
      </trkpt>
      <trkpt lat="42.88182" lon="0.12204">
        <ele>1934</ele>
        <time>2019-03-21T14:41:31Z</time>
      </trkpt>
      <trkpt lat="42.88187" lon="0.12186">
        <ele>1934</ele>
        <time>2019-03-21T14:41:38Z</time>
      </trkpt>
      <trkpt lat="42.88189" lon="0.12178">
        <ele>1933</ele>
        <time>2019-03-21T14:41:42Z</time>
      </trkpt>
      <trkpt lat="42.8819" lon="0.12173">
        <ele>1933</ele>
        <time>2019-03-21T14:42:42Z</time>
      </trkpt>
      <trkpt lat="42.88193" lon="0.12167">
        <ele>1932</ele>
        <time>2019-03-21T14:42:44Z</time>
      </trkpt>
      <trkpt lat="42.88196" lon="0.12156">
        <ele>1931</ele>
        <time>2019-03-21T14:42:46Z</time>
      </trkpt>
      <trkpt lat="42.88197" lon="0.12152">
        <ele>1931</ele>
        <time>2019-03-21T14:42:47Z</time>
      </trkpt>
      <trkpt lat="42.88195" lon="0.12146">
        <ele>1931</ele>
        <time>2019-03-21T14:42:49Z</time>
      </trkpt>
      <trkpt lat="42.88199" lon="0.12142">
        <ele>1930</ele>
        <time>2019-03-21T14:43:18Z</time>
      </trkpt>
      <trkpt lat="42.88201" lon="0.12136">
        <ele>1930</ele>
        <time>2019-03-21T14:43:20Z</time>
      </trkpt>
      <trkpt lat="42.88203" lon="0.12131">
        <ele>1929</ele>
        <time>2019-03-21T14:43:23Z</time>
      </trkpt>
      <trkpt lat="42.88207" lon="0.12128">
        <ele>1929</ele>
        <time>2019-03-21T14:43:25Z</time>
      </trkpt>
      <trkpt lat="42.88207" lon="0.12124">
        <ele>1929</ele>
        <time>2019-03-21T14:43:40Z</time>
      </trkpt>
      <trkpt lat="42.88205" lon="0.12119">
        <ele>1928</ele>
        <time>2019-03-21T14:43:45Z</time>
      </trkpt>
      <trkpt lat="42.88207" lon="0.12113">
        <ele>1928</ele>
        <time>2019-03-21T14:43:48Z</time>
      </trkpt>
      <trkpt lat="42.88208" lon="0.12107">
        <ele>1928</ele>
        <time>2019-03-21T14:43:50Z</time>
      </trkpt>
      <trkpt lat="42.88211" lon="0.12107">
        <ele>1928</ele>
        <time>2019-03-21T14:43:51Z</time>
      </trkpt>
      <trkpt lat="42.88214" lon="0.12105">
        <ele>1927</ele>
        <time>2019-03-21T14:43:52Z</time>
      </trkpt>
      <trkpt lat="42.88216" lon="0.12102">
        <ele>1927</ele>
        <time>2019-03-21T14:43:53Z</time>
      </trkpt>
      <trkpt lat="42.88219" lon="0.12099">
        <ele>1927</ele>
        <time>2019-03-21T14:43:54Z</time>
      </trkpt>
      <trkpt lat="42.88226" lon="0.1209">
        <ele>1927</ele>
        <time>2019-03-21T14:43:57Z</time>
      </trkpt>
      <trkpt lat="42.88229" lon="0.12087">
        <ele>1927</ele>
        <time>2019-03-21T14:43:58Z</time>
      </trkpt>
      <trkpt lat="42.8823" lon="0.1208">
        <ele>1927</ele>
        <time>2019-03-21T14:44:00Z</time>
      </trkpt>
      <trkpt lat="42.88235" lon="0.12076">
        <ele>1927</ele>
        <time>2019-03-21T14:44:02Z</time>
      </trkpt>
      <trkpt lat="42.88238" lon="0.12073">
        <ele>1926</ele>
        <time>2019-03-21T14:44:03Z</time>
      </trkpt>
      <trkpt lat="42.88242" lon="0.12071">
        <ele>1926</ele>
        <time>2019-03-21T14:44:04Z</time>
      </trkpt>
      <trkpt lat="42.88245" lon="0.12067">
        <ele>1926</ele>
        <time>2019-03-21T14:44:05Z</time>
      </trkpt>
      <trkpt lat="42.88243" lon="0.12055">
        <ele>1926</ele>
        <time>2019-03-21T14:44:08Z</time>
      </trkpt>
      <trkpt lat="42.88242" lon="0.1205">
        <ele>1926</ele>
        <time>2019-03-21T14:44:09Z</time>
      </trkpt>
      <trkpt lat="42.88243" lon="0.12045">
        <ele>1926</ele>
        <time>2019-03-21T14:44:10Z</time>
      </trkpt>
      <trkpt lat="42.88245" lon="0.12042">
        <ele>1926</ele>
        <time>2019-03-21T14:44:11Z</time>
      </trkpt>
      <trkpt lat="42.88246" lon="0.12036">
        <ele>1926</ele>
        <time>2019-03-21T14:44:13Z</time>
      </trkpt>
      <trkpt lat="42.8825" lon="0.12033">
        <ele>1925</ele>
        <time>2019-03-21T14:44:15Z</time>
      </trkpt>
      <trkpt lat="42.8825" lon="0.12028">
        <ele>1925</ele>
        <time>2019-03-21T14:44:17Z</time>
      </trkpt>
      <trkpt lat="42.88254" lon="0.12025">
        <ele>1925</ele>
        <time>2019-03-21T14:44:20Z</time>
      </trkpt>
      <trkpt lat="42.88257" lon="0.12021">
        <ele>1925</ele>
        <time>2019-03-21T14:44:22Z</time>
      </trkpt>
      <trkpt lat="42.88256" lon="0.12015">
        <ele>1925</ele>
        <time>2019-03-21T14:44:24Z</time>
      </trkpt>
      <trkpt lat="42.88255" lon="0.12006">
        <ele>1924</ele>
        <time>2019-03-21T14:44:33Z</time>
      </trkpt>
      <trkpt lat="42.88254" lon="0.12003">
        <ele>1924</ele>
        <time>2019-03-21T14:44:34Z</time>
      </trkpt>
      <trkpt lat="42.88254" lon="0.11999">
        <ele>1923</ele>
        <time>2019-03-21T14:44:35Z</time>
      </trkpt>
      <trkpt lat="42.88256" lon="0.11993">
        <ele>1923</ele>
        <time>2019-03-21T14:44:36Z</time>
      </trkpt>
      <trkpt lat="42.88257" lon="0.11988">
        <ele>1922</ele>
        <time>2019-03-21T14:44:37Z</time>
      </trkpt>
      <trkpt lat="42.88257" lon="0.11983">
        <ele>1922</ele>
        <time>2019-03-21T14:44:39Z</time>
      </trkpt>
      <trkpt lat="42.88253" lon="0.11983">
        <ele>1922</ele>
        <time>2019-03-21T14:44:41Z</time>
      </trkpt>
      <trkpt lat="42.8825" lon="0.1198">
        <ele>1921</ele>
        <time>2019-03-21T14:44:42Z</time>
      </trkpt>
      <trkpt lat="42.88247" lon="0.11975">
        <ele>1921</ele>
        <time>2019-03-21T14:44:43Z</time>
      </trkpt>
      <trkpt lat="42.88248" lon="0.1197">
        <ele>1921</ele>
        <time>2019-03-21T14:44:45Z</time>
      </trkpt>
      <trkpt lat="42.88244" lon="0.11969">
        <ele>1920</ele>
        <time>2019-03-21T14:46:21Z</time>
      </trkpt>
      <trkpt lat="42.88236" lon="0.11966">
        <ele>1916</ele>
        <time>2019-03-21T14:46:23Z</time>
      </trkpt>
      <trkpt lat="42.88234" lon="0.11961">
        <ele>1915</ele>
        <time>2019-03-21T14:46:25Z</time>
      </trkpt>
      <trkpt lat="42.88232" lon="0.11956">
        <ele>1915</ele>
        <time>2019-03-21T14:46:27Z</time>
      </trkpt>
      <trkpt lat="42.88233" lon="0.11951">
        <ele>1914</ele>
        <time>2019-03-21T14:46:30Z</time>
      </trkpt>
      <trkpt lat="42.88234" lon="0.11946">
        <ele>1914</ele>
        <time>2019-03-21T14:46:45Z</time>
      </trkpt>
      <trkpt lat="42.88232" lon="0.11941">
        <ele>1913</ele>
        <time>2019-03-21T14:46:47Z</time>
      </trkpt>
      <trkpt lat="42.88232" lon="0.11937">
        <ele>1912</ele>
        <time>2019-03-21T14:46:48Z</time>
      </trkpt>
      <trkpt lat="42.88232" lon="0.11932">
        <ele>1912</ele>
        <time>2019-03-21T14:46:49Z</time>
      </trkpt>
      <trkpt lat="42.8823" lon="0.11928">
        <ele>1911</ele>
        <time>2019-03-21T14:46:50Z</time>
      </trkpt>
      <trkpt lat="42.88225" lon="0.11925">
        <ele>1910</ele>
        <time>2019-03-21T14:46:51Z</time>
      </trkpt>
      <trkpt lat="42.88222" lon="0.11921">
        <ele>1910</ele>
        <time>2019-03-21T14:46:52Z</time>
      </trkpt>
      <trkpt lat="42.88224" lon="0.11915">
        <ele>1910</ele>
        <time>2019-03-21T14:46:54Z</time>
      </trkpt>
      <trkpt lat="42.88222" lon="0.11908">
        <ele>1909</ele>
        <time>2019-03-21T14:46:56Z</time>
      </trkpt>
      <trkpt lat="42.88224" lon="0.11902">
        <ele>1909</ele>
        <time>2019-03-21T14:46:58Z</time>
      </trkpt>
      <trkpt lat="42.88224" lon="0.11895">
        <ele>1908</ele>
        <time>2019-03-21T14:47:00Z</time>
      </trkpt>
      <trkpt lat="42.88227" lon="0.11893">
        <ele>1908</ele>
        <time>2019-03-21T14:47:01Z</time>
      </trkpt>
      <trkpt lat="42.8823" lon="0.11887">
        <ele>1908</ele>
        <time>2019-03-21T14:47:03Z</time>
      </trkpt>
      <trkpt lat="42.88227" lon="0.11879">
        <ele>1908</ele>
        <time>2019-03-21T14:47:05Z</time>
      </trkpt>
      <trkpt lat="42.8823" lon="0.11871">
        <ele>1907</ele>
        <time>2019-03-21T14:47:08Z</time>
      </trkpt>
      <trkpt lat="42.8823" lon="0.11867">
        <ele>1907</ele>
        <time>2019-03-21T14:47:09Z</time>
      </trkpt>
      <trkpt lat="42.88227" lon="0.11863">
        <ele>1907</ele>
        <time>2019-03-21T14:47:10Z</time>
      </trkpt>
      <trkpt lat="42.88228" lon="0.11857">
        <ele>1906</ele>
        <time>2019-03-21T14:47:12Z</time>
      </trkpt>
      <trkpt lat="42.88227" lon="0.11853">
        <ele>1906</ele>
        <time>2019-03-21T14:47:13Z</time>
      </trkpt>
      <trkpt lat="42.88231" lon="0.11846">
        <ele>1906</ele>
        <time>2019-03-21T14:47:15Z</time>
      </trkpt>
      <trkpt lat="42.88227" lon="0.1184">
        <ele>1906</ele>
        <time>2019-03-21T14:47:17Z</time>
      </trkpt>
      <trkpt lat="42.88228" lon="0.11835">
        <ele>1905</ele>
        <time>2019-03-21T14:47:19Z</time>
      </trkpt>
      <trkpt lat="42.88226" lon="0.11829">
        <ele>1905</ele>
        <time>2019-03-21T14:47:21Z</time>
      </trkpt>
      <trkpt lat="42.88227" lon="0.11823">
        <ele>1905</ele>
        <time>2019-03-21T14:47:23Z</time>
      </trkpt>
      <trkpt lat="42.88226" lon="0.11815">
        <ele>1904</ele>
        <time>2019-03-21T14:47:25Z</time>
      </trkpt>
      <trkpt lat="42.88227" lon="0.11808">
        <ele>1904</ele>
        <time>2019-03-21T14:47:27Z</time>
      </trkpt>
      <trkpt lat="42.88225" lon="0.11802">
        <ele>1903</ele>
        <time>2019-03-21T14:47:29Z</time>
      </trkpt>
      <trkpt lat="42.88227" lon="0.11798">
        <ele>1903</ele>
        <time>2019-03-21T14:47:30Z</time>
      </trkpt>
      <trkpt lat="42.8823" lon="0.11796">
        <ele>1903</ele>
        <time>2019-03-21T14:47:31Z</time>
      </trkpt>
      <trkpt lat="42.88232" lon="0.11792">
        <ele>1903</ele>
        <time>2019-03-21T14:47:32Z</time>
      </trkpt>
      <trkpt lat="42.88232" lon="0.11789">
        <ele>1902</ele>
        <time>2019-03-21T14:47:33Z</time>
      </trkpt>
      <trkpt lat="42.88231" lon="0.11784">
        <ele>1902</ele>
        <time>2019-03-21T14:47:35Z</time>
      </trkpt>
      <trkpt lat="42.88234" lon="0.11779">
        <ele>1901</ele>
        <time>2019-03-21T14:47:44Z</time>
      </trkpt>
      <trkpt lat="42.88235" lon="0.11774">
        <ele>1900</ele>
        <time>2019-03-21T14:47:46Z</time>
      </trkpt>
      <trkpt lat="42.88235" lon="0.11766">
        <ele>1899</ele>
        <time>2019-03-21T14:47:49Z</time>
      </trkpt>
      <trkpt lat="42.88235" lon="0.11762">
        <ele>1899</ele>
        <time>2019-03-21T14:47:50Z</time>
      </trkpt>
      <trkpt lat="42.88236" lon="0.11737">
        <ele>1897</ele>
        <time>2019-03-21T14:47:56Z</time>
      </trkpt>
      <trkpt lat="42.88236" lon="0.11721">
        <ele>1894</ele>
        <time>2019-03-21T14:48:03Z</time>
      </trkpt>
      <trkpt lat="42.88236" lon="0.11717">
        <ele>1894</ele>
        <time>2019-03-21T14:48:04Z</time>
      </trkpt>
      <trkpt lat="42.88237" lon="0.11713">
        <ele>1893</ele>
        <time>2019-03-21T14:48:05Z</time>
      </trkpt>
      <trkpt lat="42.88236" lon="0.11708">
        <ele>1893</ele>
        <time>2019-03-21T14:48:06Z</time>
      </trkpt>
      <trkpt lat="42.88236" lon="0.11703">
        <ele>1892</ele>
        <time>2019-03-21T14:48:07Z</time>
      </trkpt>
      <trkpt lat="42.88239" lon="0.11683">
        <ele>1886</ele>
        <time>2019-03-21T14:48:11Z</time>
      </trkpt>
      <trkpt lat="42.88245" lon="0.1166">
        <ele>1875</ele>
        <time>2019-03-21T14:48:15Z</time>
      </trkpt>
      <trkpt lat="42.88246" lon="0.11642">
        <ele>1872</ele>
        <time>2019-03-21T14:48:19Z</time>
      </trkpt>
      <trkpt lat="42.88247" lon="0.11633">
        <ele>1870</ele>
        <time>2019-03-21T14:48:22Z</time>
      </trkpt>
      <trkpt lat="42.88243" lon="0.11623">
        <ele>1855</ele>
        <time>2019-03-21T14:50:58Z</time>
      </trkpt>
      <trkpt lat="42.88234" lon="0.11599">
        <ele>1847</ele>
        <time>2019-03-21T14:51:08Z</time>
      </trkpt>
      <trkpt lat="42.88235" lon="0.11584">
        <ele>1845</ele>
        <time>2019-03-21T14:51:14Z</time>
      </trkpt>
      <trkpt lat="42.88235" lon="0.11577">
        <ele>1845</ele>
        <time>2019-03-21T14:51:16Z</time>
      </trkpt>
      <trkpt lat="42.88233" lon="0.1157">
        <ele>1844</ele>
        <time>2019-03-21T14:51:18Z</time>
      </trkpt>
      <trkpt lat="42.88235" lon="0.11565">
        <ele>1843</ele>
        <time>2019-03-21T14:51:19Z</time>
      </trkpt>
      <trkpt lat="42.88237" lon="0.11555">
        <ele>1843</ele>
        <time>2019-03-21T14:51:21Z</time>
      </trkpt>
      <trkpt lat="42.88236" lon="0.11543">
        <ele>1841</ele>
        <time>2019-03-21T14:51:34Z</time>
      </trkpt>
      <trkpt lat="42.88236" lon="0.11538">
        <ele>1840</ele>
        <time>2019-03-21T14:51:36Z</time>
      </trkpt>
      <trkpt lat="42.88235" lon="0.11534">
        <ele>1840</ele>
        <time>2019-03-21T14:51:38Z</time>
      </trkpt>
      <trkpt lat="42.88229" lon="0.11506">
        <ele>1836</ele>
        <time>2019-03-21T14:51:45Z</time>
      </trkpt>
      <trkpt lat="42.88228" lon="0.11498">
        <ele>1835</ele>
        <time>2019-03-21T14:51:49Z</time>
      </trkpt>
      <trkpt lat="42.88226" lon="0.11495">
        <ele>1834</ele>
        <time>2019-03-21T14:51:50Z</time>
      </trkpt>
      <trkpt lat="42.88222" lon="0.11478">
        <ele>1834</ele>
        <time>2019-03-21T14:51:53Z</time>
      </trkpt>
      <trkpt lat="42.88222" lon="0.11474">
        <ele>1834</ele>
        <time>2019-03-21T14:51:54Z</time>
      </trkpt>
      <trkpt lat="42.88222" lon="0.1147">
        <ele>1833</ele>
        <time>2019-03-21T14:51:55Z</time>
      </trkpt>
      <trkpt lat="42.88225" lon="0.11463">
        <ele>1833</ele>
        <time>2019-03-21T14:51:57Z</time>
      </trkpt>
      <trkpt lat="42.88226" lon="0.1146">
        <ele>1833</ele>
        <time>2019-03-21T14:51:58Z</time>
      </trkpt>
      <trkpt lat="42.88229" lon="0.11457">
        <ele>1833</ele>
        <time>2019-03-21T14:51:59Z</time>
      </trkpt>
      <trkpt lat="42.88233" lon="0.11459">
        <ele>1832</ele>
        <time>2019-03-21T14:52:01Z</time>
      </trkpt>
      <trkpt lat="42.88236" lon="0.11454">
        <ele>1832</ele>
        <time>2019-03-21T14:52:03Z</time>
      </trkpt>
      <trkpt lat="42.88236" lon="0.11449">
        <ele>1832</ele>
        <time>2019-03-21T14:52:05Z</time>
      </trkpt>
      <trkpt lat="42.88237" lon="0.11445">
        <ele>1831</ele>
        <time>2019-03-21T14:52:07Z</time>
      </trkpt>
      <trkpt lat="42.88237" lon="0.1144">
        <ele>1830</ele>
        <time>2019-03-21T14:52:13Z</time>
      </trkpt>
      <trkpt lat="42.88237" lon="0.11433">
        <ele>1830</ele>
        <time>2019-03-21T14:52:15Z</time>
      </trkpt>
      <trkpt lat="42.88241" lon="0.11426">
        <ele>1829</ele>
        <time>2019-03-21T14:52:28Z</time>
      </trkpt>
      <trkpt lat="42.88245" lon="0.11428">
        <ele>1828</ele>
        <time>2019-03-21T14:52:50Z</time>
      </trkpt>
      <trkpt lat="42.88248" lon="0.11424">
        <ele>1828</ele>
        <time>2019-03-21T14:52:52Z</time>
      </trkpt>
      <trkpt lat="42.88256" lon="0.11426">
        <ele>1827</ele>
        <time>2019-03-21T14:52:56Z</time>
      </trkpt>
      <trkpt lat="42.88263" lon="0.11433">
        <ele>1827</ele>
        <time>2019-03-21T14:53:00Z</time>
      </trkpt>
      <trkpt lat="42.88268" lon="0.11434">
        <ele>1826</ele>
        <time>2019-03-21T14:53:02Z</time>
      </trkpt>
      <trkpt lat="42.88269" lon="0.1143">
        <ele>1826</ele>
        <time>2019-03-21T14:53:04Z</time>
      </trkpt>
      <trkpt lat="42.88273" lon="0.11426">
        <ele>1826</ele>
        <time>2019-03-21T14:53:06Z</time>
      </trkpt>
      <trkpt lat="42.88274" lon="0.11423">
        <ele>1826</ele>
        <time>2019-03-21T14:53:07Z</time>
      </trkpt>
      <trkpt lat="42.88273" lon="0.11419">
        <ele>1826</ele>
        <time>2019-03-21T14:53:08Z</time>
      </trkpt>
      <trkpt lat="42.88275" lon="0.11416">
        <ele>1826</ele>
        <time>2019-03-21T14:53:09Z</time>
      </trkpt>
      <trkpt lat="42.88277" lon="0.11411">
        <ele>1825</ele>
        <time>2019-03-21T14:53:10Z</time>
      </trkpt>
      <trkpt lat="42.88277" lon="0.11406">
        <ele>1824</ele>
        <time>2019-03-21T14:53:11Z</time>
      </trkpt>
      <trkpt lat="42.88279" lon="0.114">
        <ele>1824</ele>
        <time>2019-03-21T14:53:12Z</time>
      </trkpt>
      <trkpt lat="42.8828" lon="0.11396">
        <ele>1824</ele>
        <time>2019-03-21T14:53:13Z</time>
      </trkpt>
      <trkpt lat="42.88279" lon="0.1139">
        <ele>1824</ele>
        <time>2019-03-21T14:53:15Z</time>
      </trkpt>
      <trkpt lat="42.88281" lon="0.11386">
        <ele>1824</ele>
        <time>2019-03-21T14:53:16Z</time>
      </trkpt>
      <trkpt lat="42.88281" lon="0.11381">
        <ele>1823</ele>
        <time>2019-03-21T14:53:17Z</time>
      </trkpt>
      <trkpt lat="42.88279" lon="0.11375">
        <ele>1822</ele>
        <time>2019-03-21T14:53:18Z</time>
      </trkpt>
      <trkpt lat="42.8828" lon="0.1137">
        <ele>1821</ele>
        <time>2019-03-21T14:53:19Z</time>
      </trkpt>
      <trkpt lat="42.8828" lon="0.11363">
        <ele>1821</ele>
        <time>2019-03-21T14:53:20Z</time>
      </trkpt>
      <trkpt lat="42.88281" lon="0.11359">
        <ele>1820</ele>
        <time>2019-03-21T14:53:21Z</time>
      </trkpt>
      <trkpt lat="42.88284" lon="0.11356">
        <ele>1820</ele>
        <time>2019-03-21T14:53:23Z</time>
      </trkpt>
      <trkpt lat="42.88287" lon="0.11352">
        <ele>1819</ele>
        <time>2019-03-21T14:53:34Z</time>
      </trkpt>
      <trkpt lat="42.88287" lon="0.11347">
        <ele>1819</ele>
        <time>2019-03-21T14:53:50Z</time>
      </trkpt>
      <trkpt lat="42.88287" lon="0.11344">
        <ele>1817</ele>
        <time>2019-03-21T14:53:52Z</time>
      </trkpt>
      <trkpt lat="42.88286" lon="0.11339">
        <ele>1817</ele>
        <time>2019-03-21T14:53:54Z</time>
      </trkpt>
      <trkpt lat="42.88289" lon="0.11336">
        <ele>1816</ele>
        <time>2019-03-21T14:53:58Z</time>
      </trkpt>
      <trkpt lat="42.8829" lon="0.11332">
        <ele>1815</ele>
        <time>2019-03-21T14:54:00Z</time>
      </trkpt>
      <trkpt lat="42.88289" lon="0.11328">
        <ele>1813</ele>
        <time>2019-03-21T14:54:01Z</time>
      </trkpt>
      <trkpt lat="42.88291" lon="0.11322">
        <ele>1812</ele>
        <time>2019-03-21T14:54:02Z</time>
      </trkpt>
      <trkpt lat="42.88295" lon="0.11317">
        <ele>1809</ele>
        <time>2019-03-21T14:54:03Z</time>
      </trkpt>
      <trkpt lat="42.883" lon="0.11315">
        <ele>1808</ele>
        <time>2019-03-21T14:54:04Z</time>
      </trkpt>
      <trkpt lat="42.88302" lon="0.11312">
        <ele>1807</ele>
        <time>2019-03-21T14:54:05Z</time>
      </trkpt>
      <trkpt lat="42.88302" lon="0.11309">
        <ele>1807</ele>
        <time>2019-03-21T14:54:06Z</time>
      </trkpt>
      <trkpt lat="42.883" lon="0.11304">
        <ele>1807</ele>
        <time>2019-03-21T14:54:07Z</time>
      </trkpt>
      <trkpt lat="42.88304" lon="0.113">
        <ele>1806</ele>
        <time>2019-03-21T14:54:09Z</time>
      </trkpt>
      <trkpt lat="42.88307" lon="0.11298">
        <ele>1806</ele>
        <time>2019-03-21T14:54:10Z</time>
      </trkpt>
      <trkpt lat="42.88309" lon="0.11295">
        <ele>1806</ele>
        <time>2019-03-21T14:54:11Z</time>
      </trkpt>
      <trkpt lat="42.88312" lon="0.11292">
        <ele>1805</ele>
        <time>2019-03-21T14:54:12Z</time>
      </trkpt>
      <trkpt lat="42.88315" lon="0.11288">
        <ele>1804</ele>
        <time>2019-03-21T14:54:13Z</time>
      </trkpt>
      <trkpt lat="42.88313" lon="0.11279">
        <ele>1803</ele>
        <time>2019-03-21T14:54:15Z</time>
      </trkpt>
      <trkpt lat="42.8831" lon="0.11265">
        <ele>1800</ele>
        <time>2019-03-21T14:54:17Z</time>
      </trkpt>
      <trkpt lat="42.8831" lon="0.11247">
        <ele>1799</ele>
        <time>2019-03-21T14:54:20Z</time>
      </trkpt>
      <trkpt lat="42.88316" lon="0.11222">
        <ele>1797</ele>
        <time>2019-03-21T14:54:25Z</time>
      </trkpt>
      <trkpt lat="42.88318" lon="0.11215">
        <ele>1796</ele>
        <time>2019-03-21T14:54:26Z</time>
      </trkpt>
      <trkpt lat="42.88321" lon="0.1121">
        <ele>1795</ele>
        <time>2019-03-21T14:54:27Z</time>
      </trkpt>
      <trkpt lat="42.88325" lon="0.11209">
        <ele>1795</ele>
        <time>2019-03-21T14:54:28Z</time>
      </trkpt>
      <trkpt lat="42.88327" lon="0.11204">
        <ele>1794</ele>
        <time>2019-03-21T14:54:29Z</time>
      </trkpt>
      <trkpt lat="42.88329" lon="0.11197">
        <ele>1793</ele>
        <time>2019-03-21T14:54:30Z</time>
      </trkpt>
      <trkpt lat="42.88335" lon="0.11197">
        <ele>1792</ele>
        <time>2019-03-21T14:54:31Z</time>
      </trkpt>
      <trkpt lat="42.88339" lon="0.11193">
        <ele>1792</ele>
        <time>2019-03-21T14:54:32Z</time>
      </trkpt>
      <trkpt lat="42.88341" lon="0.11187">
        <ele>1791</ele>
        <time>2019-03-21T14:54:33Z</time>
      </trkpt>
      <trkpt lat="42.88343" lon="0.1118">
        <ele>1789</ele>
        <time>2019-03-21T14:54:34Z</time>
      </trkpt>
      <trkpt lat="42.88348" lon="0.11179">
        <ele>1788</ele>
        <time>2019-03-21T14:54:35Z</time>
      </trkpt>
      <trkpt lat="42.88353" lon="0.11177">
        <ele>1787</ele>
        <time>2019-03-21T14:54:36Z</time>
      </trkpt>
      <trkpt lat="42.88355" lon="0.11173">
        <ele>1786</ele>
        <time>2019-03-21T14:54:37Z</time>
      </trkpt>
      <trkpt lat="42.88357" lon="0.11168">
        <ele>1785</ele>
        <time>2019-03-21T14:54:38Z</time>
      </trkpt>
      <trkpt lat="42.8836" lon="0.11164">
        <ele>1784</ele>
        <time>2019-03-21T14:54:39Z</time>
      </trkpt>
      <trkpt lat="42.88364" lon="0.11165">
        <ele>1784</ele>
        <time>2019-03-21T14:54:40Z</time>
      </trkpt>
      <trkpt lat="42.88367" lon="0.11165">
        <ele>1783</ele>
        <time>2019-03-21T14:54:41Z</time>
      </trkpt>
      <trkpt lat="42.88369" lon="0.11161">
        <ele>1783</ele>
        <time>2019-03-21T14:54:42Z</time>
      </trkpt>
      <trkpt lat="42.88371" lon="0.11156">
        <ele>1783</ele>
        <time>2019-03-21T14:54:43Z</time>
      </trkpt>
      <trkpt lat="42.88367" lon="0.11161">
        <ele>1782</ele>
        <time>2019-03-21T14:54:55Z</time>
      </trkpt>
      <trkpt lat="42.88371" lon="0.11163">
        <ele>1780</ele>
        <time>2019-03-21T14:54:59Z</time>
      </trkpt>
      <trkpt lat="42.88374" lon="0.11164">
        <ele>1779</ele>
        <time>2019-03-21T14:55:01Z</time>
      </trkpt>
      <trkpt lat="42.88377" lon="0.11161">
        <ele>1779</ele>
        <time>2019-03-21T14:55:06Z</time>
      </trkpt>
      <trkpt lat="42.8838" lon="0.11161">
        <ele>1777</ele>
        <time>2019-03-21T14:55:14Z</time>
      </trkpt>
      <trkpt lat="42.88384" lon="0.11158">
        <ele>1776</ele>
        <time>2019-03-21T14:55:30Z</time>
      </trkpt>
      <trkpt lat="42.88385" lon="0.11155">
        <ele>1774</ele>
        <time>2019-03-21T14:55:38Z</time>
      </trkpt>
      <trkpt lat="42.88387" lon="0.11153">
        <ele>1773</ele>
        <time>2019-03-21T14:55:42Z</time>
      </trkpt>
      <trkpt lat="42.88388" lon="0.11144">
        <ele>1772</ele>
        <time>2019-03-21T14:55:46Z</time>
      </trkpt>
      <trkpt lat="42.88389" lon="0.11141">
        <ele>1771</ele>
        <time>2019-03-21T14:55:47Z</time>
      </trkpt>
      <trkpt lat="42.88394" lon="0.11136">
        <ele>1770</ele>
        <time>2019-03-21T14:55:56Z</time>
      </trkpt>
      <trkpt lat="42.88398" lon="0.11134">
        <ele>1769</ele>
        <time>2019-03-21T14:55:57Z</time>
      </trkpt>
      <trkpt lat="42.88403" lon="0.11125">
        <ele>1767</ele>
        <time>2019-03-21T14:56:19Z</time>
      </trkpt>
      <trkpt lat="42.88405" lon="0.1112">
        <ele>1767</ele>
        <time>2019-03-21T14:56:21Z</time>
      </trkpt>
      <trkpt lat="42.88407" lon="0.11122">
        <ele>1765</ele>
        <time>2019-03-21T14:57:43Z</time>
      </trkpt>
      <trkpt lat="42.88407" lon="0.11117">
        <ele>1765</ele>
        <time>2019-03-21T14:57:56Z</time>
      </trkpt>
      <trkpt lat="42.88433" lon="0.11083">
        <ele>1761</ele>
        <time>2019-03-21T14:58:14Z</time>
      </trkpt>
      <trkpt lat="42.8844" lon="0.11061">
        <ele>1761</ele>
        <time>2019-03-21T14:58:21Z</time>
      </trkpt>
      <trkpt lat="42.88474" lon="0.11022">
        <ele>1760</ele>
        <time>2019-03-21T14:58:38Z</time>
      </trkpt>
      <trkpt lat="42.88488" lon="0.11017">
        <ele>1759</ele>
        <time>2019-03-21T14:58:44Z</time>
      </trkpt>
      <trkpt lat="42.88519" lon="0.10992">
        <ele>1757</ele>
        <time>2019-03-21T14:58:54Z</time>
      </trkpt>
      <trkpt lat="42.88523" lon="0.10988">
        <ele>1756</ele>
        <time>2019-03-21T14:58:55Z</time>
      </trkpt>
      <trkpt lat="42.88527" lon="0.10982">
        <ele>1756</ele>
        <time>2019-03-21T14:58:56Z</time>
      </trkpt>
      <trkpt lat="42.88536" lon="0.10977">
        <ele>1755</ele>
        <time>2019-03-21T14:58:58Z</time>
      </trkpt>
      <trkpt lat="42.88542" lon="0.10969">
        <ele>1754</ele>
        <time>2019-03-21T14:59:00Z</time>
      </trkpt>
      <trkpt lat="42.88544" lon="0.10962">
        <ele>1754</ele>
        <time>2019-03-21T14:59:01Z</time>
      </trkpt>
      <trkpt lat="42.88548" lon="0.10959">
        <ele>1754</ele>
        <time>2019-03-21T14:59:02Z</time>
      </trkpt>
      <trkpt lat="42.88552" lon="0.10954">
        <ele>1754</ele>
        <time>2019-03-21T14:59:03Z</time>
      </trkpt>
      <trkpt lat="42.88555" lon="0.10948">
        <ele>1753</ele>
        <time>2019-03-21T14:59:04Z</time>
      </trkpt>
      <trkpt lat="42.88559" lon="0.10945">
        <ele>1753</ele>
        <time>2019-03-21T14:59:05Z</time>
      </trkpt>
      <trkpt lat="42.88564" lon="0.10942">
        <ele>1753</ele>
        <time>2019-03-21T14:59:06Z</time>
      </trkpt>
      <trkpt lat="42.88566" lon="0.10934">
        <ele>1753</ele>
        <time>2019-03-21T14:59:07Z</time>
      </trkpt>
      <trkpt lat="42.8857" lon="0.10931">
        <ele>1753</ele>
        <time>2019-03-21T14:59:08Z</time>
      </trkpt>
      <trkpt lat="42.88574" lon="0.10929">
        <ele>1753</ele>
        <time>2019-03-21T14:59:09Z</time>
      </trkpt>
      <trkpt lat="42.88575" lon="0.10925">
        <ele>1753</ele>
        <time>2019-03-21T14:59:10Z</time>
      </trkpt>
      <trkpt lat="42.88578" lon="0.10923">
        <ele>1752</ele>
        <time>2019-03-21T14:59:11Z</time>
      </trkpt>
      <trkpt lat="42.88583" lon="0.10921">
        <ele>1752</ele>
        <time>2019-03-21T14:59:13Z</time>
      </trkpt>
      <trkpt lat="42.88583" lon="0.10916">
        <ele>1752</ele>
        <time>2019-03-21T14:59:14Z</time>
      </trkpt>
      <trkpt lat="42.88586" lon="0.10911">
        <ele>1752</ele>
        <time>2019-03-21T14:59:15Z</time>
      </trkpt>
      <trkpt lat="42.8859" lon="0.10909">
        <ele>1752</ele>
        <time>2019-03-21T14:59:16Z</time>
      </trkpt>
      <trkpt lat="42.88595" lon="0.10907">
        <ele>1752</ele>
        <time>2019-03-21T14:59:17Z</time>
      </trkpt>
      <trkpt lat="42.88599" lon="0.10907">
        <ele>1752</ele>
        <time>2019-03-21T14:59:18Z</time>
      </trkpt>
      <trkpt lat="42.886" lon="0.10904">
        <ele>1751</ele>
        <time>2019-03-21T14:59:19Z</time>
      </trkpt>
      <trkpt lat="42.886" lon="0.10899">
        <ele>1751</ele>
        <time>2019-03-21T14:59:20Z</time>
      </trkpt>
      <trkpt lat="42.88603" lon="0.10895">
        <ele>1751</ele>
        <time>2019-03-21T14:59:22Z</time>
      </trkpt>
      <trkpt lat="42.88602" lon="0.10891">
        <ele>1751</ele>
        <time>2019-03-21T14:59:23Z</time>
      </trkpt>
      <trkpt lat="42.88607" lon="0.10885">
        <ele>1751</ele>
        <time>2019-03-21T14:59:25Z</time>
      </trkpt>
      <trkpt lat="42.88608" lon="0.1088">
        <ele>1751</ele>
        <time>2019-03-21T14:59:26Z</time>
      </trkpt>
      <trkpt lat="42.88615" lon="0.10861">
        <ele>1749</ele>
        <time>2019-03-21T14:59:33Z</time>
      </trkpt>
      <trkpt lat="42.88614" lon="0.10866">
        <ele>1749</ele>
        <time>2019-03-21T14:59:51Z</time>
      </trkpt>
      <trkpt lat="42.88616" lon="0.10866">
        <ele>1748</ele>
        <time>2019-03-21T15:00:13Z</time>
      </trkpt>
      <trkpt lat="42.88616" lon="0.1086">
        <ele>1748</ele>
        <time>2019-03-21T15:00:15Z</time>
      </trkpt>
      <trkpt lat="42.88616" lon="0.10853">
        <ele>1745</ele>
        <time>2019-03-21T15:00:17Z</time>
      </trkpt>
      <trkpt lat="42.88618" lon="0.1085">
        <ele>1745</ele>
        <time>2019-03-21T15:00:18Z</time>
      </trkpt>
      <trkpt lat="42.88621" lon="0.1085">
        <ele>1744</ele>
        <time>2019-03-21T15:00:20Z</time>
      </trkpt>
      <trkpt lat="42.8862" lon="0.10846">
        <ele>1744</ele>
        <time>2019-03-21T15:00:21Z</time>
      </trkpt>
      <trkpt lat="42.88623" lon="0.10843">
        <ele>1742</ele>
        <time>2019-03-21T15:00:22Z</time>
      </trkpt>
      <trkpt lat="42.88623" lon="0.10838">
        <ele>1741</ele>
        <time>2019-03-21T15:00:23Z</time>
      </trkpt>
      <trkpt lat="42.88621" lon="0.10829">
        <ele>1737</ele>
        <time>2019-03-21T15:00:25Z</time>
      </trkpt>
      <trkpt lat="42.88622" lon="0.10823">
        <ele>1736</ele>
        <time>2019-03-21T15:00:26Z</time>
      </trkpt>
      <trkpt lat="42.88625" lon="0.1082">
        <ele>1736</ele>
        <time>2019-03-21T15:00:27Z</time>
      </trkpt>
      <trkpt lat="42.88628" lon="0.10822">
        <ele>1735</ele>
        <time>2019-03-21T15:00:28Z</time>
      </trkpt>
      <trkpt lat="42.8863" lon="0.10826">
        <ele>1735</ele>
        <time>2019-03-21T15:00:29Z</time>
      </trkpt>
      <trkpt lat="42.88634" lon="0.1083">
        <ele>1734</ele>
        <time>2019-03-21T15:00:31Z</time>
      </trkpt>
      <trkpt lat="42.88638" lon="0.10829">
        <ele>1733</ele>
        <time>2019-03-21T15:00:32Z</time>
      </trkpt>
      <trkpt lat="42.88641" lon="0.10831">
        <ele>1733</ele>
        <time>2019-03-21T15:00:34Z</time>
      </trkpt>
      <trkpt lat="42.88649" lon="0.10833">
        <ele>1732</ele>
        <time>2019-03-21T15:00:36Z</time>
      </trkpt>
      <trkpt lat="42.88655" lon="0.10836">
        <ele>1731</ele>
        <time>2019-03-21T15:00:38Z</time>
      </trkpt>
      <trkpt lat="42.88659" lon="0.10834">
        <ele>1730</ele>
        <time>2019-03-21T15:00:39Z</time>
      </trkpt>
      <trkpt lat="42.88667" lon="0.10836">
        <ele>1730</ele>
        <time>2019-03-21T15:00:41Z</time>
      </trkpt>
      <trkpt lat="42.8867" lon="0.10834">
        <ele>1730</ele>
        <time>2019-03-21T15:00:42Z</time>
      </trkpt>
      <trkpt lat="42.88675" lon="0.10834">
        <ele>1730</ele>
        <time>2019-03-21T15:00:44Z</time>
      </trkpt>
      <trkpt lat="42.88683" lon="0.10841">
        <ele>1729</ele>
        <time>2019-03-21T15:00:49Z</time>
      </trkpt>
      <trkpt lat="42.88687" lon="0.10844">
        <ele>1729</ele>
        <time>2019-03-21T15:00:53Z</time>
      </trkpt>
      <trkpt lat="42.8871" lon="0.10841">
        <ele>1728</ele>
        <time>2019-03-21T15:01:07Z</time>
      </trkpt>
      <trkpt lat="42.88715" lon="0.10839">
        <ele>1728</ele>
        <time>2019-03-21T15:01:27Z</time>
      </trkpt>
      <trkpt lat="42.88719" lon="0.1084">
        <ele>1727</ele>
        <time>2019-03-21T15:01:47Z</time>
      </trkpt>
      <trkpt lat="42.88722" lon="0.10839">
        <ele>1727</ele>
        <time>2019-03-21T15:01:51Z</time>
      </trkpt>
      <trkpt lat="42.88727" lon="0.10837">
        <ele>1726</ele>
        <time>2019-03-21T15:01:57Z</time>
      </trkpt>
      <trkpt lat="42.8873" lon="0.10839">
        <ele>1726</ele>
        <time>2019-03-21T15:02:00Z</time>
      </trkpt>
      <trkpt lat="42.88733" lon="0.10844">
        <ele>1725</ele>
        <time>2019-03-21T15:02:29Z</time>
      </trkpt>
      <trkpt lat="42.88736" lon="0.10843">
        <ele>1724</ele>
        <time>2019-03-21T15:02:44Z</time>
      </trkpt>
      <trkpt lat="42.88739" lon="0.10839">
        <ele>1724</ele>
        <time>2019-03-21T15:02:49Z</time>
      </trkpt>
      <trkpt lat="42.88743" lon="0.10837">
        <ele>1723</ele>
        <time>2019-03-21T15:02:51Z</time>
      </trkpt>
      <trkpt lat="42.88748" lon="0.10835">
        <ele>1723</ele>
        <time>2019-03-21T15:02:55Z</time>
      </trkpt>
      <trkpt lat="42.88758" lon="0.10831">
        <ele>1722</ele>
        <time>2019-03-21T15:02:59Z</time>
      </trkpt>
      <trkpt lat="42.88762" lon="0.10829">
        <ele>1722</ele>
        <time>2019-03-21T15:03:02Z</time>
      </trkpt>
      <trkpt lat="42.88765" lon="0.10827">
        <ele>1721</ele>
        <time>2019-03-21T15:04:23Z</time>
      </trkpt>
      <trkpt lat="42.8877" lon="0.10825">
        <ele>1719</ele>
        <time>2019-03-21T15:05:19Z</time>
      </trkpt>
      <trkpt lat="42.88774" lon="0.10823">
        <ele>1719</ele>
        <time>2019-03-21T15:05:21Z</time>
      </trkpt>
      <trkpt lat="42.88779" lon="0.10822">
        <ele>1718</ele>
        <time>2019-03-21T15:05:24Z</time>
      </trkpt>
      <trkpt lat="42.88792" lon="0.10818">
        <ele>1717</ele>
        <time>2019-03-21T15:05:28Z</time>
      </trkpt>
      <trkpt lat="42.88802" lon="0.10814">
        <ele>1717</ele>
        <time>2019-03-21T15:05:31Z</time>
      </trkpt>
      <trkpt lat="42.88829" lon="0.10801">
        <ele>1715</ele>
        <time>2019-03-21T15:05:42Z</time>
      </trkpt>
      <trkpt lat="42.88843" lon="0.10796">
        <ele>1715</ele>
        <time>2019-03-21T15:05:46Z</time>
      </trkpt>
      <trkpt lat="42.88861" lon="0.10789">
        <ele>1713</ele>
        <time>2019-03-21T15:05:52Z</time>
      </trkpt>
      <trkpt lat="42.88872" lon="0.10787">
        <ele>1713</ele>
        <time>2019-03-21T15:05:55Z</time>
      </trkpt>
      <trkpt lat="42.88909" lon="0.10775">
        <ele>1710</ele>
        <time>2019-03-21T15:06:03Z</time>
      </trkpt>
      <trkpt lat="42.88939" lon="0.10759">
        <ele>1708</ele>
        <time>2019-03-21T15:06:10Z</time>
      </trkpt>
      <trkpt lat="42.8896" lon="0.10751">
        <ele>1707</ele>
        <time>2019-03-21T15:06:16Z</time>
      </trkpt>
      <trkpt lat="42.89046" lon="0.10745">
        <ele>1691</ele>
        <time>2019-03-21T15:06:42Z</time>
      </trkpt>
      <trkpt lat="42.89075" lon="0.10734">
        <ele>1686</ele>
        <time>2019-03-21T15:06:48Z</time>
      </trkpt>
      <trkpt lat="42.89079" lon="0.10729">
        <ele>1686</ele>
        <time>2019-03-21T15:06:50Z</time>
      </trkpt>
      <trkpt lat="42.89086" lon="0.10725">
        <ele>1685</ele>
        <time>2019-03-21T15:06:52Z</time>
      </trkpt>
      <trkpt lat="42.89101" lon="0.10723">
        <ele>1684</ele>
        <time>2019-03-21T15:06:56Z</time>
      </trkpt>
      <trkpt lat="42.89108" lon="0.10724">
        <ele>1682</ele>
        <time>2019-03-21T15:06:58Z</time>
      </trkpt>
      <trkpt lat="42.8917" lon="0.10718">
        <ele>1677</ele>
        <time>2019-03-21T15:07:13Z</time>
      </trkpt>
      <trkpt lat="42.89191" lon="0.1072">
        <ele>1675</ele>
        <time>2019-03-21T15:07:44Z</time>
      </trkpt>
      <trkpt lat="42.8922" lon="0.10729">
        <ele>1675</ele>
        <time>2019-03-21T15:07:54Z</time>
      </trkpt>
      <trkpt lat="42.89255" lon="0.10732">
        <ele>1672</ele>
        <time>2019-03-21T15:08:02Z</time>
      </trkpt>
      <trkpt lat="42.893" lon="0.10743">
        <ele>1670</ele>
        <time>2019-03-21T15:08:15Z</time>
      </trkpt>
      <trkpt lat="42.89308" lon="0.10747">
        <ele>1669</ele>
        <time>2019-03-21T15:08:18Z</time>
      </trkpt>
      <trkpt lat="42.89314" lon="0.10754">
        <ele>1668</ele>
        <time>2019-03-21T15:08:25Z</time>
      </trkpt>
      <trkpt lat="42.89321" lon="0.1076">
        <ele>1665</ele>
        <time>2019-03-21T15:08:32Z</time>
      </trkpt>
      <trkpt lat="42.89346" lon="0.10785">
        <ele>1659</ele>
        <time>2019-03-21T15:08:46Z</time>
      </trkpt>
      <trkpt lat="42.8935" lon="0.10787">
        <ele>1658</ele>
        <time>2019-03-21T15:08:50Z</time>
      </trkpt>
      <trkpt lat="42.89366" lon="0.10783">
        <ele>1655</ele>
        <time>2019-03-21T15:08:55Z</time>
      </trkpt>
      <trkpt lat="42.89374" lon="0.10787">
        <ele>1653</ele>
        <time>2019-03-21T15:09:00Z</time>
      </trkpt>
      <trkpt lat="42.89382" lon="0.10788">
        <ele>1652</ele>
        <time>2019-03-21T15:09:04Z</time>
      </trkpt>
      <trkpt lat="42.89411" lon="0.10793">
        <ele>1643</ele>
        <time>2019-03-21T15:09:13Z</time>
      </trkpt>
      <trkpt lat="42.89415" lon="0.10793">
        <ele>1643</ele>
        <time>2019-03-21T15:09:14Z</time>
      </trkpt>
      <trkpt lat="42.89474" lon="0.10793">
        <ele>1637</ele>
        <time>2019-03-21T15:09:36Z</time>
      </trkpt>
      <trkpt lat="42.89561" lon="0.10824">
        <ele>1629</ele>
        <time>2019-03-21T15:10:06Z</time>
      </trkpt>
      <trkpt lat="42.89565" lon="0.10827">
        <ele>1629</ele>
        <time>2019-03-21T15:10:09Z</time>
      </trkpt>
      <trkpt lat="42.89574" lon="0.10832">
        <ele>1628</ele>
        <time>2019-03-21T15:10:13Z</time>
      </trkpt>
      <trkpt lat="42.89585" lon="0.10834">
        <ele>1628</ele>
        <time>2019-03-21T15:10:18Z</time>
      </trkpt>
      <trkpt lat="42.89589" lon="0.10836">
        <ele>1628</ele>
        <time>2019-03-21T15:10:21Z</time>
      </trkpt>
      <trkpt lat="42.89649" lon="0.10831">
        <ele>1624</ele>
        <time>2019-03-21T15:10:39Z</time>
      </trkpt>
      <trkpt lat="42.89653" lon="0.10831">
        <ele>1624</ele>
        <time>2019-03-21T15:10:41Z</time>
      </trkpt>
      <trkpt lat="42.89657" lon="0.1083">
        <ele>1622</ele>
        <time>2019-03-21T15:12:44Z</time>
      </trkpt>
      <trkpt lat="42.89719" lon="0.10829">
        <ele>1617</ele>
        <time>2019-03-21T15:13:15Z</time>
      </trkpt>
      <trkpt lat="42.89764" lon="0.10816">
        <ele>1616</ele>
        <time>2019-03-21T15:13:29Z</time>
      </trkpt>
      <trkpt lat="42.89783" lon="0.10804">
        <ele>1616</ele>
        <time>2019-03-21T15:13:37Z</time>
      </trkpt>
      <trkpt lat="42.89787" lon="0.10801">
        <ele>1615</ele>
        <time>2019-03-21T15:13:38Z</time>
      </trkpt>
      <trkpt lat="42.8979" lon="0.10795">
        <ele>1615</ele>
        <time>2019-03-21T15:13:39Z</time>
      </trkpt>
      <trkpt lat="42.8979" lon="0.1079">
        <ele>1615</ele>
        <time>2019-03-21T15:13:40Z</time>
      </trkpt>
      <trkpt lat="42.89788" lon="0.10783">
        <ele>1615</ele>
        <time>2019-03-21T15:13:41Z</time>
      </trkpt>
      <trkpt lat="42.89789" lon="0.10777">
        <ele>1615</ele>
        <time>2019-03-21T15:13:42Z</time>
      </trkpt>
      <trkpt lat="42.89792" lon="0.10772">
        <ele>1615</ele>
        <time>2019-03-21T15:13:43Z</time>
      </trkpt>
      <trkpt lat="42.89793" lon="0.10766">
        <ele>1614</ele>
        <time>2019-03-21T15:13:44Z</time>
      </trkpt>
      <trkpt lat="42.89798" lon="0.10747">
        <ele>1613</ele>
        <time>2019-03-21T15:13:47Z</time>
      </trkpt>
      <trkpt lat="42.89799" lon="0.10741">
        <ele>1612</ele>
        <time>2019-03-21T15:13:48Z</time>
      </trkpt>
      <trkpt lat="42.89804" lon="0.10736">
        <ele>1612</ele>
        <time>2019-03-21T15:13:49Z</time>
      </trkpt>
      <trkpt lat="42.89812" lon="0.10734">
        <ele>1611</ele>
        <time>2019-03-21T15:13:51Z</time>
      </trkpt>
      <trkpt lat="42.89822" lon="0.10734">
        <ele>1610</ele>
        <time>2019-03-21T15:13:56Z</time>
      </trkpt>
      <trkpt lat="42.89829" lon="0.1073">
        <ele>1609</ele>
        <time>2019-03-21T15:13:58Z</time>
      </trkpt>
      <trkpt lat="42.89832" lon="0.10725">
        <ele>1607</ele>
        <time>2019-03-21T15:13:59Z</time>
      </trkpt>
      <trkpt lat="42.89833" lon="0.10718">
        <ele>1606</ele>
        <time>2019-03-21T15:14:00Z</time>
      </trkpt>
      <trkpt lat="42.89837" lon="0.10712">
        <ele>1605</ele>
        <time>2019-03-21T15:14:01Z</time>
      </trkpt>
      <trkpt lat="42.89842" lon="0.10703">
        <ele>1601</ele>
        <time>2019-03-21T15:14:03Z</time>
      </trkpt>
      <trkpt lat="42.89843" lon="0.10696">
        <ele>1600</ele>
        <time>2019-03-21T15:14:04Z</time>
      </trkpt>
      <trkpt lat="42.89846" lon="0.10691">
        <ele>1598</ele>
        <time>2019-03-21T15:14:05Z</time>
      </trkpt>
      <trkpt lat="42.89851" lon="0.10685">
        <ele>1597</ele>
        <time>2019-03-21T15:14:07Z</time>
      </trkpt>
      <trkpt lat="42.89852" lon="0.10679">
        <ele>1595</ele>
        <time>2019-03-21T15:14:08Z</time>
      </trkpt>
      <trkpt lat="42.89851" lon="0.10672">
        <ele>1594</ele>
        <time>2019-03-21T15:14:09Z</time>
      </trkpt>
      <trkpt lat="42.89852" lon="0.10667">
        <ele>1593</ele>
        <time>2019-03-21T15:14:10Z</time>
      </trkpt>
      <trkpt lat="42.89856" lon="0.10665">
        <ele>1592</ele>
        <time>2019-03-21T15:14:11Z</time>
      </trkpt>
      <trkpt lat="42.89859" lon="0.10662">
        <ele>1590</ele>
        <time>2019-03-21T15:14:12Z</time>
      </trkpt>
      <trkpt lat="42.8986" lon="0.10656">
        <ele>1589</ele>
        <time>2019-03-21T15:14:13Z</time>
      </trkpt>
      <trkpt lat="42.89861" lon="0.1065">
        <ele>1588</ele>
        <time>2019-03-21T15:14:14Z</time>
      </trkpt>
      <trkpt lat="42.89867" lon="0.1065">
        <ele>1587</ele>
        <time>2019-03-21T15:14:15Z</time>
      </trkpt>
      <trkpt lat="42.89871" lon="0.10649">
        <ele>1586</ele>
        <time>2019-03-21T15:14:16Z</time>
      </trkpt>
      <trkpt lat="42.89875" lon="0.10646">
        <ele>1585</ele>
        <time>2019-03-21T15:14:17Z</time>
      </trkpt>
      <trkpt lat="42.89879" lon="0.10641">
        <ele>1584</ele>
        <time>2019-03-21T15:14:18Z</time>
      </trkpt>
      <trkpt lat="42.8988" lon="0.10635">
        <ele>1583</ele>
        <time>2019-03-21T15:14:19Z</time>
      </trkpt>
      <trkpt lat="42.89882" lon="0.10628">
        <ele>1582</ele>
        <time>2019-03-21T15:14:20Z</time>
      </trkpt>
      <trkpt lat="42.89885" lon="0.10623">
        <ele>1581</ele>
        <time>2019-03-21T15:14:21Z</time>
      </trkpt>
      <trkpt lat="42.8989" lon="0.1062">
        <ele>1580</ele>
        <time>2019-03-21T15:14:23Z</time>
      </trkpt>
      <trkpt lat="42.89894" lon="0.10611">
        <ele>1578</ele>
        <time>2019-03-21T15:14:24Z</time>
      </trkpt>
      <trkpt lat="42.89898" lon="0.10603">
        <ele>1576</ele>
        <time>2019-03-21T15:14:25Z</time>
      </trkpt>
      <trkpt lat="42.89916" lon="0.10595">
        <ele>1570</ele>
        <time>2019-03-21T15:14:29Z</time>
      </trkpt>
      <trkpt lat="42.89921" lon="0.10593">
        <ele>1568</ele>
        <time>2019-03-21T15:14:30Z</time>
      </trkpt>
      <trkpt lat="42.89925" lon="0.10589">
        <ele>1567</ele>
        <time>2019-03-21T15:14:31Z</time>
      </trkpt>
      <trkpt lat="42.89929" lon="0.10581">
        <ele>1566</ele>
        <time>2019-03-21T15:14:32Z</time>
      </trkpt>
      <trkpt lat="42.89934" lon="0.10576">
        <ele>1565</ele>
        <time>2019-03-21T15:14:33Z</time>
      </trkpt>
      <trkpt lat="42.8994" lon="0.10575">
        <ele>1564</ele>
        <time>2019-03-21T15:14:34Z</time>
      </trkpt>
      <trkpt lat="42.89945" lon="0.10564">
        <ele>1562</ele>
        <time>2019-03-21T15:14:36Z</time>
      </trkpt>
      <trkpt lat="42.89948" lon="0.10557">
        <ele>1561</ele>
        <time>2019-03-21T15:14:37Z</time>
      </trkpt>
      <trkpt lat="42.89952" lon="0.10552">
        <ele>1560</ele>
        <time>2019-03-21T15:14:38Z</time>
      </trkpt>
      <trkpt lat="42.89956" lon="0.1055">
        <ele>1559</ele>
        <time>2019-03-21T15:14:39Z</time>
      </trkpt>
      <trkpt lat="42.89964" lon="0.10549">
        <ele>1557</ele>
        <time>2019-03-21T15:14:41Z</time>
      </trkpt>
      <trkpt lat="42.89969" lon="0.10545">
        <ele>1555</ele>
        <time>2019-03-21T15:14:42Z</time>
      </trkpt>
      <trkpt lat="42.89973" lon="0.10539">
        <ele>1554</ele>
        <time>2019-03-21T15:14:43Z</time>
      </trkpt>
      <trkpt lat="42.89974" lon="0.10531">
        <ele>1553</ele>
        <time>2019-03-21T15:14:44Z</time>
      </trkpt>
      <trkpt lat="42.89976" lon="0.10523">
        <ele>1552</ele>
        <time>2019-03-21T15:14:45Z</time>
      </trkpt>
      <trkpt lat="42.89986" lon="0.10517">
        <ele>1550</ele>
        <time>2019-03-21T15:14:47Z</time>
      </trkpt>
      <trkpt lat="42.89991" lon="0.10515">
        <ele>1548</ele>
        <time>2019-03-21T15:14:48Z</time>
      </trkpt>
      <trkpt lat="42.89995" lon="0.10511">
        <ele>1548</ele>
        <time>2019-03-21T15:14:49Z</time>
      </trkpt>
      <trkpt lat="42.89997" lon="0.10504">
        <ele>1546</ele>
        <time>2019-03-21T15:14:50Z</time>
      </trkpt>
      <trkpt lat="42.9" lon="0.10497">
        <ele>1545</ele>
        <time>2019-03-21T15:14:51Z</time>
      </trkpt>
      <trkpt lat="42.90013" lon="0.10492">
        <ele>1542</ele>
        <time>2019-03-21T15:14:54Z</time>
      </trkpt>
      <trkpt lat="42.90017" lon="0.10492">
        <ele>1542</ele>
        <time>2019-03-21T15:14:55Z</time>
      </trkpt>
      <trkpt lat="42.90022" lon="0.10489">
        <ele>1540</ele>
        <time>2019-03-21T15:14:56Z</time>
      </trkpt>
      <trkpt lat="42.90025" lon="0.10485">
        <ele>1540</ele>
        <time>2019-03-21T15:14:57Z</time>
      </trkpt>
      <trkpt lat="42.90027" lon="0.10478">
        <ele>1539</ele>
        <time>2019-03-21T15:14:58Z</time>
      </trkpt>
      <trkpt lat="42.90031" lon="0.10473">
        <ele>1538</ele>
        <time>2019-03-21T15:14:59Z</time>
      </trkpt>
      <trkpt lat="42.90044" lon="0.10472">
        <ele>1535</ele>
        <time>2019-03-21T15:15:02Z</time>
      </trkpt>
      <trkpt lat="42.90048" lon="0.10472">
        <ele>1535</ele>
        <time>2019-03-21T15:15:03Z</time>
      </trkpt>
      <trkpt lat="42.90052" lon="0.10469">
        <ele>1534</ele>
        <time>2019-03-21T15:15:04Z</time>
      </trkpt>
      <trkpt lat="42.90055" lon="0.10462">
        <ele>1533</ele>
        <time>2019-03-21T15:15:05Z</time>
      </trkpt>
      <trkpt lat="42.90058" lon="0.10457">
        <ele>1532</ele>
        <time>2019-03-21T15:15:06Z</time>
      </trkpt>
      <trkpt lat="42.90067" lon="0.10456">
        <ele>1531</ele>
        <time>2019-03-21T15:15:08Z</time>
      </trkpt>
      <trkpt lat="42.90071" lon="0.10457">
        <ele>1530</ele>
        <time>2019-03-21T15:15:09Z</time>
      </trkpt>
      <trkpt lat="42.90076" lon="0.10456">
        <ele>1530</ele>
        <time>2019-03-21T15:15:10Z</time>
      </trkpt>
      <trkpt lat="42.90078" lon="0.10453">
        <ele>1529</ele>
        <time>2019-03-21T15:15:11Z</time>
      </trkpt>
      <trkpt lat="42.90081" lon="0.10447">
        <ele>1528</ele>
        <time>2019-03-21T15:15:12Z</time>
      </trkpt>
      <trkpt lat="42.90084" lon="0.10441">
        <ele>1528</ele>
        <time>2019-03-21T15:15:13Z</time>
      </trkpt>
      <trkpt lat="42.90098" lon="0.10437">
        <ele>1526</ele>
        <time>2019-03-21T15:15:16Z</time>
      </trkpt>
      <trkpt lat="42.90109" lon="0.10433">
        <ele>1524</ele>
        <time>2019-03-21T15:15:18Z</time>
      </trkpt>
      <trkpt lat="42.90121" lon="0.10422">
        <ele>1523</ele>
        <time>2019-03-21T15:15:20Z</time>
      </trkpt>
      <trkpt lat="42.90136" lon="0.10411">
        <ele>1521</ele>
        <time>2019-03-21T15:15:23Z</time>
      </trkpt>
      <trkpt lat="42.9016" lon="0.10387">
        <ele>1518</ele>
        <time>2019-03-21T15:15:28Z</time>
      </trkpt>
      <trkpt lat="42.90165" lon="0.1038">
        <ele>1517</ele>
        <time>2019-03-21T15:15:29Z</time>
      </trkpt>
      <trkpt lat="42.9017" lon="0.10374">
        <ele>1516</ele>
        <time>2019-03-21T15:15:30Z</time>
      </trkpt>
      <trkpt lat="42.90191" lon="0.10365">
        <ele>1512</ele>
        <time>2019-03-21T15:15:34Z</time>
      </trkpt>
      <trkpt lat="42.90202" lon="0.10363">
        <ele>1509</ele>
        <time>2019-03-21T15:15:36Z</time>
      </trkpt>
      <trkpt lat="42.90315" lon="0.10326">
        <ele>1494</ele>
        <time>2019-03-21T15:15:59Z</time>
      </trkpt>
      <trkpt lat="42.90325" lon="0.10322">
        <ele>1493</ele>
        <time>2019-03-21T15:16:01Z</time>
      </trkpt>
      <trkpt lat="42.90334" lon="0.10314">
        <ele>1492</ele>
        <time>2019-03-21T15:16:03Z</time>
      </trkpt>
      <trkpt lat="42.90339" lon="0.10302">
        <ele>1492</ele>
        <time>2019-03-21T15:16:05Z</time>
      </trkpt>
      <trkpt lat="42.90339" lon="0.10291">
        <ele>1491</ele>
        <time>2019-03-21T15:16:07Z</time>
      </trkpt>
      <trkpt lat="42.9034" lon="0.10284">
        <ele>1491</ele>
        <time>2019-03-21T15:16:12Z</time>
      </trkpt>
      <trkpt lat="42.90343" lon="0.10286">
        <ele>1490</ele>
        <time>2019-03-21T15:16:54Z</time>
      </trkpt>
      <trkpt lat="42.90345" lon="0.10282">
        <ele>1489</ele>
        <time>2019-03-21T15:17:03Z</time>
      </trkpt>
      <trkpt lat="42.90348" lon="0.10278">
        <ele>1488</ele>
        <time>2019-03-21T15:17:13Z</time>
      </trkpt>
      <trkpt lat="42.9035" lon="0.10275">
        <ele>1487</ele>
        <time>2019-03-21T15:17:21Z</time>
      </trkpt>
      <trkpt lat="42.90357" lon="0.10275">
        <ele>1485</ele>
        <time>2019-03-21T15:17:36Z</time>
      </trkpt>
      <trkpt lat="42.90365" lon="0.10274">
        <ele>1485</ele>
        <time>2019-03-21T15:17:46Z</time>
      </trkpt>
      <trkpt lat="42.90369" lon="0.10273">
        <ele>1484</ele>
        <time>2019-03-21T15:18:19Z</time>
      </trkpt>
      <trkpt lat="42.90372" lon="0.10276">
        <ele>1483</ele>
        <time>2019-03-21T15:18:28Z</time>
      </trkpt>
      <trkpt lat="42.90379" lon="0.10271">
        <ele>1482</ele>
        <time>2019-03-21T15:18:37Z</time>
      </trkpt>
      <trkpt lat="42.90389" lon="0.10226">
        <ele>1480</ele>
        <time>2019-03-21T15:19:08Z</time>
      </trkpt>
      <trkpt lat="42.90393" lon="0.10217">
        <ele>1480</ele>
        <time>2019-03-21T15:19:15Z</time>
      </trkpt>
      <trkpt lat="42.90396" lon="0.10212">
        <ele>1480</ele>
        <time>2019-03-21T15:19:19Z</time>
      </trkpt>
      <trkpt lat="42.90397" lon="0.10207">
        <ele>1479</ele>
        <time>2019-03-21T15:19:49Z</time>
      </trkpt>
    </trkseg>
  </trk>
</gpx>